[[{"header":{"parameterUnit":"m.s-1","parameterCategory":1,"la1":30.6,"la2":28.766,"lo1":-90.7593,"lo2":-88.6598,"dy":0.0162,"dx":0.0183,"nx":116,"ny":114,"refTime":"2023-03-27T18:00:00:Z","depth":0,"parameterNumber":2,"parameterNumberName":"U-component_of_WINDS"},"data":[0.0,0.0,0.0,0.0,0.0,0.0,0.0,0.0,0.0,0.0,0.0,0.0,0.0,0.0,0.0,0.0,0.0,0.0,0.0,0.0,0.0,0.0,0.0,0.0,0.0,0.0,0.0,0.0,0.0,0.0,0.0,0.0,0.0,0.0,0.0,0.0,0.0,0.0,0.0,0.0,0.0,0.0,0.0,0.0,0.0,0.0,0.0,0.0,0.0,0.0,0.0,0.0,0.0,0.0,0.0,0.0,0.0,0.0,0.0,0.0,0.0,0.0,0.0,0.0,0.0,0.0,0.0,0.0,0.0,0.0,0.0,0.0,0.0,0.0,0.0,0.0,0.0,0.0,0.0,0.0,0.0,0.0,0.0,0.0,0.0,0.0,0.0,0.0,0.0,0.0,0.0,0.0,0.0,0.0,0.0,0.0,0.0,0.0,0.0,0.0,0.0,0.0,0.0,0.0,0.0,0.0,0.0,0.0,0.0,0.0,0.0,0.0,0.0,0.0,0.0,0.0,0.0,0.0,0.0,0.0,0.0,0.0,0.0,0.0,0.0,0.0,0.0,0.0,0.0,0.0,0.0,0.0,0.0,0.0,0.0,0.0,0.0,0.0,0.0,0.0,0.0,0.0,0.0,0.0,0.0,0.0,0.0,0.0,0.0,0.0,0.0,0.0,0.0,0.0,0.0,0.0,0.0,0.0,0.0,0.0,0.0,0.0,0.0,0.0,0.0,0.0,0.0,0.0,0.0,0.0,0.0,0.0,0.0,0.0,0.0,0.0,0.0,0.0,0.0,0.0,0.0,0.0,0.0,0.0,0.0,0.0,0.0,0.0,0.0,0.0,0.0,0.0,0.0,0.0,0.0,0.0,0.0,0.0,0.0,0.0,0.0,0.0,0.0,0.0,0.0,0.0,0.0,0.0,0.0,0.0,0.0,0.0,0.0,0.0,0.0,0.0,0.0,0.0,0.0,0.0,0.0,0.0,0.0,0.0,0.0,0.0,0.0,0.0,0.0,0.0,0.0,0.0,0.0,0.0,0.0,0.0,0.0,0.0,0.0,0.0,0.0,0.0,0.0,0.0,0.0,0.0,0.0,0.0,0.0,0.0,0.0,0.0,0.0,0.0,0.0,0.0,0.0,0.0,0.0,0.0,0.0,0.0,0.0,0.0,0.0,0.0,0.0,0.0,0.0,0.0,0.0,0.0,0.0,0.0,0.0,0.0,0.0,0.0,0.0,0.0,0.0,0.0,0.0,0.0,0.0,0.0,0.0,0.0,0.0,0.0,0.0,0.0,0.0,0.0,0.0,0.0,0.0,0.0,0.0,0.0,0.0,0.0,0.0,0.0,0.0,0.0,0.0,0.0,0.0,0.0,0.0,0.0,0.0,0.0,0.0,0.0,0.0,0.0,0.0,0.0,0.0,0.0,0.0,0.0,0.0,0.0,0.0,0.0,0.0,0.0,0.0,0.0,0.0,0.0,0.0,0.0,0.0,0.0,0.0,0.0,0.0,0.0,0.0,0.0,0.0,0.0,0.0,0.0,0.0,0.0,0.0,0.0,0.0,0.0,0.0,0.0,0.0,0.0,0.0,0.0,0.0,0.0,0.0,0.0,0.0,0.0,0.0,0.0,0.0,0.0,0.0,0.0,0.0,0.0,0.0,0.0,0.0,0.0,0.0,0.0,0.0,0.0,0.0,0.0,0.0,0.0,0.0,0.0,0.0,0.0,0.0,0.0,0.0,0.0,0.0,0.0,0.0,0.0,0.0,0.0,0.0,0.0,0.0,0.0,0.0,0.0,0.0,0.0,0.0,0.0,0.0,0.0,0.0,0.0,0.0,0.0,0.0,0.0,0.0,0.0,0.0,0.0,0.0,0.0,0.0,0.0,0.0,0.0,0.0,0.0,0.0,0.0,0.0,0.0,0.0,0.0,0.0,0.0,0.0,0.0,0.0,0.0,0.0,0.0,0.0,0.0,0.0,0.0,0.0,0.0,0.0,0.0,0.0,0.0,0.0,0.0,0.0,0.0,0.0,0.0,0.0,0.0,0.0,0.0,0.0,0.0,0.0,0.0,0.0,0.0,0.0,0.0,0.0,0.0,0.0,0.0,0.0,0.0,0.0,0.0,0.0,0.0,0.0,0.0,0.0,0.0,0.0,0.0,0.0,0.0,0.0,0.0,0.0,0.0,0.0,0.0,0.0,0.0,0.0,0.0,0.0,0.0,0.0,0.0,0.0,0.0,0.0,0.0,0.0,0.0,0.0,0.0,0.0,0.0,0.0,0.0,0.0,0.0,0.0,0.0,0.0,0.0,0.0,0.0,0.0,0.0,0.0,0.0,0.0,0.0,0.0,0.0,0.0,0.0,0.0,0.0,0.0,0.0,0.0,0.0,0.0,0.0,0.0,0.0,0.0,0.0,0.0,0.0,0.0,0.0,0.0,0.0,0.0,0.0,0.0,0.0,0.0,0.0,0.0,0.0,0.0,0.0,0.0,0.0,0.0,0.0,0.0,0.0,0.0,0.0,0.0,0.0,0.0,0.0,0.0,0.0,0.0,0.0,0.0,0.0,0.0,0.0,0.0,0.0,0.0,0.0,0.0,0.0,0.0,0.0,0.0,0.0,0.0,0.0,0.0,0.0,0.0,0.0,0.0,0.0,0.0,0.0,0.0,0.0,0.0,0.0,0.0,0.0,0.0,0.0,0.0,0.0,0.0,0.0,0.0,0.0,0.0,0.0,0.0,0.0,0.0,0.0,0.0,0.0,0.0,0.0,0.0,0.0,0.0,0.0,0.0,0.0,0.0,0.0,0.0,0.0,0.0,0.0,0.0,0.0,0.0,0.0,0.0,0.0,0.0,0.0,0.0,0.0,0.0,0.0,0.0,0.0,0.0,0.0,0.0,0.0,0.0,0.0,0.0,0.0,0.0,0.0,0.0,0.0,0.0,0.0,0.0,0.0,0.0,0.0,0.0,0.0,0.0,0.0,0.0,0.0,0.0,0.0,0.0,0.0,0.0,0.0,0.0,0.0,0.0,0.0,0.0,0.0,0.0,0.0,0.0,0.0,0.0,0.0,0.0,0.0,0.0,0.0,0.0,0.0,0.0,0.0,0.0,0.0,0.0,0.0,0.0,0.0,0.0,0.0,0.0,0.0,0.0,0.0,0.0,0.0,0.0,0.0,0.0,0.0,0.0,0.0,0.0,0.0,0.0,0.0,0.0,0.0,0.0,0.0,0.0,0.0,0.0,0.0,0.0,0.0,0.0,0.0,0.0,0.0,0.0,0.0,0.0,0.0,0.0,0.0,0.0,0.0,0.0,0.0,0.0,0.0,0.0,0.0,0.0,0.0,0.0,0.0,0.0,0.0,0.0,0.0,0.0,0.0,0.0,0.0,0.0,0.0,0.0,0.0,0.0,0.0,0.0,0.0,0.0,0.0,0.0,0.0,0.0,0.0,0.0,0.0,0.0,0.0,0.0,0.0,0.0,0.0,0.0,0.0,0.0,0.0,0.0,0.0,0.0,0.0,0.0,0.0,0.0,0.0,0.0,0.0,0.0,0.0,0.0,0.0,0.0,0.0,0.0,0.0,0.0,0.0,0.0,0.0,0.0,0.0,0.0,0.0,0.0,0.0,0.0,0.0,0.0,0.0,0.0,0.0,0.0,0.0,0.0,0.0,0.0,0.0,0.0,0.0,0.0,0.0,0.0,0.0,0.0,0.0,0.0,0.0,0.0,0.0,0.0,0.0,0.0,0.0,0.0,0.0,0.0,0.0,0.0,0.0,0.0,0.0,0.0,0.0,0.0,0.0,0.0,0.0,0.0,0.0,0.0,0.0,0.0,0.0,0.0,0.0,0.0,0.0,0.0,0.0,0.0,0.0,0.0,0.0,0.0,0.0,0.0,0.0,0.0,0.0,0.0,0.0,0.0,0.0,0.0,0.0,0.0,0.0,0.0,0.0,0.0,0.0,0.0,0.0,0.0,0.0,0.0,0.0,0.0,0.0,0.0,0.0,0.0,0.0,0.0,0.0,0.0,0.0,0.0,0.0,0.0,0.0,0.0,0.0,0.0,0.0,0.0,0.0,0.0,0.0,0.0,0.0,0.0,0.0,0.0,0.0,0.0,0.0,0.0,0.0,0.0,0.0,0.0,0.0,0.0,0.0,0.0,0.0,0.0,0.0,0.0,0.0,0.0,0.0,0.0,0.0,0.0,0.0,0.0,0.0,0.0,0.0,0.0,0.0,0.0,0.0,0.0,0.0,0.0,0.0,0.0,0.0,0.0,0.0,0.0,0.0,0.0,0.0,0.0,0.0,0.0,0.0,0.0,0.0,0.0,0.0,0.0,0.0,0.0,0.0,0.0,0.0,0.0,0.0,0.0,0.0,0.0,0.0,0.0,0.0,0.0,0.0,0.0,0.0,0.0,0.0,0.0,0.0,0.0,0.0,0.0,0.0,0.0,0.0,0.0,0.0,0.0,0.0,0.0,0.0,0.0,0.0,0.0,0.0,0.0,0.0,0.0,0.0,0.0,0.0,0.0,0.0,0.0,0.0,0.0,0.0,0.0,0.0,0.0,0.0,0.0,0.0,0.0,0.0,0.0,0.0,0.0,0.0,0.0,0.0,0.0,0.0,0.0,0.0,0.0,0.0,0.0,0.0,0.0,0.0,0.0,0.0,0.0,0.0,0.0,0.0,0.0,0.0,0.0,0.0,0.0,0.0,0.0,0.0,0.0,0.0,0.0,0.0,0.0,0.0,0.0,0.0,0.0,0.0,0.0,0.0,0.0,0.0,0.0,0.0,0.0,0.0,0.0,0.0,0.0,0.0,0.0,0.0,0.0,0.0,0.0,0.0,0.0,0.0,0.0,0.0,0.0,0.0,0.0,0.0,0.0,0.0,0.0,0.0,0.0,0.0,0.0,0.0,0.0,0.0,0.0,0.0,0.0,0.0,0.0,0.0,0.0,0.0,0.0,0.0,0.0,0.0,0.0,0.0,0.0,0.0,0.0,0.0,0.0,0.0,0.0,0.0,0.0,0.0,0.0,0.0,0.0,0.0,0.0,0.0,0.0,0.0,0.0,0.0,0.0,0.0,0.0,0.0,0.0,0.0,0.0,0.0,0.0,0.0,0.0,0.0,0.0,0.0,0.0,0.0,0.0,0.0,0.0,0.0,0.0,0.0,0.0,0.0,0.0,0.0,0.0,0.0,0.0,0.0,0.0,0.0,0.0,0.0,0.0,0.0,0.0,0.0,0.0,0.0,0.0,0.0,0.0,0.0,0.0,0.0,0.0,0.0,0.0,0.0,0.0,0.0,0.0,0.0,0.0,0.0,0.0,0.0,0.0,0.0,0.0,0.0,0.0,0.0,0.0,0.0,0.0,0.0,0.0,0.0,0.0,0.0,0.0,0.0,0.0,0.0,0.0,0.0,0.0,0.0,0.0,0.0,0.0,0.0,0.0,0.0,0.0,0.0,0.0,0.0,0.0,0.0,0.0,0.0,0.0,0.0,0.0,0.0,0.0,0.0,0.0,0.0,0.0,0.0,0.0,0.0,0.0,0.0,0.0,0.0,0.0,0.0,0.0,0.0,0.0,0.0,0.0,0.0,0.0,0.0,0.0,0.0,0.0,0.0,0.0,0.0,0.0,0.0,0.0,0.0,0.0,0.0,0.0,0.0,0.0,0.0,0.0,0.0,0.0,0.0,0.0,0.0,0.0,0.0,0.0,0.0,0.0,0.0,0.0,0.0,0.0,0.0,0.0,0.0,0.0,0.0,0.0,0.0,0.0,0.0,0.0,0.0,0.0,0.0,0.0,0.0,0.0,0.0,0.0,0.0,0.0,0.0,0.0,0.0,0.0,0.0,0.0,0.0,0.0,0.0,0.0,0.0,0.0,0.0,0.0,0.0,0.0,0.0,0.0,0.0,0.0,0.0,0.0,0.0,0.0,0.0,0.0,0.0,0.0,0.0,0.0,0.0,0.0,0.0,0.0,0.0,0.0,0.0,0.0,0.0,0.0,0.0,0.0,0.0,0.0,0.0,0.0,0.0,0.0,0.0,0.0,0.0,0.0,0.0,0.0,0.0,0.0,0.0,0.0,0.0,0.0,0.0,3.1904,0.0,0.0,0.0,0.0,0.0,0.0,0.0,0.0,0.0,0.0,0.0,0.0,0.0,0.0,0.0,0.0,0.0,0.0,0.0,0.0,0.0,0.0,0.0,0.0,0.0,0.0,0.0,0.0,0.0,0.0,0.0,0.0,0.0,0.0,0.0,0.0,0.0,0.0,0.0,0.0,0.0,0.0,0.0,0.0,0.0,0.0,0.0,0.0,0.0,0.0,0.0,0.0,0.0,0.0,0.0,0.0,0.0,0.0,0.0,0.0,0.0,0.0,0.0,0.0,0.0,0.0,0.0,0.0,0.0,0.0,0.0,0.0,0.0,0.0,0.0,0.0,0.0,0.0,0.0,0.0,0.0,0.0,0.0,0.0,0.0,0.0,0.0,0.0,0.0,0.0,0.0,0.0,0.0,0.0,0.0,0.0,0.0,0.0,0.0,0.0,0.0,0.0,0.0,0.0,0.0,0.0,0.0,0.0,0.0,0.0,0.0,0.0,0.0,0.0,0.0,0.0,3.1405,0.0,0.0,0.0,0.0,0.0,0.0,0.0,0.0,0.0,0.0,0.0,0.0,0.0,0.0,0.0,0.0,0.0,0.0,0.0,0.0,0.0,0.0,0.0,0.0,0.0,0.0,0.0,0.0,0.0,0.0,0.0,0.0,0.0,0.0,0.0,0.0,0.0,0.0,0.0,0.0,0.0,0.0,0.0,0.0,0.0,0.0,0.0,0.0,0.0,0.0,0.0,0.0,0.0,0.0,0.0,0.0,0.0,0.0,0.0,0.0,0.0,0.0,0.0,0.0,0.0,0.0,0.0,0.0,0.0,0.0,0.0,0.0,0.0,0.0,0.0,0.0,0.0,0.0,0.0,0.0,0.0,0.0,0.0,0.0,0.0,0.0,0.0,0.0,0.0,0.0,0.0,0.0,0.0,0.0,0.0,0.0,0.0,0.0,0.0,0.0,0.0,0.0,0.0,0.0,0.0,0.0,0.0,0.0,3.268,3.3128,3.3854,3.3428,3.2441,3.0913,3.0992,3.0384,2.9476,3.1554,0.0,0.0,0.0,0.0,0.0,0.0,0.0,0.0,0.0,0.0,0.0,0.0,0.0,0.0,0.0,0.0,0.0,0.0,0.0,0.0,0.0,0.0,0.0,0.0,0.0,0.0,0.0,0.0,0.0,0.0,0.0,0.0,0.0,0.0,0.0,0.0,0.0,0.0,3.5882,3.6554,3.6934,3.6996,3.6592,0.0,0.0,0.0,0.0,0.0,0.0,0.0,0.0,0.0,0.0,0.0,0.0,0.0,0.0,0.0,0.0,0.0,0.0,0.0,0.0,0.0,0.0,0.0,0.0,0.0,0.0,0.0,0.0,0.0,0.0,0.0,0.0,0.0,0.0,0.0,0.0,0.0,0.0,0.0,0.0,0.0,0.0,0.0,3.4743,3.5394,0.0,0.0,0.0,0.0,0.0,0.0,0.0,0.0,0.0,0.0,0.0,0.0,0.0,3.1708,3.1752,3.063,3.0429,3.1143,3.0073,2.9802,3.0456,3.0126,2.9756,2.9406,2.925,0.0,2.9885,3.0253,0.0,0.0,0.0,0.0,0.0,0.0,0.0,0.0,0.0,0.0,0.0,0.0,0.0,0.0,0.0,0.0,0.0,0.0,0.0,0.0,0.0,0.0,0.0,0.0,0.0,0.0,0.0,0.0,0.0,0.0,0.0,0.0,0.0,0.0,0.0,0.0,3.6498,3.7009,3.7564,3.7912,3.818,3.8358,3.809,3.805,3.8175,3.8321,0.0,0.0,0.0,0.0,0.0,0.0,0.0,0.0,0.0,0.0,0.0,0.0,0.0,0.0,0.0,0.0,0.0,0.0,0.0,0.0,0.0,0.0,0.0,0.0,0.0,0.0,0.0,0.0,0.0,0.0,0.0,0.0,0.0,0.0,0.0,0.0,0.0,0.0,0.0,3.5009,3.5459,3.5589,3.5771,3.6,0.0,0.0,0.0,0.0,0.0,0.0,0.0,0.0,0.0,3.0309,3.0208,3.0058,2.9785,2.944,2.947,2.974,2.953,2.9553,2.9792,2.9702,2.9521,2.9275,2.904,2.9106,2.9394,2.9833,3.0443,3.1193,0.0,0.0,0.0,0.0,2.8748,2.7614,0.0,0.0,0.0,0.0,0.0,0.0,0.0,0.0,0.0,0.0,0.0,0.0,0.0,0.0,0.0,3.1579,0.0,0.0,0.0,0.0,0.0,0.0,0.0,0.0,0.0,0.0,0.0,0.0,3.7987,3.8301,3.891,3.891,3.8979,3.9147,3.9183,3.9237,3.9309,3.9527,3.9602,0.0,0.0,0.0,0.0,0.0,0.0,0.0,0.0,0.0,0.0,0.0,0.0,0.0,0.0,0.0,0.0,0.0,0.0,0.0,0.0,0.0,0.0,0.0,0.0,0.0,0.0,0.0,0.0,0.0,0.0,0.0,0.0,0.0,0.0,0.0,0.0,0.0,0.0,3.5394,3.5301,3.5431,3.4801,3.4625,0.0,0.0,0.0,0.0,0.0,0.0,3.0206,3.0206,2.9811,2.8885,2.8758,2.8618,2.844,2.872,2.9001,2.9151,2.9591,2.9792,2.9792,2.9792,2.9689,2.9419,2.9197,2.8973,2.887,2.9394,2.9768,2.9986,3.0581,3.043,2.9756,2.8524,2.751,2.6588,0.0,0.0,0.0,0.0,0.0,0.0,0.0,0.0,0.0,0.0,0.0,0.0,0.0,0.0,3.1858,3.1858,3.2179,3.2232,0.0,0.0,0.0,0.0,0.0,0.0,0.0,0.0,0.0,3.8554,3.8759,3.8855,3.891,3.891,3.891,3.8921,3.9101,3.9335,3.9577,3.9577,3.9602,3.9602,0.0,0.0,0.0,0.0,0.0,0.0,0.0,0.0,0.0,0.0,0.0,0.0,0.0,0.0,0.0,0.0,0.0,0.0,0.0,0.0,0.0,0.0,0.0,0.0,0.0,0.0,0.0,0.0,0.0,0.0,0.0,0.0,0.0,0.0,0.0,0.0,0.0,0.0,0.0,3.4268,3.2993,0.0,0.0,0.0,0.0,3.0959,3.0573,2.9811,2.8561,2.8498,2.8159,2.7417,2.7397,2.7843,2.8837,2.89,2.9202,2.9754,2.9779,2.9792,2.9792,2.9792,2.9689,2.9419,2.9197,2.8973,2.8803,2.8657,2.904,2.9704,2.9781,2.9781,2.9524,2.7693,2.658,2.5568,0.0,0.0,0.0,0.0,0.0,0.0,0.0,0.0,0.0,0.0,0.0,0.0,0.0,3.1785,3.1984,3.2196,3.2319,3.2354,3.2232,0.0,0.0,0.0,0.0,0.0,0.0,0.0,3.8054,3.8785,3.8989,3.9073,3.912,3.9256,3.9354,3.9354,3.9432,3.9527,3.9602,3.9602,3.9602,3.9602,3.9602,3.9656,0.0,0.0,0.0,0.0,0.0,0.0,0.0,0.0,0.0,0.0,0.0,0.0,0.0,0.0,0.0,0.0,0.0,0.0,0.0,0.0,0.0,0.0,0.0,0.0,0.0,0.0,0.0,0.0,0.0,0.0,0.0,0.0,0.0,0.0,0.0,0.0,0.0,3.3689,3.2097,0.0,3.233,3.0485,2.9279,2.9279,2.837,2.7683,2.7191,2.7472,2.7575,2.7281,2.7971,2.8536,2.8925,2.9302,2.9591,2.9792,2.9792,2.9792,2.9792,2.9792,2.9689,2.9419,2.9197,2.8973,2.8803,2.8578,2.8657,2.8961,2.8961,2.8554,2.7959,2.6696,2.5714,2.4744,0.0,0.0,0.0,0.0,0.0,0.0,0.0,0.0,0.0,0.0,0.0,3.1123,3.1711,3.1948,3.2144,3.2388,3.2406,3.2406,3.2406,0.0,0.0,0.0,0.0,0.0,0.0,3.7843,3.8263,3.8785,3.8998,3.9137,3.921,3.9458,3.9602,3.9602,3.9602,3.9602,3.9602,3.9602,3.9602,3.9602,3.9602,3.9626,3.9661,0.0,0.0,0.0,0.0,0.0,0.0,0.0,0.0,0.0,0.0,0.0,0.0,0.0,0.0,0.0,0.0,0.0,0.0,0.0,0.0,0.0,0.0,0.0,0.0,0.0,0.0,0.0,0.0,0.0,0.0,0.0,0.0,0.0,0.0,3.3165,3.2252,3.3029,3.1369,3.0319,3.0849,2.9198,2.7984,2.7802,2.6947,2.6609,2.6728,2.708,2.7457,2.7821,2.8549,2.8862,2.8731,2.918,2.9209,2.8882,2.9209,2.9378,2.9378,2.9702,2.9689,2.9341,2.887,2.8554,2.8303,2.7822,2.7592,2.7592,2.7926,2.751,2.6588,2.5663,2.4999,2.4327,0.0,0.0,0.0,0.0,0.0,0.0,0.0,0.0,0.0,0.0,3.0958,3.1504,3.1504,3.2054,3.2406,3.2406,3.2406,3.2406,3.2423,3.2892,0.0,0.0,0.0,0.0,3.7596,3.7578,3.7928,3.8597,3.8799,3.9017,3.9183,3.9458,3.9602,3.9602,3.9602,3.9602,3.9602,3.9602,3.9602,3.9602,3.9602,3.9656,3.9717,0.0,0.0,0.0,0.0,0.0,0.0,0.0,0.0,0.0,0.0,0.0,0.0,0.0,0.0,0.0,0.0,0.0,0.0,0.0,0.0,0.0,0.0,0.0,0.0,0.0,0.0,0.0,0.0,0.0,0.0,0.0,0.0,0.0,3.3593,3.2707,3.2072,3.2253,3.069,2.94,2.899,2.8061,2.7229,2.6589,2.6546,2.6716,2.7256,2.7318,2.7821,2.89,2.895,2.8808,2.8542,2.8542,2.8051,2.7151,2.8051,2.8462,2.8462,2.93,2.9611,2.925,2.8211,2.7637,2.7383,2.6235,2.5819,2.583,2.6753,2.6588,2.5663,2.4829,2.4498,2.4327,0.0,0.0,0.0,0.0,0.0,0.0,0.0,0.0,0.0,0.0,3.1196,3.1579,3.1748,3.2161,3.2406,3.2406,3.2406,3.2512,3.2837,0.0,0.0,0.0,0.0,0.0,3.7374,3.7685,3.7898,3.8104,3.8615,3.8931,3.8979,3.9406,3.9602,3.9602,3.9602,3.9602,3.9602,3.9602,3.9602,3.9602,3.9602,3.9602,3.9656,0.0,0.0,0.0,0.0,0.0,0.0,0.0,0.0,0.0,0.0,0.0,0.0,0.0,0.0,0.0,0.0,0.0,0.0,0.0,0.0,0.0,0.0,0.0,0.0,0.0,0.0,0.0,0.0,0.0,0.0,0.0,3.2214,3.1627,3.1759,3.1345,3.0837,3.0393,2.9922,2.9532,2.94,2.822,2.7417,2.7229,2.7163,2.7118,2.7268,2.8047,2.8612,2.8925,2.934,2.9551,2.9456,2.8791,2.8383,2.8131,2.7718,2.7476,2.7476,2.7718,2.7637,2.729,2.6976,2.6648,2.6235,2.5902,2.5411,2.4914,2.583,2.5663,2.4829,2.4584,2.4069,2.3484,0.0,0.0,0.0,0.0,0.0,0.0,0.0,0.0,0.0,0.0,3.0958,3.1389,3.1691,3.2001,3.2232,3.2406,3.2267,3.23,3.2535,0.0,0.0,0.0,0.0,3.7182,3.7182,3.7484,3.7685,3.7775,3.835,3.8695,3.891,3.9275,3.9483,3.9602,3.9602,3.9602,3.9602,3.9602,3.9602,3.9602,3.9602,3.9602,3.9602,3.9735,3.981,3.992,4.0101,4.0211,4.031,4.0552,0.0,0.0,0.0,0.0,0.0,0.0,0.0,0.0,0.0,0.0,0.0,0.0,0.0,0.0,0.0,0.0,0.0,0.0,0.0,0.0,0.0,0.0,0.0,0.0,3.0849,3.0084,2.9975,3.0104,3.0068,2.9623,2.9623,2.9359,2.8776,2.7999,2.7351,2.7095,2.7234,2.7381,2.7607,2.8448,2.9038,2.9289,2.9616,2.9624,2.9287,2.8791,2.8131,2.7395,2.7232,2.6894,2.64,2.6812,2.673,2.6295,2.5964,2.5568,2.5242,2.4819,2.4402,0.0,0.0,0.0,0.0,0.0,2.356,2.3135,0.0,0.0,0.0,0.0,0.0,0.0,0.0,0.0,0.0,0.0,0.0,3.1078,3.1466,3.1765,3.202,3.2354,3.2108,3.1929,0.0,0.0,0.0,3.5738,3.6478,3.6939,3.7009,3.722,3.741,3.7577,3.8,3.8428,3.8833,3.9045,3.9309,3.9552,3.9552,3.9577,3.9602,3.9602,3.9602,3.9602,3.9602,3.9602,3.9602,3.9602,3.9703,3.9892,4.0001,4.0158,4.0351,4.0637,0.0,0.0,0.0,0.0,0.0,0.0,0.0,0.0,0.0,0.0,0.0,0.0,0.0,0.0,0.0,0.0,0.0,0.0,0.0,0.0,0.0,0.0,0.0,0.0,2.9506,2.8427,2.8492,2.903,2.9359,2.9484,2.956,2.9107,2.7736,2.7537,2.7255,2.6746,2.7125,2.762,2.8172,0.0,0.0,0.0,0.0,2.9456,2.8621,2.8462,2.7557,2.5902,2.6483,2.6246,2.5326,2.6069,2.6224,2.5786,2.4957,2.4553,2.4241,2.3474,2.3135,2.3135,2.3983,2.382,2.3135,2.3135,2.3135,2.3135,0.0,0.0,0.0,0.0,0.0,0.0,0.0,0.0,0.0,2.9705,3.0182,3.0723,3.1428,3.1765,3.202,3.2354,3.2108,3.2171,0.0,0.0,3.4679,3.5738,3.5952,3.6415,3.7203,3.7259,3.741,3.7577,3.8,3.8249,3.8346,3.8755,3.9064,3.9283,3.9283,3.9406,3.9602,3.9602,3.9602,3.9602,3.9602,3.9602,3.9602,3.9602,3.9626,3.9656,3.9739,3.9781,3.9804,4.0138,4.0274,4.0371,4.0597,0.0,0.0,0.0,0.0,0.0,0.0,0.0,0.0,0.0,0.0,0.0,0.0,0.0,0.0,0.0,0.0,0.0,0.0,0.0,0.0,2.9388,2.8346,2.7855,2.8427,2.8182,2.813,2.8634,2.9219,2.9282,2.8376,2.7802,2.7613,2.7945,2.7964,2.8185,2.8737,2.9315,2.9679,2.9792,2.9792,2.9714,2.9546,2.8131,2.7139,2.6565,0.0,0.0,2.4166,2.4337,2.4251,2.3993,2.3831,2.357,2.3396,2.3135,2.3135,2.3135,2.3309,2.3222,2.3135,2.3135,2.3135,2.3135,0.0,0.0,0.0,0.0,0.0,0.0,0.0,0.0,0.0,0.0,2.9793,3.0351,3.1157,3.1389,3.1579,3.1929,3.1819,0.0,0.0,3.3152,3.4106,3.5214,3.5618,3.6218,3.7126,3.7334,3.7447,3.7447,3.7967,3.8186,3.8216,3.8523,3.8873,3.921,3.921,3.9335,3.9602,3.9602,3.9602,3.9602,3.9602,3.9602,3.9602,3.9602,3.9602,3.9602,3.9689,3.9689,3.9708,4.0001,4.012,4.0208,4.0501,4.0694,4.0836,0.0,0.0,0.0,0.0,0.0,0.0,0.0,0.0,0.0,0.0,0.0,0.0,0.0,0.0,3.4459,3.3157,0.0,3.044,2.8843,2.7959,2.7604,2.792,2.7736,2.7868,2.8903,2.8776,2.8376,2.8051,2.7611,2.7511,2.7793,2.8252,2.8637,2.8913,2.9478,2.9792,2.9792,2.9792,2.9624,2.9131,2.8119,2.7128,2.6152,2.5158,2.4337,2.3667,2.3667,2.3493,2.3319,2.3319,2.3232,2.3135,2.3135,2.3135,2.3135,2.3135,2.3135,2.3135,2.3135,2.3135,2.3135,0.0,0.0,0.0,0.0,0.0,0.0,0.0,0.0,0.0,0.0,2.9438,3.0027,3.0895,3.1015,3.1134,0.0,0.0,0.0,0.0,3.2444,3.3434,3.4424,3.5197,3.599,3.6917,3.734,3.7577,3.7503,3.7985,3.8256,3.8249,3.8446,3.8785,3.9183,3.9183,3.9335,3.9602,3.9602,3.9602,3.9596,3.9552,3.9552,3.9577,3.9552,3.9552,3.9602,3.9689,3.9693,3.9717,3.9979,4.0081,4.0139,4.0457,4.059,4.0694,4.0925,4.0955,0.0,0.0,0.0,0.0,0.0,0.0,0.0,0.0,3.7819,3.7197,3.6222,3.5027,3.384,3.2903,3.1441,2.9986,2.8734,2.792,2.7537,2.767,2.7484,2.7736,2.903,2.8195,2.7484,2.7284,2.7278,2.7318,2.7431,2.836,2.8976,2.9089,2.9541,2.9792,2.9792,2.9624,2.9209,2.845,2.7855,2.6871,2.54,2.4967,2.4317,2.3416,2.3416,2.3319,2.3135,2.3135,2.3135,2.3135,2.3135,2.3135,2.3135,2.3135,2.3135,2.3135,2.3135,2.3057,2.3057,0.0,0.0,0.0,0.0,0.0,0.0,0.0,0.0,0.0,0.0,0.0,0.0,0.0,0.0,0.0,0.0,0.0,0.0,3.1875,3.2248,3.2809,3.3582,3.4389,3.542,3.6716,3.7238,3.7774,3.8285,3.835,3.8401,3.8382,3.8578,3.8822,3.9101,3.9101,3.9283,3.9602,3.9602,3.9602,3.9577,3.9335,3.9388,3.9577,3.9335,3.9388,3.9602,3.9689,3.9642,3.9631,3.9845,4.0,4.0139,4.0345,4.0577,4.0809,4.0959,4.0996,4.0994,4.0969,4.0532,3.9986,3.9696,3.9214,3.8585,0.0,3.7064,3.6342,3.5011,3.3772,3.2532,3.1215,3.0271,2.947,2.862,2.792,2.7736,2.8298,2.7351,2.6905,2.767,2.7617,2.7297,2.6658,2.7024,2.7494,2.7971,2.8586,2.9151,2.9666,2.9754,2.9792,2.9792,2.904,2.845,2.8176,2.6543,2.5473,2.4872,2.4069,2.3493,2.3144,2.3144,2.3144,2.3135,2.3135,2.3135,2.3135,2.3135,2.3135,2.3135,2.3135,2.3135,2.3135,2.3135,2.2969,2.2803,0.0,0.0,0.0,0.0,0.0,0.0,0.0,0.0,0.0,0.0,0.0,0.0,0.0,0.0,0.0,0.0,0.0,0.0,3.1654,3.2126,3.2825,3.3755,3.4144,3.5095,3.6801,3.7145,3.7642,3.8328,3.8541,3.8603,3.8504,3.8713,3.8921,3.9156,3.9156,3.9309,3.9602,3.9602,3.9602,3.9577,3.9483,3.9502,3.9577,3.9483,3.9483,3.9602,3.9631,3.9637,0.0,0.0,3.9781,3.9918,4.0138,4.0373,4.0575,4.0857,4.0994,4.0976,4.0577,4.0231,3.9929,3.9637,3.9171,3.8646,3.8071,3.7362,3.6499,3.5318,3.4235,3.3082,3.1931,3.1145,3.0329,2.9345,2.857,2.8051,2.792,2.7095,2.6589,2.6905,2.6905,2.6909,2.6974,2.7444,2.7996,2.8549,2.9114,2.9528,2.9779,2.9792,2.9546,2.904,2.853,2.7695,2.6625,2.5546,2.4723,2.4069,2.3484,2.3232,2.3135,2.3135,2.3135,2.3135,2.3135,2.3135,2.3135,2.3135,2.3135,2.3135,2.3135,2.3135,2.3135,2.3135,2.2969,2.2803,0.0,0.0,0.0,0.0,0.0,0.0,0.0,0.0,0.0,0.0,0.0,0.0,0.0,0.0,0.0,0.0,0.0,0.0,0.0,3.2126,3.2737,3.3521,3.3901,3.4738,3.6209,3.6918,3.7571,3.82,3.8685,3.8873,3.8807,3.8979,3.9138,3.9283,3.9283,3.9406,3.9602,3.9602,3.9602,3.9577,3.9527,3.9527,3.9577,3.9527,3.9527,3.9602,3.9602,3.9637,0.0,0.0,3.9758,3.9897,4.0177,4.0331,4.0502,4.0838,4.1004,4.0999,4.0477,4.0246,4.004,3.9633,3.9144,3.87,3.8363,3.7613,3.6711,3.5812,3.4781,3.3719,3.2586,3.1879,3.1058,2.9794,2.8953,2.8233,2.7604,2.6905,2.6533,2.6533,2.6533,2.6741,2.7444,2.7871,2.8335,2.8888,2.9222,2.9456,2.9456,2.9209,2.8791,2.8131,2.7614,2.6696,2.54,2.4723,2.4059,2.3416,2.3232,2.3135,2.3135,2.3135,2.3135,2.3135,2.3135,2.3135,2.3135,2.3135,2.3135,2.3135,2.3135,2.3135,2.3047,2.3057,2.2882,2.2715,0.0,0.0,0.0,0.0,0.0,0.0,0.0,0.0,0.0,0.0,0.0,0.0,0.0,0.0,0.0,0.0,0.0,0.0,0.0,3.2196,3.2406,3.2458,3.3434,3.4189,3.4552,3.6419,3.7616,3.8011,3.8792,3.9256,3.9391,3.9391,3.9418,3.9495,3.9495,3.9546,3.9602,3.9602,3.9602,3.9577,3.9309,3.9362,3.9577,3.9309,3.9362,3.9602,3.9602,0.0,0.0,0.0,4.008,4.0323,4.0515,4.0684,0.0,4.0949,4.1054,0.0,4.1006,4.0723,4.0337,3.9757,3.9152,3.8559,3.8117,3.7432,3.6701,3.602,3.5061,3.3872,3.2625,3.1879,3.1058,2.9794,2.8953,2.8233,2.7604,2.6905,2.6533,2.6533,2.6533,2.6892,2.7971,2.8097,2.8335,2.8888,2.8643,2.8542,2.8542,2.7637,2.7151,2.7151,2.6152,2.5389,2.5126,2.4069,2.3406,2.3135,2.3135,2.3135,2.3135,2.3135,2.3135,2.3135,2.3135,2.3135,2.3135,2.3135,2.3135,2.3135,2.3135,2.3135,2.3057,2.2882,2.2618,2.2432,0.0,0.0,0.0,0.0,0.0,0.0,0.0,0.0,0.0,0.0,0.0,0.0,0.0,0.0,0.0,0.0,0.0,0.0,0.0,3.2126,3.2473,3.2654,3.327,3.3996,3.4871,3.5752,3.6556,3.7275,3.8077,3.8514,3.8627,3.9239,3.9527,3.9552,3.952,3.952,3.952,3.952,3.952,3.952,3.9483,3.9527,3.9577,3.9502,3.9527,3.9626,0.0,0.0,0.0,0.0,0.0,0.0,4.0375,0.0,4.0719,4.0996,4.1074,4.1041,4.074,4.0579,4.0342,3.9683,3.927,3.8887,3.8585,3.7948,3.7246,3.6631,3.5951,3.5078,3.3719,3.2902,3.1942,3.0482,2.9275,2.8233,2.7604,2.6905,2.6533,2.6533,2.6533,2.6892,2.7996,2.8109,2.8499,2.9428,2.8851,2.8462,2.8462,2.7637,2.673,2.6069,2.5557,2.4893,2.4069,2.3484,2.3232,2.3135,2.3135,2.3135,2.3135,2.3135,2.3135,2.3135,2.3135,2.3135,2.3135,2.3135,2.3135,2.3135,2.3135,2.3057,2.2882,2.2794,2.2539,2.2185,0.0,0.0,0.0,0.0,0.0,0.0,0.0,0.0,0.0,0.0,0.0,0.0,0.0,0.0,0.0,0.0,0.0,0.0,0.0,0.0,3.2403,3.2749,3.3255,3.3899,3.4604,3.5261,3.5863,3.6483,3.7336,3.7903,3.8203,3.8968,3.9448,3.9631,3.9631,3.9631,3.9583,3.9571,3.9352,3.9114,3.9464,3.9408,3.9188,3.9566,3.9703,0.0,0.0,0.0,0.0,0.0,0.0,0.0,0.0,0.0,4.0792,4.1034,4.109,4.1038,4.0704,4.061,4.0468,3.9884,3.9481,3.9141,3.8933,3.8378,3.7703,3.7044,3.6631,3.5968,3.4382,3.3518,3.247,3.0837,2.9633,2.857,2.7604,2.7095,2.6782,2.6521,2.6533,2.6892,2.7996,2.7791,2.8101,2.9291,2.8542,2.7879,2.7557,2.6659,2.5841,2.5094,2.4819,2.4231,2.3503,2.3232,2.3135,2.3135,2.3135,2.296,2.2599,2.2599,2.2413,2.205,2.205,2.205,2.205,2.2413,2.2599,2.2599,2.2492,2.2599,2.2715,2.2246,2.2078,2.2097,0.0,0.0,0.0,0.0,0.0,0.0,0.0,0.0,0.0,0.0,0.0,0.0,0.0,0.0,0.0,0.0,0.0,0.0,0.0,0.0,0.0,3.2684,3.339,3.3762,3.3807,3.487,3.5522,3.5642,3.6592,3.7404,3.8096,3.8529,3.9028,3.9584,3.9754,3.9794,3.9747,3.9661,3.9156,3.8456,3.9306,3.9137,3.8522,3.9523,0.0,0.0,0.0,0.0,0.0,0.0,4.0574,4.0812,4.0823,4.0906,4.1001,4.1086,4.1091,4.1055,4.0871,4.081,4.069,4.0298,3.9804,3.9387,3.916,3.873,3.8101,3.7306,3.7082,3.6481,3.4714,3.3758,3.266,3.0881,3.0029,2.903,2.767,2.7484,2.7229,2.6589,2.6533,2.6879,2.7886,2.7299,2.7208,2.8263,0.0,2.6648,2.5819,2.4935,2.4368,2.4206,2.3927,2.3667,2.3503,2.3144,2.3047,2.3047,2.296,2.2501,2.1606,2.1606,2.106,2.0232,2.0232,2.0232,2.0232,2.1239,2.1606,2.1596,2.1311,2.1765,2.2432,2.1051,2.1159,2.1919,0.0,0.0,0.0,0.0,0.0,0.0,0.0,0.0,0.0,0.0,0.0,0.0,0.0,0.0,0.0,0.0,0.0,0.0,0.0,0.0,0.0,0.0,0.0,0.0,0.0,0.0,0.0,3.4877,3.5772,3.6302,3.6506,3.7263,3.7683,3.7863,3.8658,3.9007,3.9009,3.9634,3.9785,3.9656,0.0,3.9907,3.9756,0.0,0.0,0.0,0.0,0.0,0.0,4.0412,4.0591,4.0818,4.0922,4.0968,4.1019,4.1074,4.1092,4.1086,4.0986,4.0882,4.0712,4.0365,4.0136,3.9882,3.9439,3.9109,3.8674,3.7857,3.7596,3.7097,3.5752,3.4492,3.2997,3.1008,2.9591,2.8312,2.6973,2.6782,2.6714,2.6521,2.6533,2.6519,2.6602,2.6709,0.0,0.0,2.6117,2.6069,2.5819,2.4935,2.4282,2.3927,2.3841,2.358,2.3232,2.2413,2.2059,2.2059,2.1329,2.0782,2.0593,2.0593,2.0413,2.0232,2.0232,2.0232,2.0232,2.0503,2.0512,2.0339,2.024,2.0141,1.996,1.9588,1.9513,1.9621,0.0,0.0,0.0,0.0,0.0,0.0,0.0,0.0,0.0,0.0,0.0,0.0,0.0,0.0,0.0,0.0,0.0,0.0,0.0,0.0,0.0,0.0,0.0,0.0,0.0,0.0,0.0,0.0,0.0,0.0,3.6037,3.6711,3.7186,3.7484,3.808,3.8381,3.8418,3.8848,0.0,0.0,0.0,0.0,0.0,0.0,0.0,0.0,0.0,0.0,4.0668,4.0634,4.074,4.0914,4.1016,4.1047,4.1051,4.1045,4.1055,4.1039,4.0898,4.0811,4.0696,4.0453,4.0192,3.988,3.9481,3.9099,3.8663,3.8065,3.765,3.7097,3.6147,3.4394,3.2635,3.1252,2.9638,2.8117,2.7095,2.6905,2.685,2.6521,2.6164,2.6024,2.6118,2.5667,2.537,2.5227,2.5557,2.5663,2.5263,2.4786,2.4272,2.3841,2.3841,2.3396,2.2501,2.1961,2.1507,2.1051,2.0503,1.996,1.9604,1.9604,1.933,1.8964,0.0,1.8964,1.8964,1.9422,1.943,1.9255,1.9147,1.9047,1.9039,1.8503,1.8511,1.8788,0.0,0.0,0.0,0.0,0.0,0.0,0.0,0.0,0.0,0.0,2.7595,0.0,0.0,0.0,0.0,0.0,0.0,0.0,0.0,0.0,0.0,0.0,0.0,0.0,0.0,0.0,0.0,0.0,0.0,0.0,0.0,0.0,0.0,0.0,0.0,0.0,0.0,0.0,0.0,0.0,0.0,0.0,0.0,0.0,0.0,0.0,0.0,0.0,0.0,4.0906,4.0935,4.0972,4.1034,4.1051,4.1045,4.0992,4.0981,4.0953,4.0757,4.0674,4.0623,4.0496,4.0082,3.9645,3.9387,3.8952,3.846,3.8052,3.7433,3.679,3.6062,3.3942,3.2083,3.1369,2.9714,2.8247,2.7484,2.7284,2.7015,2.6383,2.5664,2.5266,2.5646,2.448,2.4039,2.4788,2.5207,2.5219,2.4529,2.454,2.4186,2.3657,2.357,2.2853,2.1516,2.1418,2.0872,2.0051,1.9869,1.9422,1.8603,1.8603,1.8149,1.7326,1.7326,1.7326,1.7326,1.8241,1.8427,1.8149,1.7956,1.8126,1.8588,1.7505,1.7692,1.8419,0.0,0.0,0.0,0.0,0.0,0.0,0.0,0.0,0.0,0.0,2.7233,2.7386,0.0,0.0,0.0,0.0,0.0,0.0,0.0,0.0,0.0,0.0,0.0,0.0,0.0,0.0,0.0,0.0,0.0,0.0,0.0,0.0,0.0,0.0,0.0,0.0,0.0,0.0,0.0,0.0,0.0,0.0,0.0,0.0,0.0,0.0,0.0,0.0,0.0,0.0,4.0863,4.0833,4.085,4.084,4.0852,4.0846,4.0837,4.0829,4.0791,4.0578,4.0346,4.035,4.0062,3.9668,3.9186,3.9044,3.8733,3.7862,3.7377,3.6698,3.5363,3.3974,3.2361,3.0292,2.9122,2.8051,2.685,2.6082,2.5652,2.5523,2.4791,2.4093,2.362,2.3611,2.3535,0.0,2.3384,2.3908,2.4498,2.454,2.3917,2.2668,2.2227,2.1507,2.0503,1.9695,1.9247,1.9063,1.8241,1.7692,1.7606,1.7606,1.7419,1.7326,1.7326,0.0,1.7326,1.7512,1.7326,1.6958,1.6857,1.6669,1.6379,1.6109,1.6197,1.6292,0.0,0.0,0.0,0.0,0.0,0.0,0.0,2.4794,2.53,2.6218,2.6974,2.735,2.7144,2.7944,2.8496,0.0,0.0,0.0,0.0,0.0,0.0,0.0,0.0,0.0,0.0,0.0,0.0,0.0,0.0,0.0,0.0,0.0,0.0,0.0,0.0,0.0,0.0,0.0,0.0,0.0,0.0,0.0,0.0,0.0,0.0,0.0,0.0,0.0,0.0,0.0,4.0682,4.0712,4.0772,4.081,4.0801,4.0759,4.0645,4.0533,4.0505,4.0271,4.0024,4.0024,3.97,3.9289,3.8943,3.845,3.7957,3.7358,3.6435,3.5545,3.4825,3.3232,3.1611,3.0364,2.8652,2.7285,2.6514,2.5405,2.4707,2.4707,2.3986,2.3423,2.3001,2.2821,2.2685,2.248,2.2708,2.3122,2.3805,2.3358,2.2698,2.1854,2.1239,2.0421,1.9513,1.9063,1.8519,1.7971,1.7512,1.7326,1.7326,1.7326,1.7326,1.7326,1.7326,1.7326,1.7326,1.7326,1.7145,1.6784,1.6683,1.64,1.6028,1.5832,1.5832,1.5832,0.0,0.0,0.0,0.0,0.0,0.0,0.0,2.4509,2.5021,2.566,2.6578,2.7218,2.7218,2.7993,2.8559,0.0,0.0,0.0,0.0,0.0,0.0,0.0,0.0,0.0,0.0,0.0,0.0,0.0,0.0,0.0,0.0,0.0,0.0,0.0,0.0,0.0,0.0,0.0,0.0,0.0,0.0,0.0,0.0,0.0,0.0,0.0,0.0,0.0,4.0547,0.0,4.0502,4.0554,4.0616,4.0657,4.0665,4.0604,4.0404,4.0168,4.012,3.9901,3.9645,3.9645,3.9257,3.881,3.8481,3.7787,3.7097,3.6609,3.5436,3.4349,3.3924,3.2237,3.0734,3.0197,2.8282,2.668,2.6133,2.4957,2.4047,2.3902,2.3202,2.2703,2.2542,2.1949,2.1722,2.1913,2.1944,2.2178,2.2818,2.1887,2.1176,2.0616,1.9992,1.9282,1.8292,1.83,1.7842,1.7121,1.7121,1.7121,1.7121,1.6936,1.6936,1.7121,1.6936,1.6936,1.7121,1.7121,1.6943,1.6772,1.6579,1.6306,1.5933,1.5738,1.5685,1.5732,0.0,0.0,0.0,0.0,0.0,0.0,0.0,2.4118,2.4408,2.5007,2.5986,2.6573,2.6573,2.775,2.8685,0.0,0.0,0.0,0.0,0.0,0.0,0.0,0.0,0.0,0.0,0.0,0.0,0.0,0.0,0.0,0.0,0.0,0.0,0.0,0.0,0.0,0.0,0.0,0.0,0.0,0.0,0.0,0.0,0.0,0.0,0.0,0.0,4.0466,4.0423,4.0406,4.037,4.0306,4.012,4.0157,4.0248,4.025,4.0062,3.9842,3.984,3.951,3.916,3.916,3.8828,3.8281,3.7578,3.7361,3.6929,3.5542,3.4858,3.3924,3.2097,3.1273,3.0257,2.839,2.7829,2.7149,2.5581,2.4636,2.3829,2.3213,2.2402,2.1721,2.1175,2.1021,2.0722,2.0196,2.0117,2.063,2.1695,2.0931,1.9862,1.8523,1.8175,1.7572,1.6632,1.6632,1.6544,1.6455,1.6455,1.6455,1.6455,1.5831,1.592,1.6455,1.5831,1.5927,0.0,1.6455,1.6373,1.6113,1.6024,1.5763,1.541,1.532,1.5393,1.5438,0.0,0.0,0.0,0.0,0.0,0.0,2.4015,2.4131,2.435,2.5007,2.6051,2.6828,2.7136,2.8079,2.8748,2.8764,0.0,0.0,0.0,0.0,0.0,0.0,0.0,0.0,0.0,0.0,0.0,3.546,0.0,0.0,0.0,0.0,0.0,0.0,0.0,0.0,0.0,0.0,0.0,0.0,0.0,0.0,0.0,0.0,0.0,0.0,0.0,0.0,3.9724,3.9697,3.9678,3.9675,3.9566,3.9406,3.9382,3.9821,3.969,3.9364,3.9364,3.9044,3.87,3.87,3.8194,3.7596,3.6973,3.6284,3.5474,3.4589,3.347,3.2362,3.1615,3.0616,2.9628,2.8698,2.771,2.668,2.5438,2.4181,2.3043,2.1852,2.1482,2.1021,2.0382,2.0304,2.0226,1.9904,1.952,1.943,1.9579,1.9238,1.8541,1.7573,1.7144,1.68,1.6367,1.6367,1.619,1.5835,1.5835,1.5562,1.5102,1.4834,1.4923,1.5102,1.4834,1.4923,0.0,1.5102,1.5102,1.493,1.4854,1.4681,1.4508,1.4687,1.4669,1.4767,0.0,0.0,0.0,0.0,0.0,2.3258,2.3721,2.415,2.4526,2.498,2.6275,2.7259,2.7575,2.8432,2.8951,2.8889,2.9438,0.0,0.0,0.0,0.0,0.0,0.0,0.0,0.0,0.0,3.5315,3.5468,3.5607,3.5678,0.0,0.0,0.0,0.0,0.0,0.0,0.0,0.0,0.0,0.0,0.0,0.0,0.0,0.0,0.0,0.0,0.0,0.0,0.0,0.0,0.0,3.9156,3.9051,0.0,0.0,3.9283,3.9193,3.8896,3.8896,3.8591,3.8285,3.8285,3.7596,3.6816,3.629,3.5105,3.3875,3.3196,3.1906,3.0808,3.0468,2.9386,2.8414,2.8076,2.6857,2.5624,2.4708,2.3683,2.2467,2.1098,2.0867,2.0547,1.9756,1.9441,1.9362,1.9362,1.8904,1.8434,1.7683,1.759,1.7351,1.686,1.6255,1.5995,1.5821,1.5647,1.5297,1.4777,1.4777,1.45,1.4046,1.3869,1.3869,1.4046,1.378,1.3869,0.0,1.4046,1.4046,1.4052,1.3888,1.3799,1.3711,1.3888,1.3856,1.3835,0.0,0.0,0.0,0.0,0.0,0.0,2.3138,2.4187,2.4885,2.463,2.6585,2.7871,2.7625,2.848,2.9289,2.9766,2.9793,0.0,0.0,0.0,0.0,0.0,0.0,0.0,0.0,0.0,3.5391,3.5405,3.5678,3.5801,3.5807,3.5947,3.5991,0.0,0.0,0.0,0.0,0.0,0.0,0.0,0.0,0.0,0.0,0.0,0.0,0.0,0.0,0.0,0.0,0.0,0.0,0.0,0.0,0.0,0.0,0.0,3.8573,3.8415,3.8415,3.8219,3.8018,3.8018,3.7044,3.5967,3.5518,3.3974,3.2322,3.1357,3.0454,2.9473,2.8285,2.7406,2.6587,2.5755,2.4981,2.4131,2.3139,2.3001,2.2467,2.1098,2.0867,2.0401,1.9152,1.8434,1.804,1.804,1.8031,0.0,1.6221,1.6139,1.6154,1.6095,1.5492,1.4901,1.4405,1.3737,1.3404,1.3404,1.3404,1.3404,1.3404,1.2717,1.2802,1.3398,1.2711,1.2802,0.0,1.3404,1.3404,1.3404,1.3404,1.3228,1.3052,1.3052,1.2787,1.2486,0.0,0.0,0.0,0.0,0.0,0.0,0.0,2.4473,2.501,2.5739,2.7092,2.8003,2.8003,2.8227,2.8826,2.9957,3.0199,0.0,0.0,0.0,0.0,0.0,0.0,0.0,0.0,0.0,3.5469,3.5469,3.5743,3.5836,3.58,3.5896,3.5929,3.5939,3.5873,0.0,0.0,0.0,0.0,0.0,0.0,0.0,0.0,0.0,0.0,0.0,0.0,0.0,0.0,0.0,0.0,0.0,0.0,0.0,0.0,3.6404,3.654,3.6636,3.6636,3.6156,3.5668,3.5668,3.4781,3.3745,3.3192,3.1732,3.0235,2.926,2.8187,2.7235,2.6523,2.5738,2.5098,2.4838,2.4085,2.3272,2.2424,2.1962,2.1201,1.9775,1.9222,1.8496,1.7521,1.7277,1.687,1.6304,1.6221,1.6057,1.5643,1.5643,1.5318,1.4755,1.4566,1.4223,1.3899,1.373,1.3307,1.2711,1.2711,1.2454,1.1946,1.1774,1.1774,1.1946,1.1774,1.1774,1.1946,1.1946,1.1946,1.1946,1.1946,1.1946,1.1854,1.2192,1.206,1.1695,0.0,0.0,0.0,0.0,0.0,0.0,0.0,2.4473,2.4954,2.563,2.6718,2.7579,2.7954,2.7905,2.845,2.9897,3.0156,0.0,0.0,0.0,0.0,0.0,0.0,0.0,3.5284,3.5417,3.5488,3.5534,3.574,3.5831,3.5841,3.5918,3.5942,3.5935,3.584,3.5806,0.0,0.0,0.0,0.0,0.0,0.0,3.6785,0.0,0.0,0.0,0.0,0.0,0.0,0.0,0.0,0.0,0.0,0.0,0.0,0.0,3.4725,3.4485,3.4851,3.4592,3.4136,3.3909,3.2875,3.1757,3.1399,2.9789,2.8238,2.7643,2.6684,2.5844,2.5611,2.4577,2.3745,2.3745,2.2754,2.1683,2.0854,2.0391,1.9612,1.8141,1.744,1.6796,0.0,1.6214,1.5966,1.5477,1.5394,1.5228,1.4887,1.4887,1.4475,1.3568,1.3802,1.3802,1.3476,1.3143,1.2631,1.2112,1.2026,1.1774,1.1262,1.1262,1.1262,1.1262,1.1262,1.1262,0.0,1.1262,1.1262,1.1262,1.1262,1.1262,1.1348,1.1596,1.1332,1.0809,0.0,0.0,0.0,0.0,0.0,0.0,0.0,2.4187,2.494,2.4743,2.5791,2.6858,2.751,2.7625,2.8163,2.9601,0.0,0.0,0.0,0.0,0.0,0.0,0.0,0.0,3.5281,3.5379,3.5474,3.5599,3.5657,3.5771,3.5898,3.5957,3.5995,3.5976,3.5852,3.5789,0.0,0.0,0.0,0.0,0.0,0.0,0.0,0.0,0.0,0.0,0.0,0.0,0.0,0.0,0.0,0.0,0.0,0.0,0.0,0.0,0.0,0.0,0.0,3.3317,3.3217,3.2541,3.1218,3.0031,2.9957,2.813,0.0,2.6438,2.5742,2.5158,2.5087,2.3672,2.2553,2.2478,2.0961,1.958,1.8683,1.8435,1.7865,1.639,1.5779,1.5394,1.5311,1.5311,1.5311,1.5228,1.5228,1.4803,1.3957,1.388,1.3542,1.2705,1.3288,1.3372,1.296,1.2118,1.1699,1.1699,1.144,1.1262,1.1262,1.1262,1.1262,0.0,1.1262,1.1262,1.1262,1.1262,1.1262,1.1262,1.1262,1.1262,1.1262,1.1262,1.0738,1.0038,0.0,0.0,0.0,0.0,0.0,0.0,0.0,0.0,0.0,0.0,2.6666,2.741,2.7575,2.7625,2.8048,0.0,0.0,0.0,0.0,0.0,0.0,0.0,0.0,0.0,3.5309,3.5415,3.5481,3.5513,3.5636,3.5738,3.5827,3.5847,3.5852,3.5837,3.5708,3.553,0.0,0.0,0.0,0.0,0.0,0.0,0.0,0.0,0.0,0.0,3.8274,3.7949,0.0,0.0,0.0,0.0,0.0,0.0,0.0,0.0,3.186,3.0793,2.9961,0.0,3.1084,3.0218,2.9307,2.852,0.0,0.0,0.0,0.0,0.0,2.3728,2.2756,2.2231,2.1776,2.1165,2.0148,1.9116,1.8284,1.7001,0.0,1.5621,1.547,1.5137,1.4384,1.4294,1.4048,1.3379,1.3288,1.3209,1.3039,1.3039,1.2869,1.2705,1.2869,1.2784,1.2534,1.2118,1.1871,1.1699,1.144,1.1262,1.1262,1.1262,1.1262,1.1262,1.1262,1.1262,1.1262,1.1262,1.1262,1.1262,1.1262,1.1262,1.1262,1.1262,1.0738,1.0038,0.0,0.0,0.0,0.0,0.0,0.0,0.0,0.0,0.0,0.0,0.0,2.7092,2.7575,2.7625,0.0,0.0,0.0,0.0,0.0,0.0,0.0,0.0,0.0,3.5314,3.5357,3.5391,3.5455,3.5541,3.5495,3.5524,3.5606,3.5527,3.5528,3.5616,3.5578,3.5388,3.5181,0.0,0.0,0.0,3.8141,0.0,0.0,0.0,0.0,0.0,3.7703,3.723,0.0,3.616,3.5341,3.4414,0.0,0.0,0.0,0.0,3.0793,2.9718,2.8989,2.9192,2.9331,2.8141,2.7352,2.6748,2.6146,0.0,0.0,0.0,0.0,2.299,2.2014,2.0981,2.0353,2.0304,1.8709,1.7261,1.6429,1.5289,1.4482,1.4391,1.4307,1.4139,0.0,1.3372,1.3203,1.2705,1.2272,1.21,1.21,1.166,1.1397,1.1397,1.1397,1.1574,1.1929,1.1682,1.1251,1.0554,1.0294,1.0386,1.0651,1.0651,1.0911,1.1262,1.1262,1.1262,1.1262,1.1262,1.1262,1.1262,1.1262,1.1262,1.1262,1.1262,1.0911,1.0207,0.0,0.0,0.0,0.0,0.0,0.0,0.0,0.0,0.0,0.0,0.0,0.0,0.0,0.0,0.0,0.0,0.0,0.0,0.0,0.0,0.0,0.0,3.523,3.5269,3.5314,3.529,3.5369,3.5531,3.5306,3.5268,3.5384,3.5175,3.5168,3.5322,3.5357,3.5278,3.521,3.671,3.7156,3.698,3.8405,0.0,0.0,0.0,0.0,0.0,0.0,0.0,0.0,3.5103,3.4252,3.3348,3.2509,0.0,0.0,0.0,0.0,0.0,2.8771,2.8295,2.7512,2.6402,2.5721,2.5229,2.4791,0.0,0.0,0.0,0.0,2.2531,2.1517,2.0003,1.8973,1.9325,1.7082,0.0,1.4216,1.3639,1.3222,1.3137,1.3052,0.0,1.2619,1.2534,1.2534,1.2357,1.1666,1.1149,1.1149,1.0448,0.9927,0.9927,0.9923,1.0188,1.089,1.0804,1.0284,0.9235,0.9061,0.9327,0.9946,0.9946,1.0472,1.1262,0.0,0.0,1.1262,1.1262,1.1262,1.1262,1.1262,1.1262,1.1262,1.1262,1.0992,1.0549,0.0,0.0,0.0,0.0,0.0,0.0,0.0,0.0,0.0,0.0,0.0,0.0,0.0,0.0,0.0,0.0,0.0,0.0,0.0,0.0,0.0,3.4874,3.4995,3.5009,3.4883,3.5103,3.5224,3.527,3.5223,3.5243,3.5303,3.5105,3.499,3.4974,3.4867,3.5134,3.5706,3.632,3.6801,3.7195,3.7849,0.0,0.0,0.0,0.0,0.0,0.0,0.0,0.0,3.3941,3.2935,3.1747,3.1334,0.0,0.0,0.0,0.0,0.0,2.6989,2.5607,2.4614,2.5636,2.5755,2.5264,2.3717,0.0,0.0,0.0,0.0,0.0,0.0,1.97,1.9307,0.0,0.0,1.4364,0.0,0.0,1.2875,1.3058,0.0,1.2619,1.2186,1.1929,1.1585,1.0982,1.0809,1.0722,1.0722,1.0376,1.0202,1.0202,1.0014,0.9579,0.8978,0.9497,0.9753,0.9492,0.9318,0.9501,1.0207,1.0207,1.0646,1.1262,0.0,1.1262,1.1262,1.1262,1.1262,1.1262,1.1262,1.1262,1.1262,1.1262,1.0992,1.0549,0.0,0.0,0.0,0.0,0.0,0.0,0.0,0.0,0.0,0.0,0.0,0.0,0.0,0.0,0.0,0.0,0.0,0.0,0.0,0.0,3.4788,3.4635,3.438,3.4283,3.4317,3.4433,3.4505,3.4505,3.4381,3.4523,3.4905,3.4466,3.4386,3.4602,3.4274,3.4666,3.5605,3.5863,3.6255,3.6732,0.0,0.0,0.0,0.0,0.0,0.0,0.0,0.0,0.0,0.0,3.2053,3.0896,3.0375,0.0,0.0,0.0,0.0,0.0,2.5286,2.4112,2.3143,2.3194,2.2698,2.2009,2.1435,0.0,0.0,0.0,0.0,0.0,0.0,0.0,1.5655,1.3891,0.0,1.2826,1.226,1.1832,1.1574,0.0,0.0,1.1499,1.1235,1.1154,1.0982,1.0636,1.0111,0.9845,0.9845,0.9331,0.8899,0.8815,0.8636,0.8368,0.7753,0.8101,0.8189,0.8101,0.7929,0.8277,0.8973,0.9327,1.0028,1.0819,0.0,1.1262,1.1262,1.1262,1.1262,1.1262,1.1262,1.1262,1.1262,1.1262,1.0992,1.0549,0.0,0.0,0.0,0.0,0.0,0.0,0.0,0.0,0.0,0.0,0.0,0.0,0.0,0.0,0.0,0.0,0.0,0.0,0.0,3.4749,3.4517,3.4236,3.377,3.3608,3.3771,3.366,3.3691,3.3826,3.3684,3.3827,3.4284,3.3647,3.3532,3.3932,3.3574,3.4109,3.5202,3.5314,3.5695,3.6289,0.0,0.0,0.0,0.0,0.0,0.0,0.0,0.0,0.0,0.0,0.0,0.0,0.0,0.0,0.0,2.6208,2.5015,2.4028,2.3593,2.2424,2.1151,2.0236,1.9985,0.0,0.0,0.0,0.0,0.0,0.0,0.0,0.0,1.3995,0.0,1.145,1.1295,1.1198,1.1058,1.0707,1.0534,1.0717,1.0636,1.0549,1.0463,1.0376,1.0289,1.012,0.9506,0.9065,0.9065,0.8372,0.7852,0.768,0.7591,0.7503,0.7231,0.7231,0.7058,0.6881,0.6881,0.7228,0.7921,0.8623,0.9414,1.0381,1.0997,1.1262,1.1262,1.1262,1.1262,1.1262,1.1262,1.1262,1.1262,1.1262,1.0992,1.0636,0.0,0.0,0.0,0.0,0.0,0.0,0.0,0.0,0.0,0.0,0.0,0.0,0.0,0.0,0.0,0.0,0.0,0.0,0.0,3.452,3.4165,3.3433,3.3341,3.3332,3.3358,3.2984,3.3073,3.3607,3.36,3.3532,3.3377,3.276,3.2524,3.2556,3.2831,3.3595,3.4641,3.4604,3.5217,3.617,3.582,0.0,0.0,0.0,0.0,0.0,0.0,0.0,0.0,0.0,0.0,0.0,0.0,0.0,2.4826,2.4542,2.3194,2.1847,2.1899,1.9606,1.7307,1.7227,1.9703,0.0,1.847,1.8497,0.0,1.6619,0.0,0.0,0.0,1.3328,1.1889,1.1364,1.0773,1.0096,0.9235,0.0,1.0463,1.0895,1.0722,1.0463,1.0028,0.9772,0.9432,0.8828,0.8652,0.8652,0.8652,0.838,0.8201,0.8113,0.794,0.7768,0.7507,0.7507,0.7323,0.7054,0.7054,0.7492,0.8197,0.889,0.9589,1.0381,1.0997,1.1262,1.1262,1.1262,1.1262,1.1262,1.1262,1.1262,1.1262,1.1262,1.0992,1.0636,0.0,0.0,0.0,0.0,0.0,0.0,0.0,0.0,0.0,0.0,0.0,0.0,0.0,0.0,0.0,0.0,0.0,0.0,0.0,3.2379,3.2029,3.1341,3.0915,3.116,3.2159,3.2021,3.2072,3.229,3.2364,3.2346,3.2221,3.1636,3.1706,3.2347,3.2096,3.2681,3.3878,3.3524,3.386,3.4589,3.4268,3.3853,0.0,0.0,0.0,0.0,0.0,0.0,0.0,0.0,2.8009,2.6777,2.5933,2.4992,2.3952,2.2829,2.1834,2.0921,2.01,1.8665,1.7162,1.63,1.7516,0.0,0.0,1.569,1.5479,1.4779,1.4539,0.0,0.0,0.0,1.0014,1.0605,0.9309,0.836,0.8632,0.8636,0.8727,0.9074,0.9069,0.9074,0.9082,0.8999,0.8915,0.8656,0.8568,0.8568,0.8568,0.8476,0.838,0.8201,0.8113,0.794,0.7507,0.7507,0.7326,0.7139,0.7139,0.7228,0.758,0.8886,0.9497,0.9676,1.0997,1.144,1.1262,1.1262,1.1262,1.1262,1.1262,1.1262,1.1262,1.1262,1.1176,1.1084,0.0,0.0,0.0,0.0,0.0,0.0,0.0,0.0,0.0,0.0,0.0,0.0,0.0,0.0,0.0,0.0,0.0,0.0,3.0238,3.0469,3.0207,2.9124,2.8645,2.8794,2.973,3.0079,3.057,3.1257,3.0997,3.0874,3.0777,3.0013,3.003,3.0729,3.0615,3.1263,3.2503,3.2433,3.2814,3.355,3.3271,3.2917,0.0,0.0,0.0,0.0,0.0,0.0,0.0,0.0,2.6591,2.5202,2.4304,2.3323,2.2403,2.1038,2.0178,1.9376,1.8238,1.7187,1.6137,1.494,0.0,0.0,1.3276,1.346,1.3738,1.3015,1.2765,1.2353,1.1011,0.0,0.0,0.0,0.8364,0.7496,0.8285,0.8025,0.7856,0.812,0.8208,0.8384,0.8568,0.8568,0.8568,0.8568,0.8568,0.8568,0.8568,0.8568,0.8476,0.8292,0.8292,0.8116,0.7768,0.768,0.7588,0.7231,0.7231,0.7143,0.7139,0.854,0.9061,0.8978,1.0554,1.117,1.0997,1.1176,1.1262,1.1262,1.1262,1.1262,1.1262,1.1262,1.1262,1.1262,0.0,0.0,0.0,0.0,0.0,0.0,0.0,0.0,0.0,0.0,0.0,0.0,0.0,0.0,0.0,0.0,0.0,0.0,2.7794,2.9173,2.9041,2.6844,2.6763,2.652,2.5921,2.695,2.8543,3.0673,2.9613,2.9102,2.9058,2.7821,2.7305,2.732,2.8343,2.9311,3.0361,3.1279,3.2222,3.3182,3.3182,3.2454,3.1375,0.0,0.0,0.0,0.0,0.0,0.0,0.0,2.4779,2.2285,2.2027,2.1038,1.9747,1.9195,1.806,1.6919,1.646,1.5003,1.3382,1.2688,0.0,0.0,0.9983,1.2343,1.4024,1.1244,1.1286,1.1377,0.9961,1.0213,0.0,0.9061,0.8113,0.768,0.8113,0.8201,0.8292,0.8564,0.8568,0.8568,0.8568,0.8568,0.8568,0.8568,0.8568,0.8568,0.8568,0.8568,0.8568,0.8568,0.8568,0.8472,0.8201,0.8201,0.794,0.7507,0.7507,0.7326,0.7139,0.7845,0.8201,0.8288,0.968,1.0294,1.0381,1.0997,1.1262,1.1262,1.1262,1.1262,1.1262,1.1262,1.1262,1.1262,0.0,0.0,0.0,0.0,0.0,0.0,0.0,0.0,0.0,0.0,0.0,0.0,0.0,0.0,0.0,0.0,0.0,0.0,2.7211,2.6422,2.5596,2.4532,2.449,2.4914,2.5869,2.582,2.6696,2.8451,2.8104,2.7735,2.7345,2.6967,2.6982,2.7335,2.7765,2.8326,2.899,2.9388,3.0002,3.0601,3.0601,3.0377,3.0029,0.0,0.0,0.0,0.0,0.0,0.0,0.0,0.0,0.0,2.1038,2.0372,1.9913,1.8807,1.7897,1.6971,1.6036,1.4328,0.0,1.2157,0.0,0.0,0.0,1.056,0.0,0.0,0.9665,0.9304,0.9794,0.899,0.0,0.93,0.846,0.7856,0.794,0.8113,0.8201,0.8292,0.8476,0.8568,0.8568,0.8568,0.8568,0.8568,0.8568,0.8568,0.8568,0.8568,0.8568,0.8568,0.8568,0.8472,0.8201,0.8201,0.794,0.7507,0.7507,0.7326,0.7139,0.8017,0.8715,0.9235,1.0111,1.0819,1.1262,1.1262,1.1262,1.1262,1.1262,1.1262,1.1262,1.1262,1.1262,1.1262,0.0,0.0,0.0,0.0,0.0,0.0,0.0,0.0,0.0,0.0,0.0,0.0,0.0,0.0,0.0,0.0,0.0,0.0,0.0,2.4231,2.3581,2.2613,2.2565,2.3216,2.4639,2.4356,2.4734,2.5912,2.5912,2.5751,2.5356,2.5342,2.537,2.5464,2.6218,2.6917,2.7549,2.8098,2.8786,2.9504,2.9303,2.9038,2.8784,0.0,0.0,0.0,0.0,0.0,0.0,0.0,0.0,0.0,1.9982,1.945,1.9018,1.7233,1.6477,1.573,1.4003,1.2473,0.0,1.0584,0.9854,0.9135,0.887,0.0,0.0,0.0,0.8773,0.8422,0.8873,0.8493,0.0,0.8948,0.846,0.8028,0.812,0.8296,0.838,0.838,0.8476,0.8568,0.8568,0.8568,0.8568,0.8568,0.8568,0.8568,0.8568,0.8568,0.8568,0.8568,0.8568,0.8564,0.838,0.838,0.8204,0.7764,0.7764,0.7676,0.7408,0.7757,0.8364,0.9235,1.0197,1.0992,1.1699,1.144,1.1262,1.1262,1.1262,1.1262,1.1262,1.1262,1.1262,1.1262,0.0,0.0,0.0,0.0,0.0,0.0,0.0,0.0,0.0,0.0,0.0,0.0,0.0,0.0,0.0,0.0,0.0,0.0,0.0,2.2565,2.2673,2.1273,2.1221,2.169,2.2603,2.2664,2.2832,2.331,2.3428,2.3487,2.3428,2.3352,2.3065,2.2677,2.4141,2.5158,2.5915,2.6925,2.807,2.9032,2.8616,2.8063,2.7485,2.6938,0.0,0.0,0.0,0.0,0.0,0.0,0.0,0.0,1.8913,1.8407,1.7413,1.5021,1.4254,1.3668,1.1238,1.0221,0.9589,0.8501,0.8134,0.0,0.8228,0.8008,0.7783,0.8084,0.0,0.8405,0.7577,0.8401,0.8913,0.8345,0.8201,0.8292,0.8564,0.8568,0.8568,0.8568,0.8568,0.8568,0.8568,0.8568,0.8568,0.8568,0.8568,0.8568,0.8568,0.8568,0.8568,0.8568,0.8568,0.8568,0.8568,0.8568,0.8472,0.8201,0.8201,0.8116,0.7852,0.7408,0.7665,0.8715,1.0111,1.1079,1.1699,1.144,1.1354,1.1348,1.1354,1.1354,1.1348,1.1354,1.1262,1.1262,0.0,0.0,0.0,0.0,0.0,0.0,0.0,0.0,0.0,0.0,0.0,0.0,0.0,0.0,0.0,0.0,0.0,0.0,0.0,2.2189,2.1542,2.1221,2.1221,2.1285,2.1577,2.1577,2.1565,2.169,2.2905,2.3263,2.2761,2.2786,2.2725,2.2604,2.2971,2.3454,2.4067,2.4734,2.5353,2.6095,2.6405,2.6445,2.6171,2.5414,2.472,0.0,0.0,0.0,0.0,0.0,0.0,0.0,1.7997,1.7161,1.65,1.4655,1.3405,1.2473,1.1415,0.9983,0.0,0.8444,0.7727,0.7169,0.7246,0.7249,0.7557,0.8232,0.7808,0.7395,0.7632,0.7887,0.8182,0.8424,0.8476,0.8564,0.8568,0.8568,0.8568,0.8568,0.8568,0.8568,0.8568,0.8568,0.8568,0.8568,0.8568,0.8568,0.8568,0.8568,0.8568,0.8568,0.8568,0.8568,0.8568,0.8568,0.8472,0.8201,0.8201,0.8116,0.7856,0.7591,0.8109,0.9497,1.1235,1.1854,1.1699,1.1613,1.1613,1.1613,1.1354,1.144,1.1613,1.1354,1.1262,1.1262,0.0,0.0,0.0,0.0,0.0,0.0,0.0,0.0,0.0,0.0,0.0,0.0,0.0,0.0,0.0,0.0,0.0,0.0,0.0,0.0,2.1348,2.1434,2.1434,2.1434,2.1434,2.1434,2.1296,2.0903,2.1717,2.2077,2.2051,2.2051,2.1865,2.1678,2.2433,2.2527,2.2327,2.3389,2.3947,2.4034,2.4412,2.4449,2.4218,2.3554,2.3062,2.2713,2.1866,0.0,0.0,0.0,0.0,0.0,0.0,0.0,1.5248,1.343,1.2388,1.1591,1.0023,0.8918,0.0,0.7859,0.0,0.7099,0.7173,0.7253,0.7484,0.7855,0.7553,0.7356,0.7788,0.7851,0.7971,0.8507,0.8568,0.8568,0.8568,0.8568,0.8476,0.8116,0.8388,0.8476,0.8116,0.8388,0.8568,0.8568,0.8568,0.8568,0.8568,0.8568,0.8568,0.8568,0.8568,0.8568,0.8568,0.8568,0.8564,0.8384,0.8384,0.8292,0.8028,0.864,0.9244,1.0024,1.1671,1.2283,1.2032,1.1871,1.1871,1.1871,1.1699,1.1699,1.1699,1.1527,1.144,1.1262,0.0,0.0,0.0,0.0,0.0,0.0,0.0,0.0,0.0,0.0,0.0,0.0,0.0,0.0,0.0,0.0,0.0,0.0,0.0,0.0,0.0,2.1498,2.1498,2.1434,2.1308,2.1308,2.1042,2.0442,2.0313,2.0571,2.1135,2.1071,2.0816,2.0506,2.1776,2.1724,2.0797,2.2268,2.2706,2.2391,2.2666,2.2645,2.2328,2.1772,2.1542,2.1451,2.0615,2.0304,2.0138,1.8921,0.0,0.0,0.0,0.0,1.3959,1.2152,1.1443,1.0906,0.8737,0.7936,0.7706,0.7334,0.7257,0.0,0.7484,0.7561,0.7561,0.7484,0.7484,0.759,0.7784,0.7847,0.7883,0.8154,0.8296,0.8388,0.8388,0.8476,0.8384,0.7757,0.8204,0.8384,0.7757,0.8208,0.8568,0.8568,0.8568,0.8568,0.8568,0.8568,0.8568,0.8568,0.8568,0.8568,0.8568,0.8568,0.8568,0.8568,0.874,0.8732,0.8723,1.0028,1.0467,1.0381,1.1843,1.2448,1.2363,1.2118,1.2037,1.2037,1.2043,1.1957,1.1785,1.1785,1.1613,1.1348,0.0,0.0,0.0,0.0,0.0,0.0,0.0,0.0,0.0,0.0,0.0,0.0,0.0,0.0,0.0,0.0,0.0,0.0,0.0,0.0,0.0,2.0775,2.0775,2.0453,1.9868,1.9868,1.9802,1.9736,1.9274,1.9386,2.0031,1.9922,1.9802,1.9736,1.9922,1.9955,1.9843,2.043,2.0668,2.0683,2.1172,2.1471,2.145,2.0731,2.052,2.0537,1.9766,1.946,1.9246,1.8109,1.7414,0.0,0.0,0.0,1.3161,1.1908,1.0971,1.0251,0.9533,0.0,0.7706,0.0,0.7484,0.7484,0.0,0.0,0.7949,0.0,0.7484,0.7434,0.7211,0.7105,0.7042,0.6741,0.7224,0.7669,0.7669,0.8208,0.8564,0.8476,0.8568,0.8564,0.8476,0.8568,0.8568,0.8568,0.8568,0.8568,0.8568,0.8568,0.8568,0.8568,0.8568,0.8568,0.8568,0.8568,0.8568,0.8568,0.934,1.0033,1.0636,1.1413,1.1241,1.0381,1.1929,1.2534,1.2363,1.2363,1.2369,1.2283,1.2123,1.2118,1.2283,1.2037,1.1871,1.1613,0.0,0.0,0.0,0.0,0.0,0.0,0.0,0.0,0.0,0.0,0.0,0.0,0.0,0.0,0.0,0.0,0.0,0.0,0.0,0.0,0.0,2.0302,2.0302,2.0172,1.9922,1.9857,1.9649,1.9253,1.9065,1.6619,1.2281,1.6211,1.8509,1.9253,1.9584,1.933,1.8751,1.9684,1.9771,1.9402,1.9944,2.0022,1.9845,1.9403,1.9155,1.9089,1.8317,1.8009,1.7828,1.6807,1.5846,1.5042,1.3971,0.0,0.0,0.0,1.1208,1.0513,0.9523,0.8694,0.8093,0.0,0.7868,0.7868,0.8093,0.8322,0.8246,0.7476,0.7322,0.7274,0.7047,0.6695,0.6457,0.6386,0.7048,0.7489,0.7489,0.8116,0.8476,0.8025,0.8384,0.8476,0.8025,0.8384,0.8568,0.8568,0.8568,0.8568,0.8568,0.8568,0.8568,0.8568,0.8568,0.8568,0.8568,0.9087,0.9602,1.012,1.0463,1.0809,1.1154,1.1757,1.1671,1.1154,1.2186,1.2619,1.2534,1.2534,1.2534,1.2534,1.2454,1.2369,1.2363,1.2283,1.2032,1.1871,0.0,0.0,0.0,0.0,0.0,0.0,0.0,0.0,0.0,0.0,0.0,0.0,0.0,0.0,0.0,0.0,0.0,0.0,0.0,0.0,0.0,1.9977,1.9977,1.9911,1.9715,1.9715,1.8369,1.5651,1.5651,1.1262,0.3015,0.8328,1.1482,1.2766,1.7164,1.8576,1.7862,1.8998,1.9127,1.8616,1.8735,1.8579,1.8257,1.7797,1.7555,1.7353,1.6893,1.6666,1.6497,1.5494,1.4539,1.3712,1.325,1.2472,0.0,0.0,0.0,1.0962,0.9755,0.0,0.8708,0.8403,0.8255,0.8327,0.0,0.0,0.8318,0.0,0.7007,0.6709,0.6586,0.609,0.5855,0.6253,0.6845,0.7312,0.7665,0.8204,0.8476,0.8021,0.8296,0.8472,0.8193,0.8556,0.874,0.874,0.8915,0.8828,0.8656,0.8744,0.874,0.874,0.8652,0.8652,0.874,0.9515,1.0463,1.1671,1.1671,1.1757,1.1929,1.2272,1.2357,1.2192,1.2534,1.2705,1.2705,1.2705,1.2705,1.2705,1.2705,1.2619,1.2448,1.2448,1.2283,1.2037,0.0,0.0,0.0,0.0,0.0,0.0,0.0,0.0,0.0,0.0,0.0,0.0,-0.6436,0.2046,0.767,0.9129,1.6061,2.0366,2.0366,2.0355,2.0172,1.9671,1.9605,0.0,1.8617,1.8607,1.4612,0.6513,0.6513,0.2143,-0.6216,-0.5845,-0.5375,-0.4222,1.0464,1.707,1.7217,1.8056,1.8424,1.8444,1.7461,1.7138,1.7144,1.6035,1.5656,1.565,1.5811,1.5726,1.5441,1.4456,1.3975,1.3601,1.2412,1.2016,1.2003,0.0,0.0,0.0,0.0,1.0143,0.0,0.9079,0.8775,0.8703,0.0,0.0,0.7927,0.7314,0.6391,0.559,0.525,0.512,0.5317,0.6126,0.6346,0.6871,0.8021,0.8384,0.874,0.917,0.8823,0.8911,0.9777,0.9519,0.9262,0.9262,0.9694,0.9519,0.8656,0.8999,0.9262,0.9262,0.8828,0.8828,0.9262,0.9689,1.0809,1.2619,1.2619,1.296,1.3568,1.3568,1.3476,1.3307,1.2875,1.2705,1.2705,1.2705,1.2705,1.2705,1.2705,1.2705,1.2705,1.2705,1.2534,1.2363,0.0,0.0,0.0,0.0,0.0,0.0,0.0,0.0,0.0,0.0,0.0,0.0,0.0,-0.4627,-0.2005,-0.0857,0.6832,1.3774,1.8854,1.9198,1.9065,1.8875,1.365,1.3116,1.8365,0.7638,0.3266,0.5783,0.0283,-0.6538,-1.4363,-0.9489,-0.9984,-1.4419,-0.304,0.2159,0.2272,0.256,0.264,0.2898,0.7183,0.8846,0.9239,1.3464,1.5017,0.0,0.0,0.0,1.4082,1.323,1.2905,1.2736,1.2331,1.2157,1.2077,1.1409,1.0807,1.0201,0.0,0.0,0.0,0.8165,0.7855,0.7778,0.7927,0.7851,0.7464,0.6542,0.6079,0.5634,0.4985,0.4745,0.4732,0.5269,0.634,0.7224,0.7665,0.8727,0.9519,0.9694,0.9607,0.9607,0.9951,0.9864,0.9777,0.9777,0.9864,0.9864,0.9519,0.9694,0.9777,0.9777,0.9262,0.9515,1.0549,1.0722,1.1752,1.3568,1.3568,1.3743,1.3913,1.3737,1.3652,1.3561,1.3137,1.2966,1.2966,1.279,1.2705,1.2705,1.2705,1.2705,1.2705,1.2705,1.2619,1.2534,0.0,0.0,0.0,0.0,0.0,0.0,0.0,0.0,0.0,-1.8933,0.0,0.0,0.0,0.0,-0.9854,-0.6483,-0.1028,0.4487,0.9718,1.0043,1.0099,1.0155,0.4683,0.4305,1.0004,-0.1047,-0.5501,-0.2581,-0.8293,-1.5155,-2.2922,-1.787,-1.8396,-2.3269,-1.717,-1.1516,-0.6583,-0.6323,-0.6269,-0.5845,0.1123,0.3856,0.427,0.0,0.0,0.0,0.0,0.0,0.0,1.215,1.1848,1.1848,1.1929,1.0384,0.831,0.7276,0.6581,0.6527,0.8346,0.8618,0.8385,0.0,0.7783,0.7625,0.7621,0.7391,0.693,0.6076,0.5693,0.5312,0.4776,0.4613,0.4765,0.5381,0.6315,0.7136,0.7573,0.8452,0.9069,0.9244,0.9419,0.9598,0.9951,1.012,1.0207,1.0207,1.0386,0.0,1.0038,1.0125,1.0033,0.9777,0.9432,0.9951,1.1322,1.1327,1.2272,1.4088,1.4088,1.4088,1.4088,1.3913,1.3828,1.3822,1.3483,1.3222,1.3058,1.279,1.2705,1.2705,1.2705,1.2705,1.2705,1.2705,1.2705,1.2705,0.0,0.0,0.0,0.0,0.0,0.0,0.0,0.0,-3.4197,-3.4197,0.0,0.0,0.0,0.0,0.0,-0.7628,-0.6952,-0.6873,-0.6613,-0.6613,-0.6546,-0.6447,-0.6653,-0.6653,-0.6401,-0.6916,-1.1066,-1.9097,-1.9354,-2.3606,-3.1579,-3.1579,-3.1372,-3.1021,-3.0885,-2.2507,-0.8442,-0.7639,-0.7303,-0.6689,-0.0296,0.249,0.2607,0.0,0.0,0.0,0.4079,0.6089,0.0,1.1335,0.0,0.0,0.0,0.0,0.0,-0.0671,-0.0979,0.0506,0.0,0.0,0.0,0.0,0.0,0.0,0.7859,0.0,0.6479,0.6005,0.5234,0.4701,0.4701,0.4793,0.5308,0.6575,0.6423,0.6517,0.7658,0.7397,0.7312,0.7746,0.8189,0.8894,0.9772,1.0289,1.0549,1.0636,1.1084,1.0916,1.0038,1.0381,1.0207,0.9345,0.9262,0.9951,1.1322,1.1327,1.2272,1.4088,1.4088,1.4088,1.4088,1.4088,1.4088,1.4088,1.3822,1.3483,1.3058,1.279,1.2705,1.2705,1.2705,1.2705,1.2705,1.2705,1.2705,1.2705,0.0,0.0,0.0,0.0,0.0,0.0,-3.4124,-3.4173,-3.4197,0.0,0.0,0.0,-3.3112,-3.0523,-2.5432,-1.6941,-1.6244,-1.3647,-0.7444,-0.7046,-0.704,-0.6979,-1.2913,-1.3184,-0.671,-1.8782,-2.3096,-1.8903,-2.5113,-2.9282,-3.15,-3.1179,-3.114,-3.1346,-3.0982,-2.8608,-2.4887,-2.4435,-2.4453,-2.4184,-1.7123,-1.1027,0.0,0.0,0.0,0.0,0.0,0.965,1.1409,0.0,0.7302,0.1666,0.0,0.0,-0.8724,-0.8995,-0.9499,-0.8452,-0.1408,0.0,0.0,0.0,0.0,0.0,0.0,0.0,0.5941,0.5547,0.5318,0.5087,0.4937,0.5031,0.5197,0.5552,0.6279,0.684,0.721,0.7753,0.8193,0.8277,0.8452,0.8894,0.9772,1.0033,1.0381,0.0,1.1262,1.1176,1.0916,1.0727,1.0207,0.9345,0.9262,0.9951,1.1322,1.1327,1.2272,1.4088,1.4088,1.4088,1.4088,1.4088,1.3997,1.3828,1.3568,1.3313,1.3052,1.3052,1.2881,1.2705,1.2705,1.2705,1.2705,1.2705,1.2705,1.2705,0.0,0.0,0.0,0.0,0.0,-3.4221,-3.4221,-3.4245,-3.4269,0.0,0.0,0.0,-3.3124,-3.2862,-3.0662,-2.5572,-2.5185,-2.3149,-1.811,-1.765,-1.7531,-1.7531,-2.2214,-2.2357,-1.7082,-2.6951,-2.9587,-2.4302,-2.9492,-3.1966,-3.1858,-3.1603,-3.1528,-3.1634,-3.1317,-3.1295,-3.1517,-3.1411,0.0,0.0,-2.0313,0.0,0.0,-0.2779,0.3893,0.0,0.0,0.0,1.1706,1.0875,0.5434,0.0,0.0,0.0,0.0,0.0,-1.754,-1.6445,-0.933,-0.748,-0.5938,0.0897,0.0,0.0,0.5555,0.6099,0.5944,0.0,0.5321,0.5321,0.5249,0.5148,0.5132,0.5342,0.5927,0.6367,0.6418,0.6923,0.7316,0.7316,0.8017,0.8719,0.9244,1.0033,1.0738,1.1262,1.1262,1.1262,1.1262,1.0733,1.0125,0.9607,0.9174,0.9777,1.1322,1.1327,1.2272,1.4088,1.4088,1.4088,1.4088,1.4088,1.3913,1.3652,1.3568,1.3392,1.3137,1.3137,1.2966,1.2705,1.2705,1.2705,1.2705,1.2705,1.2705,1.2705,0.0,0.0,0.0,-3.4363,-3.4386,-3.4386,-3.4386,-3.4386,-3.4386,0.0,-3.3998,-3.3426,-3.2752,-3.2702,-3.2636,-3.2453,-3.2555,-3.2639,-3.2654,-3.23,-3.2109,-3.2109,-3.1839,-3.1651,-3.1614,-3.1877,-3.2039,-3.2003,-3.2335,-3.2454,-3.2317,-3.2317,-3.2197,-3.1894,0.0,0.0,-3.1614,0.0,0.0,-3.0728,-1.7327,-1.5717,0.0,0.0,0.0492,0.1095,0.1858,0.6559,1.1931,0.8461,0.233,0.0,0.0,0.0,0.0,0.0,-2.5193,-2.3735,-1.6675,-1.4729,-1.3113,-0.616,-0.3836,0.0,0.3937,0.5803,0.6261,0.0,0.5556,0.5479,0.5637,0.5326,0.5129,0.5476,0.5437,0.5396,0.5532,0.5657,0.5733,0.5822,0.7316,0.8456,0.8632,1.0207,1.1176,1.1262,1.1262,1.1176,1.1176,1.0391,0.9864,0.9864,0.9087,0.9602,1.1322,1.1408,1.2357,1.4088,1.4088,1.4088,1.4088,1.4088,1.3913,1.3737,1.3737,1.3483,1.3137,1.3137,1.2966,1.2705,1.2705,1.2705,1.2705,1.2705,1.2705,1.2705,0.0,0.0,-3.4293,-3.4245,-3.4316,-3.4386,-3.4386,-3.4386,-3.4386,-3.4386,-3.3998,-3.3569,-3.3202,-3.2975,-3.2834,-3.2802,-3.2852,-3.2898,-3.2993,-3.2834,-3.2752,-3.288,-3.2737,-3.2539,-3.2404,-3.2283,-3.2162,-3.2003,-3.1984,-3.1929,-3.1929,-3.1929,-3.193,-3.1967,-3.1839,0.0,0.0,0.0,0.0,-3.2294,-2.9488,-2.5583,-2.0485,-1.1444,-0.4805,0.0498,0.6316,0.8857,0.7617,-0.4841,-1.3288,-2.0036,0.0,0.0,0.0,-3.2334,0.0,0.0,0.0,0.0,0.0,0.0,0.0,0.0,-0.1706,0.295,0.6876,0.0,0.6257,0.6025,0.5864,0.5634,0.5491,0.5596,0.5548,0.5468,0.5521,0.5657,0.5997,0.67,0.7139,0.7929,0.9506,0.9946,1.0472,1.1262,1.0992,1.0641,1.0299,0.9694,0.9262,0.8915,0.9345,1.0202,1.1322,1.2015,1.2966,1.4088,1.4088,1.4088,1.4088,1.4088,1.3913,1.3737,1.3737,1.3483,1.3137,1.3137,1.2966,1.2705,1.2705,1.2705,1.2705,1.2705,1.2619,1.2448,0.0,-3.4099,-3.4173,-3.4124,-3.4221,-3.4293,-3.4245,-3.4269,-3.4293,-3.4293,-3.4099,-3.3743,-3.3262,-3.335,-3.335,-3.3129,-3.3208,-3.3238,-3.319,-3.3068,-3.3037,-3.3099,-3.2908,-3.2699,-3.2553,-3.2553,-3.2519,-3.2401,-3.2386,-3.2335,-3.2335,-3.2335,-3.2352,-3.2351,-3.2249,-3.2197,0.0,0.0,-3.2453,-3.2174,-2.8609,0.0,-2.6338,-1.4915,-1.1017,-1.0673,-0.3163,-0.1054,-0.2887,-1.0343,-1.757,0.0,-2.8006,-3.1704,-3.4517,0.0,-3.445,-3.3711,0.0,0.0,0.0,-2.069,0.0,0.0,0.0,-0.3155,0.1897,0.1547,0.4091,0.6409,0.6402,0.6018,0.5789,0.5948,0.5671,0.558,0.5687,0.5651,0.5841,0.634,0.7228,0.8193,0.9069,1.0033,1.0824,1.1262,1.0901,1.0549,1.0294,0.9689,0.9174,0.8915,0.917,0.9689,1.0549,1.1494,1.2443,1.3398,1.3913,1.4088,1.4088,1.4088,1.3913,1.3652,1.3568,1.3398,1.3052,1.2966,1.279,1.2705,1.2705,1.2619,1.2534,1.2534,1.2369,1.2203,-3.3972,-3.4023,-3.4074,-3.3998,-3.4074,-3.4148,-3.4099,-3.4148,-3.4197,-3.4197,-3.4124,-3.385,-3.3262,-3.355,-3.3634,-3.3262,-3.3368,-3.3415,-3.3321,-3.3111,-3.3019,-3.3081,-3.2809,-3.2598,-3.2535,-3.2651,-3.2749,-3.2876,-3.288,-3.2866,-3.2866,-3.2866,-3.2816,-3.2752,-3.2669,-3.2553,0.0,0.0,0.0,-3.2033,0.0,-2.7692,-3.2162,-1.8303,-1.7214,-2.2045,-1.4395,-1.2922,-1.4556,-1.4459,-1.9563,-2.6034,-2.6034,-2.9968,0.0,0.0,0.0,0.0,0.0,0.0,0.0,0.0,0.0,-2.2989,0.0,0.0,0.0,-0.5664,0.0,0.0,0.0,0.0,0.0,0.6069,0.0,0.0,0.0,0.5692,0.0,0.598,0.7489,0.8544,0.8719,1.0207,1.1176,1.1176,1.0646,1.0381,1.0381,0.9607,0.9174,0.9174,0.8999,0.9257,1.012,1.1068,1.2015,1.296,1.3737,1.4088,1.4088,1.4082,1.3913,1.3652,1.3483,1.3313,1.3052,1.2881,1.279,1.2705,1.2705,1.2619,1.2448,1.2448,1.2283,1.2043,-3.3868,-3.3921,-3.3998,-3.3921,-3.3972,-3.4049,-3.4099,-3.4099,-3.4124,-3.4197,-3.3895,-3.3643,-3.3559,-3.3238,-3.2993,-3.293,-3.2979,-3.3086,-3.3291,-3.2894,-3.2784,-3.3081,-3.2672,-3.2489,-3.2588,-3.2489,-3.2657,-3.3081,-3.2876,-3.2813,-3.2813,-3.2813,-3.283,-3.2884,-3.2876,0.0,0.0,0.0,-3.339,0.0,-3.269,-3.2865,0.0,-2.4272,-2.2238,-2.2948,-1.588,-1.7364,-2.2754,0.0,-2.7456,-3.3319,0.0,-3.3896,-3.4539,-3.463,0.0,0.0,0.0,0.0,0.0,0.0,-2.918,0.0,0.0,0.0,-1.2888,-1.2898,0.0,0.0,0.0,0.0,0.0,0.0,0.0,0.0,0.5833,0.5559,0.5896,0.7105,0.8017,0.8807,0.968,1.0294,1.0636,1.0636,0.9951,0.9432,0.9432,0.9003,0.8656,0.8656,0.9345,1.0207,1.1154,1.21,1.3045,1.3913,1.4082,1.4088,1.4088,1.3822,1.3737,1.3652,1.3483,1.3313,1.3137,1.3052,1.2881,1.2705,1.2705,1.2705,1.2705,1.2705,1.2369,1.2043,-3.386,-3.3998,-3.4099,-3.3868,-3.3921,-3.3998,-3.3998,-3.4049,-3.4074,-3.3972,-3.3947,-3.3895,-3.3726,0.0,0.0,0.0,0.0,-3.3437,0.0,0.0,-3.335,-3.3494,-3.3476,-3.3429,-3.3419,-3.3291,-3.328,-3.3455,-3.297,-3.2813,-3.2957,-3.2813,-3.283,-3.3024,-3.3262,0.0,-3.3178,0.0,-3.3725,0.0,0.0,0.0,0.0,-3.0622,-2.9707,-2.9769,-2.683,-2.7656,-3.0142,0.0,-3.2201,0.0,0.0,0.0,0.0,-3.4793,0.0,0.0,0.0,0.0,0.0,0.0,0.0,0.0,-3.0835,0.0,-2.0208,0.0,0.0,0.0,0.0,0.0,0.0,0.0,0.6247,0.0,0.0,0.0,0.56,0.6294,0.0,0.0,1.0559,1.0641,1.0636,1.0636,0.9777,0.9262,0.9262,0.8828,0.8568,0.8568,0.8911,0.9345,0.9689,1.0636,1.1499,1.2277,1.2875,1.3313,1.3659,1.3568,1.3568,1.3476,1.3307,1.3137,1.3058,1.2796,1.2619,1.2534,1.2369,1.2289,1.2289,1.2289,1.2037,1.1613,-3.3807,0.0,0.0,-3.3842,-3.3868,-3.3921,-3.3895,-3.4023,-3.4049,-3.3895,-3.4049,-3.4074,-3.3868,-3.3998,0.0,0.0,-3.3698,-3.3652,0.0,0.0,-3.3652,-3.3652,-3.3752,-3.3733,-3.3616,-3.3447,-3.3437,-3.3541,-3.305,-3.2975,-3.3238,-3.3037,-3.3037,-3.3196,0.0,-3.3541,-3.325,0.0,-3.4012,-3.3873,-3.42,-3.4529,-3.4733,-3.4524,-3.4498,-3.4583,-3.4626,-3.4647,-3.4607,-3.4711,-3.4793,0.0,-3.4753,0.0,-3.5064,0.0,0.0,0.0,-3.5149,0.0,0.0,0.0,0.0,0.0,0.0,0.0,0.0,0.0,0.0,0.0,0.0,0.0,0.0,0.0,0.0,0.5977,0.0,0.5682,0.0,0.0,0.0,0.0,0.0,1.0381,1.0202,0.9941,0.9428,0.9087,0.9087,0.874,0.8568,0.8568,0.8564,0.8648,0.8907,0.9423,1.0111,1.089,1.158,1.2272,1.3045,1.2966,1.3052,1.3222,1.2966,1.2887,1.2802,1.2277,1.21,1.2106,1.1768,1.1602,1.1602,1.1866,1.1607,1.0997,-3.3753,-3.378,0.0,0.0,0.0,-3.3834,-3.3895,0.0,0.0,0.0,0.0,0.0,0.0,0.0,0.0,0.0,0.0,-3.3481,-3.3577,0.0,-3.3321,-3.3321,-3.3014,-3.2781,0.0,-3.237,-3.2555,-3.322,-3.3111,-3.325,-3.3577,-3.3577,-3.3491,-3.3393,-3.3671,-3.3807,-3.3788,-3.4221,-3.434,-3.4293,-3.4439,-3.4653,-3.487,0.0,-3.4567,-3.4539,-3.4713,0.0,0.0,-3.503,-3.5045,0.0,0.0,0.0,0.0,0.0,0.0,0.0,0.0,0.0,0.0,-3.5601,0.0,0.0,0.0,0.0,-3.5336,0.0,0.0,0.0,0.0,0.0,0.0,0.4648,0.6475,0.0,0.0,0.0,0.0,0.0,0.0,0.0,0.0,0.9165,0.9082,0.8372,0.8472,0.8656,0.8656,0.8568,0.8568,0.8568,0.838,0.8632,0.9584,0.9323,0.9662,1.0611,1.0611,1.1133,1.2015,1.1843,1.2106,1.2705,1.2534,1.2289,1.2037,1.1505,1.1327,1.1322,1.0809,1.0549,1.0467,1.1607,1.1257,1.0381,0.0,0.0,0.0,0.0,0.0,0.0,0.0,-3.3998,0.0,0.0,-3.4221,0.0,0.0,-3.4099,-3.3947,0.0,0.0,-3.3549,-3.3481,-3.3491,0.0,-3.3502,-3.3397,-3.3309,0.0,0.0,0.0,-3.3473,-3.3408,-3.3494,0.0,0.0,0.0,0.0,0.0,-3.3921,0.0,0.0,0.0,0.0,0.0,-3.5394,-3.5816,0.0,-3.487,-3.4908,-3.4961,-3.4996,0.0,-3.5081,-3.5178,-3.5239,-3.5127,-3.5273,-3.5451,-3.5411,-3.5502,0.0,0.0,0.0,-3.5507,-3.5626,0.0,0.0,0.0,0.0,0.0,0.0,0.0,0.0,0.0,0.0,-0.9572,0.457,0.6633,0.6251,0.0,0.0,0.0,0.0,0.0,0.0,0.0,0.0,0.8995,0.8288,0.8472,0.8564,0.838,0.8292,0.8292,0.812,0.8032,0.8113,0.846,0.8372,0.8719,0.9492,0.9492,0.984,1.0448,1.0361,1.0269,1.0173,1.0616,1.0626,1.0371,1.0019,1.0197,1.0549,0.9763,0.9506,0.9777,1.0559,1.0559,1.0125,-3.3895,0.0,0.0,0.0,0.0,0.0,0.0,0.0,0.0,0.0,-3.4293,0.0,-3.4404,0.0,-3.4049,0.0,-3.3726,-3.3549,-3.3452,-3.3549,0.0,-3.3577,-3.3502,0.0,0.0,0.0,0.0,0.0,0.0,-3.3588,0.0,0.0,0.0,0.0,0.0,-3.3998,-3.386,-3.4344,-3.4609,0.0,0.0,-3.5576,0.0,0.0,-3.5327,-3.5488,0.0,-3.5197,-3.5209,-3.5288,-3.5391,-3.5477,-3.535,-3.5496,-3.5673,-3.5534,-3.5601,-3.5706,-3.5707,-3.5607,0.0,-3.5669,-3.5588,0.0,-3.5667,0.0,-3.5707,0.0,0.0,0.0,0.0,0.0,0.0,0.4499,0.656,0.6116,0.0,0.5289,0.0,0.0,0.0,0.0,0.0,0.8368,0.8197,0.7933,0.8028,0.8116,0.8201,0.8113,0.8028,0.7944,0.7768,0.7768,0.7768,0.7591,0.776,0.8193,0.8013,0.8273,0.8877,0.8877,0.8786,0.869,0.9126,0.9131,0.896,0.8615,0.8707,0.9056,0.8089,0.783,0.8189,0.968,0.9951,0.9602,0.0,0.0,0.0,0.0,-3.3842,0.0,0.0,0.0,-3.4197,0.0,-3.4316,-3.4427,-3.4427,-3.4124,-3.3895,-3.3895,-3.3605,-3.3422,-3.3509,-3.3549,0.0,0.0,-3.3368,-3.3232,-3.3117,0.0,0.0,0.0,0.0,0.0,0.0,0.0,0.0,0.0,-3.3947,0.0,-3.4245,-3.4567,-3.4773,-3.4926,-3.5187,-3.5335,-3.5388,-3.5463,-3.5829,-3.6249,-3.5557,-3.5355,-3.5451,-3.5651,-3.5704,-3.5704,-3.5704,-3.5704,-3.5704,-3.5715,-3.5706,-3.5707,-3.5688,-3.5708,-3.5708,-3.5708,0.0,0.0,0.0,0.0,-3.5718,0.0,0.0,0.0,0.0,0.0,0.0,0.4365,0.6173,0.5674,0.5242,0.0,0.5276,0.0,0.0,0.0,0.634,0.6432,0.6694,0.7401,0.7228,0.7404,0.0,0.794,0.7852,0.7852,0.7591,0.7507,0.7507,0.6972,0.6792,0.6792,0.652,0.6779,0.7383,0.7383,0.7643,0.7986,0.8074,0.7899,0.7639,0.7207,0.7034,0.6946,0.5971,0.5617,0.606,0.8798,0.934,0.8644,-3.3842,-3.386,-3.3807,0.0,-3.3815,-3.3842,0.0,0.0,0.0,0.0,-3.4495,-3.4517,-3.4687,-3.4269,-3.3972,-3.3972,-3.3615,0.0,0.0,0.0,0.0,-3.3422,-3.3238,-3.3147,-3.3086,-3.3386,-3.3502,-3.3509,0.0,0.0,-3.3972,0.0,0.0,0.0,0.0,0.0,-3.4431,-3.4583,-3.4792,-3.507,-3.5235,-3.5714,-3.6281,0.0,-3.5993,-3.6575,-3.5791,-3.5565,-3.5631,-3.5673,-3.5704,-3.5695,-3.5687,-3.5706,-3.5695,-3.5698,-3.5707,-3.5706,-3.5766,-3.5737,-3.5708,-3.5766,-3.5775,-3.5766,0.0,0.0,0.0,0.0,0.0,0.0,0.0,0.0,0.0,0.0,0.5867,0.0,0.0,0.0,0.0,0.4885,0.0,0.0,0.6051,0.6605,0.6786,0.6523,0.7231,0.7676,0.768,0.0,0.0,0.7319,0.7058,0.6972,0.6972,0.67,0.6435,0.626,0.6169,0.608,0.5897,0.5897,0.5808,0.5628,0.6157,0.6245,0.5985,0.5445,0.5531,0.5971,0.4823,0.5095,0.6077,0.6239,0.6148,0.6062,-3.3972,0.0,0.0,-3.3842,0.0,0.0,-3.4023,-3.4148,0.0,-3.4517,-3.4539,0.0,-3.4687,-3.4293,-3.3998,-3.3998,-3.3643,0.0,-3.3577,0.0,0.0,-3.3577,-3.3345,-3.3226,-3.3226,-3.3502,0.0,-3.3633,0.0,0.0,-3.4049,0.0,0.0,0.0,0.0,-3.4173,-3.4427,-3.4647,-3.4908,-3.519,-3.527,-3.5618,0.0,-3.5661,-3.5817,-3.6222,-3.5763,-3.5612,-3.5673,-3.5684,-3.5704,-3.5704,-3.5706,-3.5695,-3.5695,-3.5707,-3.5707,-3.5707,-3.5757,-3.5756,-3.5745,-3.5793,-3.5793,-3.5793,-3.5745,-3.5736,-3.499,0.0,0.0,0.0,0.0,0.0,0.0,0.0,0.0,0.0,0.0,0.0,0.0,0.0,0.4006,0.0,0.4837,0.5731,0.6104,0.5625,0.6609,0.7143,0.6877,0.0,0.6966,0.6966,0.6251,0.6074,0.6526,0.5716,0.545,0.5816,0.5636,0.5458,0.5104,0.5104,0.4748,0.4212,0.4654,0.4565,0.4297,0.3937,0.4202,0.4559,0.3762,0.3582,0.3755,0.3306,0.3931,0.5092,0.0,0.0,0.0,0.0,0.0,0.0,0.0,-3.4269,0.0,-3.4517,0.0,-3.4623,-3.4623,-3.4293,-3.4049,-3.4023,0.0,-3.3643,-3.3815,-3.3633,-3.3605,-3.3834,-3.3549,-3.3393,-3.3393,-3.3549,-3.3671,0.0,0.0,0.0,0.0,0.0,0.0,0.0,0.0,0.0,0.0,-3.4792,-3.5091,-3.5293,-3.53,-3.5364,-3.5427,-3.5476,-3.5547,-3.5591,-3.5589,-3.5601,-3.5612,-3.5673,-3.5704,-3.5704,-3.5695,-3.5695,-3.5695,-3.5695,-3.5707,-3.5699,-3.5708,-3.5756,-3.5791,-3.5791,-3.5799,-3.5799,-3.5799,-3.5166,-3.3037,-2.7627,-2.5205,-2.0509,0.0,0.0,0.0,0.0,0.0,0.0,0.0,0.0,0.0,0.0,0.0,0.0,0.0,0.4344,0.5085,0.5174,0.5805,0.6154,0.6048,0.0,0.6425,0.6498,0.5257,0.491,0.5544,0.0,0.42,0.4924,0.4832,0.4656,0.448,0.448,0.4123,0.3497,0.3587,0.3317,0.2957,0.2957,0.2957,0.2959,0.2782,0.1884,0.0628,0.0448,0.2058,0.4291,0.0,0.0,0.0,0.0,0.0,-3.4197,-3.4245,-3.434,-3.4473,-3.4645,-3.4623,-3.4645,-3.4747,-3.4539,-3.4316,-3.4099,-3.3972,0.0,0.0,0.0,0.0,-3.3947,-3.3661,-3.3481,-3.3481,-3.3587,-3.3753,0.0,0.0,0.0,0.0,0.0,0.0,0.0,0.0,0.0,-3.4733,-3.5072,0.0,-3.53,-3.5364,-3.5412,-3.5474,-3.5509,-3.5515,-3.5528,-3.5589,-3.5643,-3.5684,-3.5704,-3.5704,-3.5695,-3.5697,-3.5697,-3.5707,-3.5708,-3.5708,-3.5708,-3.5766,-3.5747,-3.5727,-3.5782,-3.5799,-3.5799,-3.5799,-3.1832,-2.7825,-2.6724,-1.8371,-1.0156,-0.6639,0.0,0.0,0.0,0.0,0.0,0.0,0.0,0.0,0.0,0.0,0.2586,0.0,0.0,0.491,0.6103,0.5191,0.5056,0.0,0.0,0.0,0.0,0.4515,0.0,0.0,0.0,0.295,0.2685,0.3224,0.3405,0.3226,0.3226,0.3136,0.3047,0.3227,0.3317,0.3227,0.2962,0.2242,0.1165,0.1525,0.1076,-0.0,-0.0718,-0.0448,0.0358,0.0,0.0,0.0,0.0,0.0,0.0,0.0,-3.4386,-3.4495,-3.4727,-3.4708,-3.4728,-3.4849,-3.4647,-3.4427,-3.4221,-3.4227,-3.4184,-3.4173,-3.4062,-3.4037,-3.4099,-3.3823,-3.3597,-3.3452,-3.3491,-3.3605,-3.3753,0.0,0.0,0.0,0.0,0.0,0.0,0.0,-3.4628,0.0,0.0,0.0,-3.5315,-3.5364,-3.5446,-3.5507,-3.5534,-3.556,-3.556,-3.562,-3.5673,-3.5704,-3.5704,-3.5704,-3.5695,-3.5697,-3.5707,-3.5698,-3.5699,-3.5728,-3.5757,-3.5794,-3.5784,-3.5765,-3.5791,-3.5799,-3.4943,-3.1705,-2.8658,-2.4665,-1.8248,-1.2167,-0.663,-0.2059,0.193,0.0,0.0,0.0,0.0,0.0,0.0,0.3469,0.0,0.0,0.0,0.0,0.0,0.0,0.0,0.0,0.0,0.0,0.0,0.0,0.0,0.0,0.0,0.0,0.0,0.0,0.1905,0.1818,0.1904,0.2339,0.1818,0.1384,0.1211,0.1037,0.087,0.0528,0.0445,-0.0,-0.0714,-0.1072,-0.1429,-0.1967,-0.2684,-0.2773,-0.2326,0.0,-3.416,0.0,0.0,-3.4316,0.0,-3.4517,-3.4539,-3.4604,-3.4768,-3.4768,-3.479,-3.4889,-3.4751,-3.4564,-3.4409,-3.4416,-3.4398,-3.4344,-3.4348,-3.4348,-3.4274,-3.3993,-3.3752,-3.352,-3.3452,-3.3481,0.0,0.0,0.0,0.0,0.0,0.0,0.0,0.0,0.0,0.0,0.0,-3.5203,-3.533,-3.5379,-3.5441,-3.5501,-3.5566,-3.5604,-3.5616,-3.5693,-3.5704,-3.5704,-3.5695,-3.5695,-3.5695,-3.5697,-3.5718,-3.5728,-3.5699,-3.5747,-3.5803,-3.5803,-3.5793,-3.5484,-3.4149,-3.3812,-3.2195,-2.5959,-2.3514,-1.9923,-1.0565,-0.7114,-0.3994,0.1913,0.3448,0.0,0.0,0.0,0.0,0.0,0.0,0.0,0.0,0.0,0.0,0.105,0.0,0.0,0.0,0.0,0.0,0.0334,0.0,0.0,0.0,0.0,0.0084,0.0419,0.0,-0.067,0.0754,0.0168,0.0251,0.1006,0.0251,-0.0335,-0.0754,-0.1339,-0.203,-0.2845,-0.2891,-0.2908,-0.2993,-0.3879,-0.4142,-0.3965,-0.432,-0.4421,-0.4082,0.0,0.0,0.0,0.0,0.0,0.0,-3.4666,-3.4888,-3.4983,-3.4809,-3.4687,-3.4689,-3.4889,-3.4983,-3.4927,-3.4674,-3.4551,-3.4486,-3.4486,-3.4321,-3.4279,-3.4464,-3.416,-3.3972,-3.3947,-3.3577,-3.3509,0.0,0.0,-3.3815,0.0,0.0,0.0,0.0,0.0,0.0,0.0,-3.5219,-3.5315,-3.5398,-3.546,-3.5482,-3.5502,-3.556,-3.5596,-3.5601,-3.5673,-3.5704,-3.5695,-3.5697,-3.5707,-3.5707,-3.5707,-3.5737,-3.5775,-3.5708,-3.5747,-3.5803,-3.5803,-3.5803,-3.443,-2.8772,-2.7363,-2.5745,-1.9555,-1.3771,-0.9914,-1.0632,-0.4245,0.1692,0.2425,0.3368,0.3837,0.0,0.0,0.0,0.0,0.0,0.1568,0.0392,0.0,0.0,-0.0079,-0.1531,0.0,0.0,-0.1485,0.0,0.0,0.0,0.0,-0.065,0.0,-0.1591,-0.3352,-0.2683,-0.2433,-0.2433,-0.1844,-0.1593,-0.1425,-0.1593,-0.1593,-0.176,-0.2684,-0.4038,-0.5658,-0.6098,-0.6276,-0.6276,-0.636,-0.584,-0.4974,-0.4977,-0.4862,-0.4592,0.0,0.0,0.0,0.0,0.0,0.0,0.0,-3.4668,-3.4751,-3.4965,-3.4791,-3.4772,-3.5054,-3.4945,-3.4851,-3.4831,-3.4773,-3.4674,-3.4508,-3.442,-3.4348,-3.4255,-3.4255,-3.416,-3.3998,-3.3842,-3.3762,0.0,0.0,0.0,0.0,0.0,0.0,0.0,0.0,-3.5108,-3.5174,-3.527,-3.5315,-3.535,-3.546,-3.5515,-3.5515,-3.556,-3.5596,-3.5612,-3.5676,-3.5687,-3.5697,-3.5698,-3.5698,-3.5718,-3.5747,-3.5785,-3.5784,-3.5765,-3.5773,-3.4991,-3.1233,-3.0208,-2.8728,-2.2521,-2.2844,-2.2744,-1.5305,-1.3575,-1.1711,-0.5011,-0.1277,0.0939,0.1646,0.1799,0.1641,0.0,0.0,0.0,0.0,0.0,0.0,-0.2112,0.0,-0.1952,-0.2731,-0.3944,0.0,0.0,0.0,0.0,0.0,0.0,0.0,-0.2462,0.0,-0.3217,-0.4023,-0.4023,-0.37,-0.3217,-0.3538,-0.3376,-0.2814,-0.3456,-0.3859,-0.4105,-0.4572,-0.5341,-0.6339,-0.6599,-0.6805,-0.7054,-0.7054,-0.6795,-0.6446,-0.6526,-0.6476,-0.627,-3.4165,0.0,-3.3972,0.0,-3.4074,-3.4221,-3.4495,-3.4542,-3.467,-3.5001,-3.487,-3.487,-3.5157,-3.4945,-3.4812,-3.4963,-3.4926,-3.4773,-3.4529,-3.4508,-3.4375,-3.4148,-3.4255,0.0,-3.4023,-3.3998,-3.3902,-3.3733,-3.3823,0.0,0.0,0.0,0.0,0.0,-3.4983,-3.5108,-3.5223,-3.5285,-3.5315,-3.5364,-3.5455,-3.5509,-3.5528,-3.5584,-3.5601,-3.5635,-3.5688,-3.5698,-3.5708,-3.5728,-3.5728,-3.5737,-3.5794,-3.5803,-3.5793,-3.5791,-3.5799,-3.4826,-3.0433,-2.7908,-2.5305,-2.0344,-1.9489,-1.7733,-0.9509,-1.006,-0.9816,-0.0999,0.0235,-0.0157,0.0235,0.0235,-0.0,-0.0469,0.0,0.0,0.0,-0.3363,0.0,-0.3988,-0.4771,-0.5079,-0.452,-0.5392,0.0,0.0,0.0,0.0,0.0,0.0,0.0,0.0,0.0,0.0,0.0,-0.5004,-0.4768,-0.4064,-0.4846,-0.4768,-0.4064,-0.4846,-0.5398,-0.5799,-0.589,-0.6248,-0.6734,-0.6848,-0.7057,-0.7381,-0.7381,-0.7377,-0.7458,-0.7615,-0.7651,-0.7613,-3.4221,-3.4245,-3.4245,-3.4124,-3.4269,-3.4404,-3.4386,-3.4691,-3.4908,-3.4908,-3.4908,-3.4963,-3.5193,-3.5019,-3.4982,-3.5193,-3.5019,-3.4773,-3.4529,-3.4508,-3.4398,0.0,0.0,-3.4099,-3.4099,-3.4023,-3.3868,-3.3605,0.0,0.0,-3.3895,0.0,-3.4413,-3.4423,-3.4753,-3.5053,-3.53,-3.53,-3.5379,-3.5507,-3.5489,-3.5547,-3.5604,-3.5604,-3.5648,-3.5688,-3.5699,-3.5708,-3.5708,-3.5775,-3.5803,-3.5803,-3.5803,-3.5793,-3.5791,-3.5799,-3.5799,-3.5771,-3.5704,-3.1193,-2.6004,-2.3937,-1.7271,-0.9215,-0.1362,-0.0078,-0.0549,-0.0393,-0.0157,-0.0392,-0.1803,-0.1095,-0.0624,-0.1715,0.0,0.0,0.0,-0.4538,0.0,-0.5018,-0.6443,-0.6758,-0.4846,-0.5093,0.0,0.0,0.0,0.0,0.0,0.0,0.0,-0.4927,-0.5004,0.0,-0.586,-0.5712,-0.5559,-0.5559,-0.5559,-0.5559,-0.5559,-0.5559,-0.587,-0.6261,-0.6261,-0.6648,-0.7184,-0.7188,-0.7338,-0.7488,-0.7488,-0.7638,-0.7787,-0.7787,-0.8065,-0.8387,-3.4221,-3.4221,-3.4197,-3.4124,-3.4148,-3.4221,-3.4245,-3.4344,-3.448,-3.4612,-3.4632,-3.4714,-3.4963,-3.4773,-3.4634,0.0,-3.4655,-3.4593,0.0,-3.4371,-3.4274,-3.4197,-3.4173,-3.4173,-3.4173,-3.4148,-3.4154,-3.4141,0.0,0.0,0.0,-3.4221,-3.4367,-3.4551,-3.4774,-3.4962,-3.5102,-3.5335,-3.546,-3.5507,-3.5554,-3.5584,-3.5589,-3.5596,-3.5648,-3.5718,-3.5757,-3.5766,-3.5775,-3.5793,-3.5801,-3.5805,-3.5796,-3.5806,-3.5786,-3.5796,-3.5795,-3.5792,-3.5797,-3.4352,-2.8599,-1.0968,-0.5023,-0.2964,-0.0699,-0.0864,-0.165,-0.2514,-0.2353,-0.2273,-0.3372,-0.3521,-0.3593,-0.3988,-0.4144,0.0,-0.4846,0.0,-0.5479,-0.6022,-0.7034,-0.7646,-0.7617,-0.8232,0.0,0.0,0.0,0.0,0.0,0.0,0.0,0.0,-0.7157,0.0,-0.7169,-0.656,-0.6254,-0.6254,-0.6254,-0.6328,-0.6483,-0.6641,-0.6795,-0.6953,-0.7026,-0.733,-0.7633,-0.7633,-0.7714,-0.7949,-0.7949,-0.7949,-0.8021,-0.8174,-0.8214,-0.8194,-3.4316,-3.434,-3.4316,-3.4232,-3.4179,-3.4148,-3.4197,-3.4197,-3.4269,-3.4371,-3.4442,-3.4551,-3.4733,-3.4593,0.0,-3.4653,-3.4551,-3.4464,-3.4375,-3.4325,-3.4227,-3.4074,-3.4148,-3.4148,-3.4049,-3.4148,0.0,-3.4165,-3.3928,-3.3947,-3.4197,-3.4099,-3.4203,-3.4461,-3.4695,-3.487,-3.5013,-3.535,-3.552,-3.5528,-3.5572,-3.5608,-3.5612,-3.5626,-3.5658,-3.5718,-3.5785,-3.5801,-3.5799,-3.5791,-3.5796,-3.5796,-3.5781,-3.2712,-2.9941,-3.4492,-3.2595,-2.9089,-2.9092,-2.8054,-2.3654,-0.9659,-0.3018,-0.0236,-0.1256,-0.1885,-0.2592,-0.3612,-0.3608,-0.3684,-0.4389,-0.4929,-0.5315,-0.5631,-0.547,-0.5625,-0.6412,0.0,-0.6089,0.0,0.0,0.0,0.0,-0.9755,-1.0062,0.0,0.0,0.0,0.0,0.0,0.0,-0.9049,-0.8304,0.0,-0.8008,-0.7249,-0.6872,-0.6945,-0.6945,-0.7022,-0.7096,-0.7253,-0.7334,-0.7407,-0.7557,-0.7787,-0.8012,-0.8012,-0.8169,-0.8327,-0.8327,-0.8327,-0.8327,-0.8479,-0.8556,-0.856,-3.4517,-3.4561,-3.4583,0.0,-3.4302,0.0,-3.4197,-3.4173,-3.4173,-3.4173,-3.4348,-3.4486,-3.4486,-3.4486,-3.4591,-3.4851,0.0,0.0,0.0,-3.4371,-3.4284,-3.3842,-3.4074,-3.4074,-3.3807,-3.4074,-3.4074,-3.3807,-3.3815,-3.3972,-3.4173,-3.3947,-3.3947,-3.4197,-3.4461,-3.4716,-3.4975,-3.5315,-3.5515,-3.556,-3.5589,-3.5601,-3.5612,-3.5687,-3.5707,-3.5718,-3.5785,-3.5809,-3.5783,-3.5802,-3.5824,-3.5628,-3.4797,-2.6895,-2.0083,-3.1319,-2.6683,-1.7766,-1.6938,-1.4175,-1.2523,-1.6436,-0.879,-0.0785,-0.2511,-0.2904,-0.3137,-0.3763,-0.4151,-0.4538,-0.5004,-0.5467,-0.6009,-0.6784,-0.6391,-0.6391,-0.7646,-0.733,-0.7322,0.0,0.0,0.0,0.0,-0.9895,-1.0201,0.0,0.0,0.0,0.0,0.0,-0.92,-0.9798,-0.8832,-0.8456,-0.8604,-0.7859,-0.7484,-0.7633,-0.7561,-0.7561,-0.7561,-0.7561,-0.771,-0.7936,-0.7936,-0.8165,-0.8556,-0.8551,-0.8627,-0.878,-0.8851,-0.8851,-0.8851,-0.8927,-0.916,-0.9473,0.0,0.0,-3.4708,-3.4583,-3.4431,-3.4269,-3.4074,-3.3947,-3.3895,-3.3895,-3.4105,-3.4274,-3.4274,-3.4274,-3.4348,-3.4591,-3.4529,-3.4398,-3.4221,-3.4227,-3.4227,-3.4124,-3.4173,-3.4074,-3.3807,-3.4074,-3.4074,-3.3807,-3.416,-3.4165,-3.3895,-3.4049,-3.4049,-3.3972,-3.4213,-3.436,-3.4494,-3.4923,-3.5197,-3.5307,-3.5515,-3.5639,-3.5684,-3.5697,-3.5707,-3.5718,-3.5785,-3.5792,-3.5791,-3.581,-3.5792,-3.4186,-2.504,-2.017,-1.8539,-2.1658,-2.0588,-1.6333,-0.717,-0.4065,-0.3957,-0.6152,-0.4985,-0.3214,-0.3292,-0.3292,-0.3524,-0.4538,-0.4691,-0.4924,-0.6015,-0.656,-0.6945,-0.733,-0.6938,-0.7011,-0.7936,-0.7613,-0.7757,0.0,-0.9895,-1.0571,-1.1174,-1.1774,-1.207,0.0,0.0,0.0,0.0,-1.1996,-1.1768,-1.1916,-1.123,-1.0852,-1.0926,-1.0093,-0.9357,-0.8623,-0.8174,-0.7949,-0.7949,-0.8097,-0.8546,-0.9145,-0.9008,-0.9311,-0.9986,-1.0137,-0.9986,-0.969,-1.0645,-1.072,-1.0357,-1.0789,-1.1087,-1.1162,-3.4768,-3.4788,-3.4788,-3.4751,-3.4604,-3.4409,-3.4221,-3.4023,-3.3868,-3.3807,-3.3921,-3.4074,-3.4197,-3.4274,-3.4394,-3.4486,-3.4416,-3.4321,-3.4221,-3.4298,-3.4232,-3.4023,-3.4208,-3.4227,-3.3998,-3.4227,-3.4255,-3.4136,-3.4141,-3.4111,-3.3998,-3.4124,-3.4074,-3.3868,-3.4237,-3.4379,-3.4379,-3.4756,-3.5028,-3.5262,-3.5411,-3.5553,-3.5654,-3.5697,-3.5707,-3.5718,-3.5785,-3.5804,-3.5794,-3.5818,-3.579,-3.4641,-2.8121,-2.2293,-1.7042,-1.2491,-1.0949,-0.9471,-0.4083,-0.2199,-0.1962,-0.2901,-0.3372,-0.3761,-0.3912,-0.4068,-0.4457,-0.5547,-0.5854,-0.6237,-0.7092,-0.7633,-0.8021,-0.8241,-0.8241,-0.8318,-0.8699,-0.8832,0.0,-1.0201,-1.0795,-1.1471,-1.215,-1.2673,-1.29,-1.2826,-1.3046,0.0,-1.3193,-1.3046,-1.2973,-1.29,-1.2204,-1.1903,-1.1983,-1.1372,-1.0771,-1.0265,-0.9895,-0.9744,-0.9744,-0.9895,-1.0115,-1.0559,-1.0426,-1.0651,-1.1025,-1.1174,-1.1025,-1.0801,-1.1459,-1.1533,-1.1242,-1.1607,-1.1822,-1.197,-3.4727,-3.4747,-3.4788,-3.485,-3.471,-3.4517,-3.4381,-3.4148,-3.3921,-3.3807,-3.378,-3.3868,-3.4148,-3.4325,-3.4464,-3.4551,-3.4394,-3.4293,-3.425,-3.4416,-3.4307,-3.3868,-3.426,-3.4416,-3.4197,-3.4371,-3.4464,-3.4464,-3.4055,-3.3947,-3.4148,-3.4203,-3.4105,-3.3876,-3.4348,-3.4486,-3.4401,-3.4636,-3.4906,-3.5092,-3.4077,-3.4404,-3.5442,-3.4443,-3.4747,-3.5707,-3.5778,-3.5797,-3.5781,-3.5802,-3.4576,-3.3156,-3.3387,-2.6458,-1.6193,-0.5572,-0.2198,-0.2278,-0.4171,-0.4086,-0.3372,-0.3366,-0.3521,-0.3908,-0.4841,-0.5154,-0.5544,-0.6633,-0.7249,-0.771,-0.8237,-0.8623,-0.8927,-0.9301,-0.9614,-0.9771,-0.9846,0.0,-1.0962,-1.1335,-1.1774,-1.2372,-1.3039,-1.3046,-1.3266,-1.371,-1.3564,-1.3564,-1.3783,-1.3637,-1.3564,-1.3484,-1.2725,-1.2425,-1.2592,-1.2131,-1.1896,-1.1896,-1.1749,-1.1675,-1.1675,-1.1675,-1.1749,-1.1896,-1.1896,-1.1896,-1.2044,-1.2117,-1.2117,-1.2044,-1.2258,-1.2258,-1.2184,-1.2258,-1.2558,-1.2851,-3.4517,-3.4539,-3.4561,-3.4626,-3.4539,-3.4381,-3.4173,-3.4023,-3.386,-3.3661,-3.3633,-3.3753,-3.4074,-3.413,-3.4325,-3.4812,-3.4812,-3.4693,-3.4464,-3.4486,-3.4375,-3.4148,-3.4371,-3.4416,-3.4197,-3.4245,-3.425,-3.425,-3.4154,-3.4049,-3.3868,-3.426,-3.4334,-3.4147,-3.4279,-3.4325,-3.4334,-3.4416,-3.4526,-3.4116,-2.8389,-2.9812,-3.4702,-2.8812,-3.0376,-3.5704,-3.5775,-3.5795,-3.5781,-3.5802,-2.9074,-2.0946,-2.2344,-2.1487,-1.7694,-0.5931,-0.3448,-0.4242,-0.3606,-0.407,-0.4693,-0.4691,-0.5541,-0.6318,-0.6549,-0.6553,-0.6861,-0.7702,-0.7931,-0.8313,-0.9236,-0.9392,-0.9544,-0.9765,-1.0288,-1.0663,-1.0812,0.0,-1.2579,-1.2599,-1.3251,-1.3833,-1.4049,-1.3855,-1.4,-1.4848,-1.4065,-1.392,-1.4848,-1.4418,-1.4418,-1.4848,-1.4186,-1.3833,-1.4057,-1.3317,-1.2865,-1.2712,-1.2044,-1.1675,-1.1675,-1.1675,-1.205,-1.2712,-1.2631,-1.3004,-1.3673,-1.4171,-1.4091,-1.3715,-1.4736,-1.4816,-1.4458,-1.4958,-1.518,-1.5251,-3.4431,-3.4542,-3.4586,-3.4517,-3.445,-3.434,-3.4221,-3.4148,-3.4074,-3.3947,-3.3921,-3.3972,-3.4148,-3.4269,-3.4454,-3.473,-3.485,-3.4851,-3.4714,-3.4733,-3.4612,-3.4371,-3.4442,-3.4464,-3.4371,-3.4371,-3.4321,-3.4197,-3.4197,-3.4074,-3.3807,-3.4227,-3.433,-3.42,-3.442,-3.4548,-3.4576,-3.4595,-3.4675,-3.4489,-3.138,-3.2158,-3.4856,-3.1768,-3.2655,-3.556,-3.574,-3.1637,-2.6307,-2.7203,-2.3806,-1.8265,-1.255,-1.139,-1.0997,-0.5472,-0.4389,-0.4943,-0.4779,-0.5085,-0.5547,-0.5935,-0.6475,-0.7015,-0.7472,-0.7625,-0.7927,-0.8775,-0.915,-0.9604,-1.0288,-1.0663,-1.0962,-1.1335,-1.1706,0.0,0.0,-1.2739,-1.3251,-1.347,-1.3985,-1.4489,-1.4776,-1.4633,-1.4705,-1.5204,-1.4705,-1.4633,-1.5196,-1.4919,-1.4991,-1.5355,-1.4999,-1.4919,-1.5125,-1.4545,-1.425,-1.4106,-1.373,-1.3585,-1.3585,-1.3795,-1.4083,-1.4458,-1.445,-1.4601,-1.4974,-1.5259,-1.5251,-1.5029,-1.5613,-1.5621,-1.5401,-1.5692,-1.5833,-1.5833,-3.452,-3.463,-3.4693,-3.4498,-3.4476,-3.4431,-3.4269,-3.4245,-3.4221,-3.4124,-3.4099,-3.4148,-3.4221,-3.4404,-3.4561,-3.4647,-3.4791,-3.487,-3.4908,-3.4908,-3.4793,-3.4551,-3.4572,-3.4551,-3.4508,-3.4551,-3.4526,-3.4348,-3.4321,-3.4203,-3.403,-3.4302,-3.4416,-3.4357,-3.4655,-3.4813,-3.4832,-3.4832,-3.4906,-3.4848,-3.3182,-3.2572,-3.2502,-3.103,-3.1523,-3.2987,-3.3027,-2.6509,-1.7708,-1.6623,-1.65,-1.519,-0.6006,-0.3997,-0.5026,-0.5249,-0.5553,-0.5867,-0.6338,-0.6563,-0.6707,-0.7165,-0.7472,-0.7931,-0.8537,-0.8836,-0.9216,-0.9911,-1.0513,-1.0962,-1.1335,-1.1855,-1.2305,-1.2599,0.0,0.0,0.0,-1.3557,-1.3992,-1.4258,-1.4625,-1.4991,-1.5346,-1.5346,-1.5346,-1.5559,-1.5346,-1.5346,-1.5559,-1.5488,-1.5559,-1.585,-1.5638,-1.563,-1.5833,-1.548,-1.5338,-1.5338,-1.5338,-1.5338,-1.5346,-1.5692,-1.5833,-1.5833,-1.5903,-1.5903,-1.5912,-1.6044,-1.6114,-1.6114,-1.6114,-1.6114,-1.6114,-1.6044,-1.6114,-1.6114,-3.4753,-3.4831,-3.485,-3.4708,-3.467,-3.4548,-3.4154,-3.4124,-3.4049,-3.3842,-3.3815,-3.3947,-3.4269,-3.4316,-3.4454,-3.4772,-3.4812,-3.4831,-3.4908,-3.4908,-3.4831,-3.4694,-3.4793,-3.4753,-3.4508,-3.4753,-3.487,-3.4851,-3.4655,-3.4591,-3.4632,-3.4851,-3.487,-3.4773,-3.4978,-3.4994,-3.4906,-3.4962,-3.498,-3.4415,-2.7756,-2.5207,-2.4658,-1.8027,-1.9756,-2.5684,-2.5002,-2.1799,-1.6475,-0.6991,-0.4872,-0.5996,-0.5085,-0.4937,-0.5171,-0.6083,-0.708,-0.7774,-0.7468,-0.808,-0.8694,-0.8385,-0.9296,-1.0288,-1.0288,-1.0582,-1.1031,-1.1484,-1.1706,-1.2003,-1.2452,-1.2673,-1.2826,-1.29,0.0,0.0,-1.3897,-1.4625,-1.5054,-1.5133,-1.548,-1.5762,-1.5991,-1.5709,-1.585,-1.6691,-1.5771,-1.563,-1.67,-1.6272,-1.6272,-1.6769,-1.6123,-1.5762,-1.5833,-1.5762,-1.5762,-1.5762,-1.5762,-1.5762,-1.5762,-1.5762,-1.5833,-1.5833,-1.6132,-1.6272,-1.6342,-1.689,-1.7097,-1.7097,-1.7097,-1.7097,-1.7097,-1.6899,-1.6968,-1.7097,-3.4889,-3.4926,-3.4908,-3.4732,-3.4607,-3.4476,-3.4363,-3.4197,-3.4099,-3.4124,-3.4124,-3.4173,-3.434,-3.4363,-3.4409,-3.4542,-3.4564,-3.4564,-3.4586,-3.4668,-3.4689,-3.4628,-3.4689,-3.4586,-3.4321,-3.4586,-3.4628,-3.4483,-3.4545,-3.4542,-3.439,-3.4505,-3.4612,-3.4674,-3.4794,-3.498,-3.5219,-3.5247,-3.5258,-3.5013,-3.2336,-3.1235,-3.0889,-2.8286,-2.5305,-2.3283,-2.9162,-3.0316,-2.71,-1.4649,-1.0846,-1.0666,-0.6349,-0.5018,-0.5323,-0.7007,-0.7774,-0.8309,-0.9145,-0.9145,-0.9074,-0.9604,-1.0132,-1.0663,-1.1111,-1.1335,-1.1558,-1.2003,-1.2305,-1.2673,-1.29,-1.3331,-1.3695,-1.384,0.0,-1.4274,-1.4346,-1.4848,-1.5267,-1.5551,-1.5912,-1.6263,-1.6751,-1.6551,-1.6551,-1.7038,-1.6542,-1.6403,-1.6908,-1.67,-1.67,-1.6908,-1.6621,-1.6473,-1.6473,-1.6263,-1.6132,-1.6132,-1.6132,-1.6193,-1.6324,-1.6533,-1.6751,-1.683,-1.6978,-1.7047,-1.7047,-1.7323,-1.7392,-1.7392,-1.7392,-1.7392,-1.7392,-1.7332,-1.7323,-1.7392,-3.503,-3.5032,-3.4997,-3.4754,-3.463,-3.4564,-3.4564,-3.4363,-3.4221,-3.4316,-3.4245,-3.4197,-3.4245,-3.4221,-3.4221,-3.4245,-3.4269,-3.4269,-3.4293,-3.4427,-3.4495,-3.458,-3.4626,-3.4561,-3.4316,-3.4583,-3.4607,-3.4435,-3.4647,-3.4628,-3.4461,-3.4483,-3.4548,-3.4614,-3.4695,-3.4944,-3.5315,-3.5316,-3.5374,-3.5481,-3.5507,-3.4093,-3.2014,-3.2083,-2.7001,-2.0726,-2.7552,-3.1082,-3.0704,-1.8585,-1.34,-1.1249,-0.6482,-0.5246,-0.5783,-0.7544,-0.8309,-0.8988,-1.072,-1.0714,-1.0265,-1.0588,-1.0887,-1.126,-1.1929,-1.215,-1.2305,-1.2599,-1.2966,-1.3404,-1.3695,-1.4201,-1.4561,-1.4713,-1.4991,-1.5125,-1.4991,-1.5338,-1.5762,-1.6184,-1.6473,-1.676,-1.7245,-1.7185,-1.7116,-1.7245,-1.7185,-1.7116,-1.7116,-1.7116,-1.7116,-1.7116,-1.7116,-1.7116,-1.7116,-1.67,-1.6551,-1.6551,-1.6551,-1.6682,-1.689,-1.7176,-1.7392,-1.747,-1.747,-1.747,-1.747,-1.7529,-1.7529,-1.7529,-1.7529,-1.7529,-1.7529,-1.7539,-1.7529,-1.7529,-3.5247,-3.5216,-3.5136,-3.4851,-3.4851,-3.4851,-3.4714,-3.4524,-3.4386,-3.4386,-3.4124,-3.3895,-3.3895,-3.3842,-3.3834,-3.3895,-3.3947,-3.4023,-3.4099,-3.4148,-3.4269,-3.4495,-3.4691,-3.4732,-3.4602,-3.4791,-3.4927,-3.5001,-3.5001,-3.4982,-3.498,-3.498,-3.4889,-3.4694,-3.4756,-3.4906,-3.5095,-3.5113,-3.5329,-3.5679,-3.5504,-3.1258,-2.5006,-2.4774,-2.1591,-1.7329,-1.7329,-2.0819,-2.4128,-1.5597,-0.9326,-0.5087,-0.5015,-0.5705,-0.6696,-0.777,-0.8836,-1.0115,-1.2258,-1.2778,-1.2565,-1.1403,-1.1706,-1.2445,-1.282,-1.32,-1.3492,-1.3492,-1.3848,-1.4266,-1.4832,-1.5204,-1.5505,-1.5505,-1.5974,-1.6167,-1.5833,-1.6254,-1.6751,-1.7166,-1.7166,-1.7314,-1.747,-1.747,-1.747,-1.747,-1.747,-1.747,-1.747,-1.747,-1.747,-1.747,-1.747,-1.747,-1.747,-1.7116,-1.6968,-1.7166,-1.7166,-1.7314,-1.747,-1.747,-1.747,-1.747,-1.747,-1.747,-1.7539,-1.7647,-1.7706,-1.7706,-1.7706,-1.7706,-1.7716,-1.7529,-1.7588,-1.7706,-3.5297,-3.5232,-3.5122,-3.4908,-3.4771,-3.471,-3.4753,-3.4435,-3.4245,-3.445,-3.4148,-3.3921,-3.3972,-3.3868,-3.3807,-3.3834,-3.386,-3.3788,-3.3616,-3.3643,-3.3698,-3.3787,-3.4184,-3.4344,-3.4245,-3.4298,-3.4321,-3.4298,-3.4298,-3.4367,-3.4524,-3.4524,-3.4545,-3.4647,-3.4649,-3.4773,-3.4963,-3.4959,-3.5108,-3.5038,-3.1504,-2.8858,-2.6568,-2.3036,-2.0779,-1.9484,-1.9484,-2.0529,-2.0974,-1.4802,-1.1689,-0.9764,-0.6163,-0.5705,-0.6842,-0.8713,-0.9985,-1.1255,-1.3476,-1.4068,-1.4068,-1.4004,-1.4155,-1.445,-1.4744,-1.4966,-1.5046,-1.5046,-1.5108,-1.5321,-1.5613,-1.5762,-1.5903,-1.6035,-1.6175,-1.6237,-1.6167,-1.6533,-1.683,-1.6742,-1.7176,-1.7461,-1.747,-1.747,-1.7529,-1.7647,-1.7529,-1.747,-1.747,-1.747,-1.747,-1.747,-1.747,-1.747,-1.747,-1.7401,-1.7323,-1.7392,-1.7392,-1.752,-1.7647,-1.7647,-1.7725,-1.7872,-1.7872,-1.7872,-1.7872,-1.7872,-1.793,-1.793,-1.793,-1.793,-1.793,-1.7872,-1.7872,-1.7862,-3.538,-3.5311,-3.5209,-3.4982,-3.4889,-3.4851,-3.4908,-3.4655,-3.4486,-3.4586,-3.4232,-3.3961,-3.3921,-3.3807,-3.3671,-3.3541,-3.3408,-3.3273,-3.3166,-3.3154,-3.3136,-3.3207,-3.3496,-3.3778,-3.4049,-3.3954,-3.3928,-3.3998,-3.3787,-3.3813,-3.4012,-3.4111,-3.4208,-3.4344,-3.4431,-3.4649,-3.4775,-3.2716,-3.2029,-3.1837,-2.6878,-2.4857,-2.455,-2.1536,-1.9107,-1.7367,-1.7367,-1.6041,-1.3874,-1.1159,-1.0549,-1.0344,-0.7234,-0.6919,-0.8183,-0.9889,-1.1144,-1.2469,-1.4688,-1.5288,-1.5429,-1.6158,-1.5728,-1.5305,-1.5596,-1.5675,-1.5675,-1.5675,-1.5745,-1.5965,-1.6315,-1.6394,-1.6533,-1.6664,-1.6802,-1.6872,-1.6603,-1.6959,-1.7166,-1.7019,-1.7373,-1.7598,-1.7666,-1.7676,-1.7735,-1.7784,-1.7735,-1.7676,-1.7676,-1.7676,-1.7676,-1.7676,-1.7676,-1.7676,-1.7676,-1.7676,-1.7666,-1.7588,-1.7588,-1.7657,-1.7784,-1.7784,-1.7862,-1.8008,-1.8008,-1.8008,-1.8008,-1.8008,-1.8008,-1.8008,-1.8008,-1.8008,-1.8008,-1.8008,-1.8008,-1.8008,-3.5457,-3.5388,-3.5304,-3.5056,-3.5105,-3.5168,-3.5105,-3.503,-3.4924,-3.4754,-3.4379,-3.4025,-3.3868,-3.3698,-3.3444,-3.3117,-3.2752,-3.2603,-3.2699,-3.2684,-3.2651,-3.2699,-3.2731,-3.3087,-3.385,-3.3625,-3.3625,-3.385,-3.3375,-3.3288,-3.3552,-3.3723,-3.3828,-3.3836,-3.3666,-3.3808,-3.3836,-2.8701,-2.6742,-2.6642,-2.1668,-1.9678,-1.9633,-1.9212,-1.6072,-1.1996,-1.1996,-0.8975,-0.5168,-0.6311,-0.7302,-0.8147,-0.8371,-0.9165,-1.0324,-1.1292,-1.239,-1.3769,-1.5852,-1.6446,-1.6724,-1.7725,-1.6724,-1.5517,-1.5877,-1.5948,-1.5956,-1.5948,-1.6097,-1.6394,-1.6941,-1.7157,-1.7304,-1.7304,-1.7725,-1.7803,-1.7116,-1.7442,-1.7706,-1.7706,-1.7706,-1.7784,-1.794,-1.8008,-1.8008,-1.8008,-1.8008,-1.8008,-1.8008,-1.8008,-1.8008,-1.8008,-1.8008,-1.8008,-1.8008,-1.8008,-1.793,-1.7706,-1.7706,-1.7784,-1.8008,-1.8008,-1.8008,-1.8008,-1.8008,-1.8008,-1.8008,-1.8008,-1.8008,-1.8008,-1.8008,-1.8008,-1.8008,-1.8008,-1.8008,-1.8008,-3.543,-3.5364,-3.5254,-3.5038,-3.5019,-3.5054,-3.5088,-3.5018,-3.4926,-3.4925,-3.4492,-3.4147,-3.4124,-3.3807,-3.3444,-3.3055,-3.2636,-3.23,-3.2127,-3.2144,-3.2144,-3.2091,-3.2144,-3.2334,-3.2648,-3.2827,-3.2858,-3.2763,-3.2749,-3.2827,-3.3039,-3.31,-3.3201,-3.319,-2.9729,-2.8247,-2.8009,-2.3359,-2.1439,-2.1116,-1.6116,-1.4132,-1.3717,-0.9823,-0.761,-0.6678,-0.6678,-0.5964,-0.5318,-0.7263,-0.8076,-0.8524,-1.0211,-1.1474,-1.2514,-1.3739,-1.4782,-1.5913,-1.7285,-1.7647,-1.7657,-1.794,-1.7725,-1.7569,-1.8152,-1.7901,-1.7638,-1.8162,-1.7901,-1.7657,-1.8066,-1.8202,-1.8202,-1.8202,-1.8347,-1.8212,-1.7803,-1.7872,-1.7862,-1.7706,-1.7852,-1.7862,-1.7784,-1.793,-1.8008,-1.8008,-1.8008,-1.8008,-1.8008,-1.8008,-1.8008,-1.8008,-1.8008,-1.8008,-1.8008,-1.8008,-1.8008,-1.793,-1.793,-1.794,-1.8008,-1.8008,-1.8008,-1.8008,-1.8008,-1.8008,-1.8008,-1.8008,-1.8008,-1.8008,-1.8008,-1.8008,-1.8008,-1.8008,-1.8008,-1.8008,-3.5489,-3.5457,-3.5355,-3.5088,-3.516,-3.5209,-3.5105,-3.5122,-3.5105,-3.4997,-3.4736,-3.4467,-3.4269,-3.4023,-3.3606,-3.2943,-3.2403,-3.2002,-3.1746,-3.1637,-3.1711,-3.1949,-3.1768,-3.1787,-3.2091,-3.1914,-3.1968,-3.2351,-3.2197,-3.2092,-3.2074,-3.221,-3.2207,-3.1949,-2.9824,-2.7838,-2.5831,-2.1076,-1.8004,-1.584,-1.0896,-0.8881,-0.8573,-0.5983,-0.5616,-0.644,-0.5392,-0.6002,-0.7651,-0.9776,-1.0887,-1.1481,-1.2652,-1.369,-1.4727,-1.53,-1.6253,-1.7226,-1.7872,-1.8008,-1.8008,-1.8008,-1.8008,-1.8076,-1.8462,-1.8529,-1.8596,-1.8911,-1.8721,-1.8664,-1.9198,-1.8875,-1.8549,-1.8731,-1.8607,-1.8414,-1.8076,-1.8008,-1.794,-1.7862,-1.794,-1.794,-1.7862,-1.794,-1.8008,-1.8008,-1.8008,-1.8008,-1.8008,-1.8008,-1.8008,-1.8008,-1.8008,-1.8008,-1.8008,-1.8008,-1.8008,-1.8008,-1.8008,-1.8008,-1.8008,-1.8008,-1.8008,-1.8008,-1.8008,-1.8008,-1.8008,-1.8008,-1.8008,-1.8008,-1.8008,-1.8008,-1.8008,-1.8008,-1.8008,-1.8008,-3.5577,-3.557,-3.5496,-3.52,-3.532,-3.5403,-3.5138,-3.5273,-3.5304,-3.5069,-3.4962,-3.4774,-3.4435,-3.4203,-3.3715,-3.2876,-3.2283,-3.1858,-3.1634,-3.1462,-3.1524,-3.1967,-3.1582,-3.1524,-3.193,-3.1184,-3.1244,-3.2144,-3.1603,-3.1244,-3.1138,-3.1281,-3.11,-3.0662,-3.0289,-2.7948,-2.4009,-1.9097,-1.4727,-1.0775,-0.6656,-0.5018,-0.5018,-0.5018,-0.6143,-0.7551,-0.6066,-0.7495,-1.0381,-1.258,-1.3927,-1.4688,-1.5059,-1.586,-1.6585,-1.6585,-1.7364,-1.8202,-1.8202,-1.8269,-1.8395,-1.8337,-1.8337,-1.8337,-1.8337,-1.8721,-1.9044,-1.9177,-1.9177,-1.9375,-2.0096,-1.9452,-1.8931,-1.9054,-1.8865,-1.8549,-1.8076,-1.8008,-1.8008,-1.8008,-1.8008,-1.8008,-1.8008,-1.8008,-1.8008,-1.8008,-1.8008,-1.8008,-1.8008,-1.8008,-1.8008,-1.8008,-1.8008,-1.8008,-1.8008,-1.8008,-1.8008,-1.8008,-1.8008,-1.8008,-1.8008,-1.8008,-1.8008,-1.8008,-1.8008,-1.8008,-1.8008,-1.8008,-1.8008,-1.8008,-1.8008,-1.8008,-1.8008,-1.8008,-1.8008,-1.8008,-3.5678,-3.5589,-3.5483,-3.5378,-3.533,-3.5293,-3.5209,-3.5261,-3.5277,-3.5193,-3.4997,-3.4889,-3.4831,-3.4024,-3.3441,-3.3255,-3.2616,-3.2214,-3.2179,-3.1949,-3.1841,-3.1986,-3.1711,-3.1711,-3.1967,-3.1223,-3.1004,-3.1449,-3.0673,-3.051,-3.0868,-3.0476,-3.0252,-3.0018,-2.6183,-2.2326,-1.8375,-1.3844,-0.9619,-0.5914,-0.5297,-0.5018,-0.5018,-0.5018,-0.5165,-0.5696,-0.7255,-0.9314,-1.1582,-1.3787,-1.467,-1.5118,-1.6973,-1.7647,-1.7794,-1.7794,-1.8385,-1.911,-1.8911,-1.942,-1.9944,-1.9835,-1.9846,-1.9846,-1.9846,-1.9375,-1.9177,-1.9835,-1.9966,-2.0096,-2.0473,-2.0398,-2.015,-1.9594,-1.9473,-1.9075,-1.8144,-1.8008,-1.8008,-1.8008,-1.8008,-1.8008,-1.8008,-1.8008,-1.8008,-1.8008,-1.8008,-1.8008,-1.8008,-1.8008,-1.8008,-1.8008,-1.8008,-1.8008,-1.8008,-1.8008,-1.8008,-1.8008,-1.8008,-1.8008,-1.8008,-1.8008,-1.8008,-1.8008,-1.8008,-1.8008,-1.8008,-1.8008,-1.8008,-1.8008,-1.8008,-1.8008,-1.8008,-1.8008,-1.8008,-1.8008,-3.5708,-3.5637,-3.5581,-3.543,-3.5374,-3.5315,-3.5226,-3.5176,-3.5196,-3.5209,-3.5089,-3.4982,-3.4908,-3.4292,-3.3776,-3.3478,-3.3021,-3.258,-3.2264,-3.2039,-3.1966,-3.2091,-3.1785,-3.1785,-3.2162,-3.1244,-3.0868,-3.1004,-3.0344,-2.9919,-2.9865,-2.9673,-2.9451,-2.9042,-2.7094,-2.401,-2.0053,-1.589,-1.1861,-0.8139,-0.5889,-0.577,-0.6809,-0.6809,-0.8632,-1.1433,-1.3681,-1.4261,-1.4331,-1.6542,-1.6968,-1.6927,-1.887,-1.911,-1.8787,-1.9166,-1.9617,-1.9944,-1.9694,-1.9955,-2.0268,-2.0161,-2.0096,-2.0096,-2.0096,-2.0161,-2.0279,-2.0613,-2.0677,-2.0805,-2.1388,-2.0985,-2.0537,-2.0431,-1.9987,-1.9341,-1.8664,-1.8269,-1.8008,-1.8008,-1.8008,-1.8008,-1.8008,-1.8008,-1.8008,-1.8008,-1.8008,-1.8008,-1.8008,-1.7862,-1.7862,-1.7862,-1.7862,-1.7862,-1.7862,-1.794,-1.794,-1.7862,-1.794,-1.8008,-1.8008,-1.8008,-1.8008,-1.8008,-1.8008,-1.8008,-1.8008,-1.8008,-1.8008,-1.8008,-1.8008,-1.8008,-1.8008,-1.8008,-1.8008,-1.8008]},{"header":{"parameterUnit":"m.s-1","parameterCategory":1,"la1":30.6,"la2":28.766,"lo1":-90.7593,"lo2":-88.6598,"dy":0.0162,"dx":0.0183,"nx":116,"ny":114,"refTime":"2023-03-27T18:00:00:Z","depth":0,"parameterNumber":3,"parameterNumberName":"V-component_of_WINDS"},"data":[0.0,0.0,0.0,0.0,0.0,0.0,0.0,0.0,0.0,0.0,0.0,0.0,0.0,0.0,0.0,0.0,0.0,0.0,0.0,0.0,0.0,0.0,0.0,0.0,0.0,0.0,0.0,0.0,0.0,0.0,0.0,0.0,0.0,0.0,0.0,0.0,0.0,0.0,0.0,0.0,0.0,0.0,0.0,0.0,0.0,0.0,0.0,0.0,0.0,0.0,0.0,0.0,0.0,0.0,0.0,0.0,0.0,0.0,0.0,0.0,0.0,0.0,0.0,0.0,0.0,0.0,0.0,0.0,0.0,0.0,0.0,0.0,0.0,0.0,0.0,0.0,0.0,0.0,0.0,0.0,0.0,0.0,0.0,0.0,0.0,0.0,0.0,0.0,0.0,0.0,0.0,0.0,0.0,0.0,0.0,0.0,0.0,0.0,0.0,0.0,0.0,0.0,0.0,0.0,0.0,0.0,0.0,0.0,0.0,0.0,0.0,0.0,0.0,0.0,0.0,0.0,0.0,0.0,0.0,0.0,0.0,0.0,0.0,0.0,0.0,0.0,0.0,0.0,0.0,0.0,0.0,0.0,0.0,0.0,0.0,0.0,0.0,0.0,0.0,0.0,0.0,0.0,0.0,0.0,0.0,0.0,0.0,0.0,0.0,0.0,0.0,0.0,0.0,0.0,0.0,0.0,0.0,0.0,0.0,0.0,0.0,0.0,0.0,0.0,0.0,0.0,0.0,0.0,0.0,0.0,0.0,0.0,0.0,0.0,0.0,0.0,0.0,0.0,0.0,0.0,0.0,0.0,0.0,0.0,0.0,0.0,0.0,0.0,0.0,0.0,0.0,0.0,0.0,0.0,0.0,0.0,0.0,0.0,0.0,0.0,0.0,0.0,0.0,0.0,0.0,0.0,0.0,0.0,0.0,0.0,0.0,0.0,0.0,0.0,0.0,0.0,0.0,0.0,0.0,0.0,0.0,0.0,0.0,0.0,0.0,0.0,0.0,0.0,0.0,0.0,0.0,0.0,0.0,0.0,0.0,0.0,0.0,0.0,0.0,0.0,0.0,0.0,0.0,0.0,0.0,0.0,0.0,0.0,0.0,0.0,0.0,0.0,0.0,0.0,0.0,0.0,0.0,0.0,0.0,0.0,0.0,0.0,0.0,0.0,0.0,0.0,0.0,0.0,0.0,0.0,0.0,0.0,0.0,0.0,0.0,0.0,0.0,0.0,0.0,0.0,0.0,0.0,0.0,0.0,0.0,0.0,0.0,0.0,0.0,0.0,0.0,0.0,0.0,0.0,0.0,0.0,0.0,0.0,0.0,0.0,0.0,0.0,0.0,0.0,0.0,0.0,0.0,0.0,0.0,0.0,0.0,0.0,0.0,0.0,0.0,0.0,0.0,0.0,0.0,0.0,0.0,0.0,0.0,0.0,0.0,0.0,0.0,0.0,0.0,0.0,0.0,0.0,0.0,0.0,0.0,0.0,0.0,0.0,0.0,0.0,0.0,0.0,0.0,0.0,0.0,0.0,0.0,0.0,0.0,0.0,0.0,0.0,0.0,0.0,0.0,0.0,0.0,0.0,0.0,0.0,0.0,0.0,0.0,0.0,0.0,0.0,0.0,0.0,0.0,0.0,0.0,0.0,0.0,0.0,0.0,0.0,0.0,0.0,0.0,0.0,0.0,0.0,0.0,0.0,0.0,0.0,0.0,0.0,0.0,0.0,0.0,0.0,0.0,0.0,0.0,0.0,0.0,0.0,0.0,0.0,0.0,0.0,0.0,0.0,0.0,0.0,0.0,0.0,0.0,0.0,0.0,0.0,0.0,0.0,0.0,0.0,0.0,0.0,0.0,0.0,0.0,0.0,0.0,0.0,0.0,0.0,0.0,0.0,0.0,0.0,0.0,0.0,0.0,0.0,0.0,0.0,0.0,0.0,0.0,0.0,0.0,0.0,0.0,0.0,0.0,0.0,0.0,0.0,0.0,0.0,0.0,0.0,0.0,0.0,0.0,0.0,0.0,0.0,0.0,0.0,0.0,0.0,0.0,0.0,0.0,0.0,0.0,0.0,0.0,0.0,0.0,0.0,0.0,0.0,0.0,0.0,0.0,0.0,0.0,0.0,0.0,0.0,0.0,0.0,0.0,0.0,0.0,0.0,0.0,0.0,0.0,0.0,0.0,0.0,0.0,0.0,0.0,0.0,0.0,0.0,0.0,0.0,0.0,0.0,0.0,0.0,0.0,0.0,0.0,0.0,0.0,0.0,0.0,0.0,0.0,0.0,0.0,0.0,0.0,0.0,0.0,0.0,0.0,0.0,0.0,0.0,0.0,0.0,0.0,0.0,0.0,0.0,0.0,0.0,0.0,0.0,0.0,0.0,0.0,0.0,0.0,0.0,0.0,0.0,0.0,0.0,0.0,0.0,0.0,0.0,0.0,0.0,0.0,0.0,0.0,0.0,0.0,0.0,0.0,0.0,0.0,0.0,0.0,0.0,0.0,0.0,0.0,0.0,0.0,0.0,0.0,0.0,0.0,0.0,0.0,0.0,0.0,0.0,0.0,0.0,0.0,0.0,0.0,0.0,0.0,0.0,0.0,0.0,0.0,0.0,0.0,0.0,0.0,0.0,0.0,0.0,0.0,0.0,0.0,0.0,0.0,0.0,0.0,0.0,0.0,0.0,0.0,0.0,0.0,0.0,0.0,0.0,0.0,0.0,0.0,0.0,0.0,0.0,0.0,0.0,0.0,0.0,0.0,0.0,0.0,0.0,0.0,0.0,0.0,0.0,0.0,0.0,0.0,0.0,0.0,0.0,0.0,0.0,0.0,0.0,0.0,0.0,0.0,0.0,0.0,0.0,0.0,0.0,0.0,0.0,0.0,0.0,0.0,0.0,0.0,0.0,0.0,0.0,0.0,0.0,0.0,0.0,0.0,0.0,0.0,0.0,0.0,0.0,0.0,0.0,0.0,0.0,0.0,0.0,0.0,0.0,0.0,0.0,0.0,0.0,0.0,0.0,0.0,0.0,0.0,0.0,0.0,0.0,0.0,0.0,0.0,0.0,0.0,0.0,0.0,0.0,0.0,0.0,0.0,0.0,0.0,0.0,0.0,0.0,0.0,0.0,0.0,0.0,0.0,0.0,0.0,0.0,0.0,0.0,0.0,0.0,0.0,0.0,0.0,0.0,0.0,0.0,0.0,0.0,0.0,0.0,0.0,0.0,0.0,0.0,0.0,0.0,0.0,0.0,0.0,0.0,0.0,0.0,0.0,0.0,0.0,0.0,0.0,0.0,0.0,0.0,0.0,0.0,0.0,0.0,0.0,0.0,0.0,0.0,0.0,0.0,0.0,0.0,0.0,0.0,0.0,0.0,0.0,0.0,0.0,0.0,0.0,0.0,0.0,0.0,0.0,0.0,0.0,0.0,0.0,0.0,0.0,0.0,0.0,0.0,0.0,0.0,0.0,0.0,0.0,0.0,0.0,0.0,0.0,0.0,0.0,0.0,0.0,0.0,0.0,0.0,0.0,0.0,0.0,0.0,0.0,0.0,0.0,0.0,0.0,0.0,0.0,0.0,0.0,0.0,0.0,0.0,0.0,0.0,0.0,0.0,0.0,0.0,0.0,0.0,0.0,0.0,0.0,0.0,0.0,0.0,0.0,0.0,0.0,0.0,0.0,0.0,0.0,0.0,0.0,0.0,0.0,0.0,0.0,0.0,0.0,0.0,0.0,0.0,0.0,0.0,0.0,0.0,0.0,0.0,0.0,0.0,0.0,0.0,0.0,0.0,0.0,0.0,0.0,0.0,0.0,0.0,0.0,0.0,0.0,0.0,0.0,0.0,0.0,0.0,0.0,0.0,0.0,0.0,0.0,0.0,0.0,0.0,0.0,0.0,0.0,0.0,0.0,0.0,0.0,0.0,0.0,0.0,0.0,0.0,0.0,0.0,0.0,0.0,0.0,0.0,0.0,0.0,0.0,0.0,0.0,0.0,0.0,0.0,0.0,0.0,0.0,0.0,0.0,0.0,0.0,0.0,0.0,0.0,0.0,0.0,0.0,0.0,0.0,0.0,0.0,0.0,0.0,0.0,0.0,0.0,0.0,0.0,0.0,0.0,0.0,0.0,0.0,0.0,0.0,0.0,0.0,0.0,0.0,0.0,0.0,0.0,0.0,0.0,0.0,0.0,0.0,0.0,0.0,0.0,0.0,0.0,0.0,0.0,0.0,0.0,0.0,0.0,0.0,0.0,0.0,0.0,0.0,0.0,0.0,0.0,0.0,0.0,0.0,0.0,0.0,0.0,0.0,0.0,0.0,0.0,0.0,0.0,0.0,0.0,0.0,0.0,0.0,0.0,0.0,0.0,0.0,0.0,0.0,0.0,0.0,0.0,0.0,0.0,0.0,0.0,0.0,0.0,0.0,0.0,0.0,0.0,0.0,0.0,0.0,0.0,0.0,0.0,0.0,0.0,0.0,0.0,0.0,0.0,0.0,0.0,0.0,0.0,0.0,0.0,0.0,0.0,0.0,0.0,0.0,0.0,0.0,0.0,0.0,0.0,0.0,0.0,0.0,0.0,0.0,0.0,0.0,0.0,0.0,0.0,0.0,0.0,0.0,0.0,0.0,0.0,0.0,0.0,0.0,0.0,0.0,0.0,0.0,0.0,0.0,0.0,0.0,0.0,0.0,0.0,0.0,0.0,0.0,0.0,0.0,0.0,0.0,0.0,0.0,0.0,0.0,0.0,0.0,0.0,0.0,0.0,0.0,0.0,0.0,0.0,0.0,0.0,0.0,0.0,0.0,0.0,0.0,0.0,0.0,0.0,0.0,0.0,0.0,0.0,0.0,0.0,0.0,0.0,0.0,0.0,0.0,0.0,0.0,0.0,0.0,0.0,0.0,0.0,0.0,0.0,0.0,0.0,0.0,0.0,0.0,0.0,0.0,0.0,0.0,0.0,0.0,0.0,0.0,0.0,0.0,0.0,0.0,0.0,0.0,0.0,0.0,0.0,0.0,0.0,0.0,0.0,0.0,0.0,0.0,0.0,0.0,0.0,0.0,0.0,0.0,0.0,0.0,0.0,0.0,0.0,0.0,0.0,0.0,0.0,0.0,0.0,0.0,0.0,0.0,0.0,0.0,0.0,0.0,0.0,0.0,0.0,0.0,0.0,0.0,0.0,0.0,0.0,0.0,0.0,0.0,0.0,0.0,0.0,0.0,0.0,0.0,0.0,0.0,0.0,0.0,0.0,0.0,0.0,0.0,0.0,0.0,0.0,0.0,0.0,0.0,0.0,0.0,0.0,0.0,0.0,0.0,0.0,0.0,0.0,0.0,0.0,0.0,0.0,0.0,0.0,0.0,0.0,0.0,0.0,0.0,0.0,0.0,0.0,0.0,0.0,0.0,0.0,0.0,0.0,0.0,0.0,0.0,0.0,0.0,0.0,0.0,0.0,0.0,0.0,0.0,0.0,0.0,0.0,0.0,0.0,0.0,0.0,0.0,0.0,0.0,0.0,0.0,0.0,0.0,0.0,0.0,0.0,0.0,0.0,0.0,0.0,0.0,0.0,0.0,0.0,0.0,0.0,0.0,0.0,0.0,0.0,0.0,0.0,0.0,0.0,0.0,0.0,0.0,0.0,0.0,0.0,0.0,0.0,0.0,0.0,0.0,0.0,0.0,0.0,0.0,0.0,0.0,0.0,0.0,0.0,0.0,0.0,0.0,0.0,0.0,0.0,0.0,0.0,0.0,0.0,0.0,0.0,0.0,0.0,0.0,0.0,0.0,0.0,0.0,0.0,0.0,0.0,0.0,0.0,0.0,0.0,0.0,0.0,0.0,0.0,0.0,0.0,0.0,0.0,0.0,0.0,0.0,0.0,0.0,0.0,0.0,0.0,0.0,0.0,0.0,0.0,0.0,0.0,0.0,0.0,0.0,0.0,0.0,0.0,0.0,0.0,0.0,0.0,0.0,0.0,0.0,0.0,0.0,0.0,0.0,0.0,0.0,0.0,0.0,0.0,0.0,0.0,0.0,0.0,0.0,0.0,0.0,0.0,0.0,0.0,0.0,0.0,0.0,0.0,0.0,0.0,0.0,0.0,0.0,0.0,-2.9621,0.0,0.0,0.0,0.0,0.0,0.0,0.0,0.0,0.0,0.0,0.0,0.0,0.0,0.0,0.0,0.0,0.0,0.0,0.0,0.0,0.0,0.0,0.0,0.0,0.0,0.0,0.0,0.0,0.0,0.0,0.0,0.0,0.0,0.0,0.0,0.0,0.0,0.0,0.0,0.0,0.0,0.0,0.0,0.0,0.0,0.0,0.0,0.0,0.0,0.0,0.0,0.0,0.0,0.0,0.0,0.0,0.0,0.0,0.0,0.0,0.0,0.0,0.0,0.0,0.0,0.0,0.0,0.0,0.0,0.0,0.0,0.0,0.0,0.0,0.0,0.0,0.0,0.0,0.0,0.0,0.0,0.0,0.0,0.0,0.0,0.0,0.0,0.0,0.0,0.0,0.0,0.0,0.0,0.0,0.0,0.0,0.0,0.0,0.0,0.0,0.0,0.0,0.0,0.0,0.0,0.0,0.0,0.0,0.0,0.0,0.0,0.0,0.0,0.0,0.0,0.0,-3.1405,0.0,0.0,0.0,0.0,0.0,0.0,0.0,0.0,0.0,0.0,0.0,0.0,0.0,0.0,0.0,0.0,0.0,0.0,0.0,0.0,0.0,0.0,0.0,0.0,0.0,0.0,0.0,0.0,0.0,0.0,0.0,0.0,0.0,0.0,0.0,0.0,0.0,0.0,0.0,0.0,0.0,0.0,0.0,0.0,0.0,0.0,0.0,0.0,0.0,0.0,0.0,0.0,0.0,0.0,0.0,0.0,0.0,0.0,0.0,0.0,0.0,0.0,0.0,0.0,0.0,0.0,0.0,0.0,0.0,0.0,0.0,0.0,0.0,0.0,0.0,0.0,0.0,0.0,0.0,0.0,0.0,0.0,0.0,0.0,0.0,0.0,0.0,0.0,0.0,0.0,0.0,0.0,0.0,0.0,0.0,0.0,0.0,0.0,0.0,0.0,0.0,0.0,0.0,0.0,0.0,0.0,0.0,0.0,-2.9555,-3.0224,-3.0616,-3.1309,-3.2441,-3.4033,-3.4119,-3.4193,-3.4209,-3.3251,0.0,0.0,0.0,0.0,0.0,0.0,0.0,0.0,0.0,0.0,0.0,0.0,0.0,0.0,0.0,0.0,0.0,0.0,0.0,0.0,0.0,0.0,0.0,0.0,0.0,0.0,0.0,0.0,0.0,0.0,0.0,0.0,0.0,0.0,0.0,0.0,0.0,0.0,1.4316,1.4583,1.4363,1.3649,1.2868,0.0,0.0,0.0,0.0,0.0,0.0,0.0,0.0,0.0,0.0,0.0,0.0,0.0,0.0,0.0,0.0,0.0,0.0,0.0,0.0,0.0,0.0,0.0,0.0,0.0,0.0,0.0,0.0,0.0,0.0,0.0,0.0,0.0,0.0,0.0,0.0,0.0,0.0,0.0,0.0,0.0,0.0,0.0,-1.8279,-1.9418,0.0,0.0,0.0,0.0,0.0,0.0,0.0,0.0,0.0,0.0,0.0,0.0,0.0,-2.5677,-2.7,-2.8439,-3.0033,-3.183,-3.3107,-3.4133,-3.4728,-3.4963,-3.5305,-3.5672,-3.58,0.0,-3.499,-3.4802,0.0,0.0,0.0,0.0,0.0,0.0,0.0,0.0,0.0,0.0,0.0,0.0,0.0,0.0,0.0,0.0,0.0,0.0,0.0,0.0,0.0,0.0,0.0,0.0,0.0,0.0,0.0,0.0,0.0,0.0,0.0,0.0,0.0,0.0,0.0,0.0,1.3919,1.3837,1.3858,1.3987,1.3708,1.3021,1.2652,1.2272,1.1945,1.1533,0.0,0.0,0.0,0.0,0.0,0.0,0.0,0.0,0.0,0.0,0.0,0.0,0.0,0.0,0.0,0.0,0.0,0.0,0.0,0.0,0.0,0.0,0.0,0.0,0.0,0.0,0.0,0.0,0.0,0.0,0.0,0.0,0.0,0.0,0.0,0.0,0.0,0.0,0.0,-1.7935,-1.9053,-2.0033,-1.9625,-1.9243,0.0,0.0,0.0,0.0,0.0,0.0,0.0,0.0,0.0,-2.7051,-2.7802,-2.8648,-2.9656,-3.1433,-3.273,-3.3615,-3.4575,-3.522,-3.5504,-3.5554,-3.5653,-3.5831,-3.6022,-3.5943,-3.5657,-3.524,-3.4714,-3.4041,0.0,0.0,0.0,0.0,-3.598,-3.698,0.0,0.0,0.0,0.0,0.0,0.0,0.0,0.0,0.0,0.0,0.0,0.0,0.0,0.0,0.0,1.7235,0.0,0.0,0.0,0.0,0.0,0.0,0.0,0.0,0.0,0.0,0.0,0.0,1.308,1.3188,1.3398,1.3398,1.3137,1.2625,1.2448,1.2277,1.2112,1.1521,1.1262,0.0,0.0,0.0,0.0,0.0,0.0,0.0,0.0,0.0,0.0,0.0,0.0,0.0,0.0,0.0,0.0,0.0,0.0,0.0,0.0,0.0,0.0,0.0,0.0,0.0,0.0,0.0,0.0,0.0,0.0,0.0,0.0,0.0,0.0,0.0,0.0,0.0,0.0,-1.9418,-2.0381,-2.0663,-2.1222,-2.1322,0.0,0.0,0.0,0.0,0.0,0.0,-2.7078,-2.7078,-2.7799,-2.9394,-3.0438,-3.1368,-3.2288,-3.3776,-3.4562,-3.4741,-3.5265,-3.5504,-3.5504,-3.5504,-3.5539,-3.5688,-3.5894,-3.61,-3.6133,-3.5657,-3.532,-3.5109,-3.4566,-3.4699,-3.5305,-3.6183,-3.7008,-3.7796,0.0,0.0,0.0,0.0,0.0,0.0,0.0,0.0,0.0,0.0,0.0,0.0,0.0,0.0,1.6673,1.6673,1.6132,1.607,0.0,0.0,0.0,0.0,0.0,0.0,0.0,0.0,0.0,1.3937,1.3535,1.3379,1.3398,1.3398,1.3398,1.3307,1.2705,1.2026,1.1348,1.1348,1.1262,1.1262,0.0,0.0,0.0,0.0,0.0,0.0,0.0,0.0,0.0,0.0,0.0,0.0,0.0,0.0,0.0,0.0,0.0,0.0,0.0,0.0,0.0,0.0,0.0,0.0,0.0,0.0,0.0,0.0,0.0,0.0,0.0,0.0,0.0,0.0,0.0,0.0,0.0,0.0,0.0,-2.236,-2.3971,0.0,0.0,0.0,0.0,-2.6093,-2.6812,-2.7799,-2.9191,-2.9254,-3.0197,-3.2243,-3.2363,-3.3035,-3.4367,-3.4442,-3.4801,-3.5459,-3.5489,-3.5504,-3.5504,-3.5504,-3.5539,-3.5688,-3.5894,-3.61,-3.6211,-3.6352,-3.6022,-3.54,-3.5335,-3.5335,-3.5499,-3.675,-3.761,-3.8446,0.0,0.0,0.0,0.0,0.0,0.0,0.0,0.0,0.0,0.0,0.0,0.0,0.0,1.6811,1.6473,1.614,1.5938,1.5867,1.607,0.0,0.0,0.0,0.0,0.0,0.0,0.0,1.4608,1.3639,1.3045,1.279,1.2711,1.2283,1.2032,1.2032,1.1774,1.1521,1.1262,1.1262,1.1262,1.1262,1.1262,1.0997,0.0,0.0,0.0,0.0,0.0,0.0,0.0,0.0,0.0,0.0,0.0,0.0,0.0,0.0,0.0,0.0,0.0,0.0,0.0,0.0,0.0,0.0,0.0,0.0,0.0,0.0,0.0,0.0,0.0,0.0,0.0,0.0,0.0,0.0,0.0,0.0,0.0,-2.3154,-2.5189,0.0,-2.4696,-2.6852,-2.8275,-2.8275,-2.9378,-3.0211,-3.0733,-3.1188,-3.1721,-3.2512,-3.3335,-3.4008,-3.4472,-3.4921,-3.5265,-3.5504,-3.5504,-3.5504,-3.5504,-3.5504,-3.5539,-3.5688,-3.5894,-3.61,-3.6211,-3.6414,-3.6352,-3.6085,-3.6085,-3.6383,-3.6768,-3.76,-3.8302,-3.9028,0.0,0.0,0.0,0.0,0.0,0.0,0.0,0.0,0.0,0.0,0.0,1.7969,1.695,1.6542,1.6202,1.5797,1.5805,1.5805,1.5805,0.0,0.0,0.0,0.0,0.0,0.0,1.5869,1.488,1.3639,1.2954,1.2528,1.2363,1.1688,1.1262,1.1262,1.1262,1.1262,1.1262,1.1262,1.1262,1.1262,1.1262,1.1176,1.0906,0.0,0.0,0.0,0.0,0.0,0.0,0.0,0.0,0.0,0.0,0.0,0.0,0.0,0.0,0.0,0.0,0.0,0.0,0.0,0.0,0.0,0.0,0.0,0.0,0.0,0.0,0.0,0.0,0.0,0.0,0.0,0.0,0.0,0.0,-2.3765,-2.5085,-2.3887,-2.609,-2.7419,-2.6464,-2.8443,-2.9879,-3.0076,-3.0999,-3.1571,-3.1854,-3.2273,-3.2721,-3.3155,-3.4023,-3.4703,-3.5165,-3.5555,-3.591,-3.6148,-3.591,-3.5797,-3.5797,-3.5554,-3.5539,-3.5752,-3.6133,-3.6383,-3.6554,-3.6921,-3.7118,-3.7118,-3.6892,-3.7178,-3.7796,-3.8407,-3.8865,-3.9312,0.0,0.0,0.0,0.0,0.0,0.0,0.0,0.0,0.0,0.0,1.8327,1.7373,1.7373,1.6421,1.5805,1.5805,1.5805,1.5805,1.5814,1.6669,0.0,0.0,0.0,0.0,1.6445,1.6437,1.5613,1.4048,1.336,1.2772,1.2448,1.1688,1.1262,1.1262,1.1262,1.1262,1.1262,1.1262,1.1262,1.1262,1.1262,1.0997,1.0549,0.0,0.0,0.0,0.0,0.0,0.0,0.0,0.0,0.0,0.0,0.0,0.0,0.0,0.0,0.0,0.0,0.0,0.0,0.0,0.0,0.0,0.0,0.0,0.0,0.0,0.0,0.0,0.0,0.0,0.0,0.0,0.0,0.0,-2.3088,-2.4424,-2.5284,-2.4637,-2.6915,-2.8515,-2.8488,-2.97,-3.0777,-3.1409,-3.1497,-3.1839,-3.2482,-3.2557,-3.3155,-3.4442,-3.4502,-3.5102,-3.6368,-3.6368,-3.6723,-3.737,-3.6723,-3.643,-3.643,-3.5861,-3.5604,-3.58,-3.66,-3.7011,-3.7175,-3.7994,-3.8278,-3.8294,-3.7679,-3.7796,-3.8407,-3.8974,-3.9206,-3.9312,0.0,0.0,0.0,0.0,0.0,0.0,0.0,0.0,0.0,0.0,1.792,1.7235,1.6881,1.6211,1.5805,1.5805,1.5805,1.6121,1.6821,0.0,0.0,0.0,0.0,0.0,1.7131,1.6484,1.5989,1.5492,1.4055,1.3215,1.3137,1.186,1.1262,1.1262,1.1262,1.1262,1.1262,1.1262,1.1262,1.1262,1.1262,1.1262,1.0997,0.0,0.0,0.0,0.0,0.0,0.0,0.0,0.0,0.0,0.0,0.0,0.0,0.0,0.0,0.0,0.0,0.0,0.0,0.0,0.0,0.0,0.0,0.0,0.0,0.0,0.0,0.0,0.0,0.0,0.0,0.0,-2.4719,-2.5497,-2.5489,-2.6302,-2.7043,-2.7366,-2.8025,-2.8519,-2.8515,-2.9737,-3.0584,-3.0777,-3.1664,-3.2317,-3.2497,-3.3425,-3.4098,-3.4472,-3.4966,-3.5374,-3.5733,-3.6196,-3.6492,-3.6662,-3.6951,-3.7131,-3.7131,-3.6951,-3.7011,-3.7219,-3.7472,-3.7706,-3.7994,-3.8222,-3.8574,-3.892,-3.8294,-3.8407,-3.8974,-3.9152,-3.947,-3.9867,0.0,0.0,0.0,0.0,0.0,0.0,0.0,0.0,0.0,0.0,1.8327,1.7579,1.7028,1.6482,1.607,1.5805,1.6,1.6369,1.6937,0.0,0.0,0.0,0.0,1.7635,1.7635,1.6984,1.6582,1.6327,1.4817,1.3893,1.3398,1.2289,1.1602,1.1262,1.1262,1.1262,1.1262,1.1262,1.1262,1.1262,1.1262,1.1262,1.1262,1.0554,1.0111,0.9584,0.8798,0.8181,0.7471,0.588,0.0,0.0,0.0,0.0,0.0,0.0,0.0,0.0,0.0,0.0,0.0,0.0,0.0,0.0,0.0,0.0,0.0,0.0,0.0,0.0,0.0,0.0,0.0,0.0,-2.6464,-2.7446,-2.7709,-2.7828,-2.8039,-2.8481,-2.8481,-2.8725,-2.9282,-3.0025,-3.0644,-3.0896,-3.1886,-3.2632,-3.2901,-3.3903,-3.4607,-3.4906,-3.5295,-3.5619,-3.5846,-3.6196,-3.6662,-3.7191,-3.731,-3.7531,-3.7879,-3.7589,-3.7648,-3.7905,-3.8133,-3.8446,-3.8684,-3.8957,-3.9242,0.0,0.0,0.0,0.0,0.0,-3.9799,-4.007,0.0,0.0,0.0,0.0,0.0,0.0,0.0,0.0,0.0,0.0,0.0,1.8124,1.7442,1.689,1.6403,1.5867,1.6272,1.6621,0.0,0.0,0.0,1.7527,1.7792,1.7917,1.7951,1.7554,1.7147,1.673,1.5643,1.4559,1.3561,1.2875,1.2112,1.1435,1.1435,1.1348,1.1262,1.1262,1.1262,1.1262,1.1262,1.1262,1.1262,1.1262,1.0824,0.9946,0.9327,0.8627,0.757,0.526,0.0,0.0,0.0,0.0,0.0,0.0,0.0,0.0,0.0,0.0,0.0,0.0,0.0,0.0,0.0,0.0,0.0,0.0,0.0,0.0,0.0,0.0,0.0,0.0,-2.8123,-2.9566,-2.9504,-2.903,-2.8725,-2.8597,-2.8546,-2.898,-3.0269,-3.045,-3.0807,-3.1455,-3.2184,-3.2916,-3.3574,0.0,0.0,0.0,0.0,-3.5733,-3.6305,-3.643,-3.7071,-3.8222,-3.7822,-3.801,-3.8629,-3.8108,-3.7978,-3.823,-3.8799,-3.9102,-3.9365,-3.985,-4.007,-4.007,-3.9523,-3.9644,-4.007,-4.007,-4.007,-4.007,0.0,0.0,0.0,0.0,0.0,0.0,0.0,0.0,0.0,2.0226,1.9507,1.8643,1.751,1.689,1.6403,1.5867,1.6272,1.6747,0.0,0.0,1.7765,1.7527,1.7535,1.7564,1.7546,1.7473,1.7147,1.673,1.5643,1.497,1.472,1.3724,1.2881,1.2198,1.2198,1.186,1.1262,1.1262,1.1262,1.1262,1.1262,1.1262,1.1262,1.1262,1.1176,1.0997,1.0463,1.0381,1.0294,0.8532,0.7555,0.6665,0.4625,0.0,0.0,0.0,0.0,0.0,0.0,0.0,0.0,0.0,0.0,0.0,0.0,0.0,0.0,0.0,0.0,0.0,0.0,0.0,0.0,-2.8133,-2.9482,-3.0133,-2.9566,-2.9827,-2.9903,-2.9393,-2.8839,-2.8776,-2.9642,-3.0208,-3.0802,-3.1448,-3.2598,-3.3589,-3.4247,-3.4936,-3.537,-3.5504,-3.5504,-3.5569,-3.5683,-3.6662,-3.7354,-3.7764,0.0,0.0,-3.9435,-3.9329,-3.9382,-3.954,-3.9661,-3.9816,-3.9918,-4.007,-4.007,-4.007,-3.9969,-4.002,-4.007,-4.007,-4.007,-4.007,0.0,0.0,0.0,0.0,0.0,0.0,0.0,0.0,0.0,0.0,2.0096,1.9243,1.7988,1.7579,1.7235,1.6621,1.683,0.0,0.0,1.7442,1.7471,1.7175,1.7372,1.7567,1.7708,1.731,1.7066,1.7066,1.5824,1.5235,1.5054,1.4307,1.3385,1.2363,1.2363,1.2026,1.1262,1.1262,1.1262,1.1262,1.1262,1.1262,1.1262,1.1262,1.1262,1.1262,1.0727,1.0727,1.0733,0.9327,0.8619,0.7998,0.5963,0.4636,0.3393,0.0,0.0,0.0,0.0,0.0,0.0,0.0,0.0,0.0,0.0,0.0,0.0,0.0,0.0,-2.1847,-2.3541,0.0,-2.705,-2.8969,-2.9983,-3.0389,-3.0072,-3.0269,-3.0147,-2.9156,-2.9282,-2.9642,-2.995,-3.0935,-3.1648,-3.1972,-3.3225,-3.4128,-3.4457,-3.513,-3.5504,-3.5504,-3.5504,-3.5619,-3.5973,-3.6646,-3.7338,-3.8051,-3.8739,-3.9329,-3.9781,-3.9781,-3.9884,-3.9986,-3.9986,-4.0037,-4.007,-4.007,-4.007,-4.007,-4.007,-4.007,-4.007,-4.007,-4.007,-4.007,0.0,0.0,0.0,0.0,0.0,0.0,0.0,0.0,0.0,0.0,2.0613,1.9781,1.8472,1.8269,1.8066,0.0,0.0,0.0,0.0,1.7069,1.6852,1.679,1.7167,1.7456,1.751,1.7017,1.673,1.6894,1.5831,1.5166,1.497,1.4566,1.3639,1.2448,1.2448,1.2026,1.1262,1.1262,1.1262,1.1354,1.1435,1.1435,1.1348,1.1435,1.1435,1.1262,1.0727,1.0636,1.0549,0.9506,0.8978,0.8623,0.6861,0.5614,0.4277,0.2055,0.0357,0.0,0.0,0.0,0.0,0.0,0.0,0.0,0.0,-1.5569,-1.705,-1.9158,-2.1151,-2.2933,-2.4126,-2.6034,-2.7841,-2.924,-3.0072,-3.045,-3.0329,-3.0524,-3.0269,-2.903,-2.9842,-3.0524,-3.0703,-3.1797,-3.2557,-3.2691,-3.3799,-3.4532,-3.4666,-3.5205,-3.5504,-3.5504,-3.5619,-3.591,-3.6415,-3.6798,-3.7499,-3.8557,-3.8816,-3.9295,-3.9952,-3.9952,-3.9986,-4.007,-4.007,-4.007,-4.007,-4.007,-4.007,-4.007,-4.007,-4.007,-4.007,-4.007,-4.0138,-4.0138,0.0,0.0,0.0,0.0,0.0,0.0,0.0,0.0,0.0,0.0,0.0,0.0,0.0,0.0,0.0,0.0,0.0,0.0,1.6682,1.6254,1.6091,1.6379,1.6773,1.6611,1.5774,1.6385,1.6131,1.4985,1.4817,1.4741,1.4734,1.4328,1.3652,1.2705,1.2705,1.2198,1.1262,1.1262,1.1262,1.1348,1.2026,1.1854,1.1348,1.2026,1.1854,1.1262,1.0727,1.0901,1.1084,1.0212,0.9419,0.8715,0.7386,0.6245,0.483,0.2147,0.1253,0.0447,-0.2326,-0.5606,-0.8499,-0.9347,-1.1616,-1.4139,0.0,-1.7382,-1.8717,-2.1141,-2.3103,-2.485,-2.6425,-2.7617,-2.8583,-2.938,-3.0072,-3.0269,-2.969,-3.0644,-3.1087,-3.0329,-3.0404,-3.0718,-3.1351,-3.2064,-3.2766,-3.3335,-3.4068,-3.4741,-3.5355,-3.5459,-3.5504,-3.5504,-3.6022,-3.6415,-3.6554,-3.7732,-3.8486,-3.8854,-3.947,-3.9884,-4.0087,-4.0087,-4.0087,-4.007,-4.007,-4.007,-4.007,-4.007,-4.007,-4.007,-4.007,-4.007,-4.007,-4.007,-4.0188,-4.0305,0.0,0.0,0.0,0.0,0.0,0.0,0.0,0.0,0.0,0.0,0.0,0.0,0.0,0.0,0.0,0.0,0.0,0.0,1.7097,1.6281,1.5745,1.5651,1.5741,1.5534,1.4962,1.5102,1.5018,1.4713,1.4314,1.4146,1.43,1.3899,1.3307,1.2534,1.2534,1.2112,1.1262,1.1262,1.1262,1.1348,1.1602,1.1607,1.1348,1.1602,1.1602,1.1262,1.1084,1.0992,0.0,0.0,1.0381,0.9676,0.8532,0.7119,0.5432,0.2857,0.1342,-0.0268,-0.4265,-0.6913,-0.8852,-1.0159,-1.2163,-1.3971,-1.4996,-1.6635,-1.8497,-2.07,-2.2446,-2.4146,-2.5742,-2.6718,-2.767,-2.8712,-2.9456,-2.995,-3.0072,-3.0896,-3.1409,-3.1087,-3.1087,-3.1367,-3.2004,-3.2706,-3.3365,-3.4023,-3.4696,-3.519,-3.5489,-3.5504,-3.5683,-3.6022,-3.6352,-3.6919,-3.7674,-3.8414,-3.8995,-3.947,-3.9867,-4.0037,-4.007,-4.007,-4.007,-4.007,-4.007,-4.007,-4.007,-4.007,-4.007,-4.007,-4.007,-4.007,-4.007,-4.007,-4.0188,-4.0305,0.0,0.0,0.0,0.0,0.0,0.0,0.0,0.0,0.0,0.0,0.0,0.0,0.0,0.0,0.0,0.0,0.0,0.0,0.0,1.6281,1.5703,1.5365,1.5094,1.4835,1.4446,1.4079,1.3954,1.3998,1.351,1.3385,1.3457,1.3137,1.2717,1.2198,1.2198,1.186,1.1262,1.1262,1.1262,1.1348,1.1521,1.1521,1.1348,1.1521,1.1521,1.1262,1.1262,1.0992,0.0,0.0,1.0467,0.9763,0.854,0.7021,0.5242,0.2856,0.0984,-0.1163,-0.497,-0.6825,-0.8237,-1.025,-1.2248,-1.3704,-1.4343,-1.616,-1.8204,-1.9953,-2.1628,-2.3283,-2.5004,-2.5931,-2.6879,-2.8274,-2.9079,-2.9752,-3.0389,-3.1087,-3.1482,-3.1482,-3.1482,-3.1869,-3.2706,-3.3215,-3.3769,-3.4427,-3.5292,-3.5733,-3.5733,-3.591,-3.6196,-3.6662,-3.698,-3.76,-3.8557,-3.8995,-3.9454,-3.9952,-4.0037,-4.007,-4.007,-4.007,-4.007,-4.007,-4.007,-4.007,-4.007,-4.007,-4.007,-4.007,-4.007,-4.007,-4.0121,-4.0138,-4.0238,-4.0355,0.0,0.0,0.0,0.0,0.0,0.0,0.0,0.0,0.0,0.0,0.0,0.0,0.0,0.0,0.0,0.0,0.0,0.0,0.0,1.614,1.5805,1.5743,1.5414,1.4777,1.396,1.3798,1.3136,1.2076,1.2324,1.2283,1.2043,1.2043,1.1957,1.1699,1.1699,1.1527,1.1262,1.1262,1.1262,1.1348,1.2112,1.194,1.1348,1.2112,1.194,1.1262,1.1262,0.0,0.0,0.0,0.9161,0.8021,0.6871,0.5356,0.0,0.1967,0.009,0.0,-0.2688,-0.437,-0.6389,-0.8905,-1.1412,-1.3749,-1.5304,-1.6862,-1.8399,-1.9659,-2.1171,-2.2955,-2.4921,-2.5931,-2.6879,-2.8274,-2.9079,-2.9752,-3.0389,-3.1087,-3.1482,-3.1482,-3.1482,-3.2048,-3.3335,-3.3484,-3.3769,-3.4427,-3.5689,-3.6368,-3.6368,-3.7011,-3.737,-3.737,-3.8051,-3.8541,-3.869,-3.947,-3.9935,-4.007,-4.007,-4.007,-4.007,-4.007,-4.007,-4.007,-4.007,-4.007,-4.007,-4.007,-4.007,-4.007,-4.007,-4.007,-4.0138,-4.0238,-4.0387,-4.0468,0.0,0.0,0.0,0.0,0.0,0.0,0.0,0.0,0.0,0.0,0.0,0.0,0.0,0.0,0.0,0.0,0.0,0.0,0.0,1.6281,1.5576,1.5054,1.4294,1.3563,1.2864,1.2311,1.1878,1.1485,1.1732,1.1775,1.1534,1.153,1.1521,1.1435,1.1613,1.1613,1.1613,1.1613,1.1613,1.1613,1.1602,1.1521,1.1348,1.1607,1.1521,1.1176,0.0,0.0,0.0,0.0,0.0,0.0,0.7757,0.0,0.3831,0.1253,0.0,-0.1075,-0.4013,-0.5252,-0.648,-0.9894,-1.1632,-1.2917,-1.4139,-1.5718,-1.7269,-1.8364,-1.9621,-2.1181,-2.3283,-2.4457,-2.5636,-2.7326,-2.8643,-2.9752,-3.0389,-3.1087,-3.1482,-3.1482,-3.1482,-3.2048,-3.3365,-3.3499,-3.3963,-3.507,-3.5948,-3.643,-3.643,-3.7011,-3.7648,-3.8108,-3.843,-3.8887,-3.947,-3.9867,-4.0037,-4.007,-4.007,-4.007,-4.007,-4.007,-4.007,-4.007,-4.007,-4.007,-4.007,-4.007,-4.007,-4.007,-4.007,-4.0138,-4.0238,-4.0288,-4.0453,-4.0648,0.0,0.0,0.0,0.0,0.0,0.0,0.0,0.0,0.0,0.0,0.0,0.0,0.0,0.0,0.0,0.0,0.0,0.0,0.0,0.0,1.5542,1.4752,1.352,1.2674,1.2339,1.1627,1.1222,1.1067,1.1148,1.1227,1.1316,1.0624,1.057,1.1084,1.1084,1.1084,1.1257,1.144,1.1563,1.1401,1.1316,1.13,1.1145,1.088,1.0824,0.0,0.0,0.0,0.0,0.0,0.0,0.0,0.0,0.0,0.2942,0.0269,-0.0538,-0.1164,-0.4368,-0.5166,-0.6048,-0.9483,-1.1042,-1.206,-1.3027,-1.4636,-1.6296,-1.7471,-1.8364,-1.9631,-2.2221,-2.347,-2.4803,-2.6806,-2.8244,-2.9456,-3.0389,-3.0896,-3.1219,-3.1467,-3.1482,-3.2048,-3.3365,-3.3713,-3.4394,-3.5691,-3.6368,-3.6829,-3.7071,-3.7722,-3.8311,-3.8827,-3.8957,-3.9348,-3.9901,-4.0037,-4.007,-4.007,-4.007,-4.0171,-4.0353,-4.0353,-4.0434,-4.0611,-4.0611,-4.0611,-4.0611,-4.0434,-4.0353,-4.0353,-4.0368,-4.0353,-4.0355,-4.0549,-4.0662,-4.0697,0.0,0.0,0.0,0.0,0.0,0.0,0.0,0.0,0.0,0.0,0.0,0.0,0.0,0.0,0.0,0.0,0.0,0.0,0.0,0.0,0.0,1.4895,1.3237,1.2372,1.2305,1.1752,1.12,1.0812,1.0492,1.0637,1.1194,0.9517,0.937,1.0514,1.0096,1.0014,1.0279,1.0906,1.1043,1.0936,1.1086,1.1038,1.0774,1.0129,0.0,0.0,0.0,0.0,0.0,0.0,0.6517,0.5282,0.5193,0.3489,0.1074,-0.0807,-0.1345,-0.1792,-0.3666,-0.4289,-0.4996,-0.7742,-0.9648,-1.1016,-1.2066,-1.362,-1.5394,-1.6903,-1.739,-1.8488,-2.1587,-2.2985,-2.4389,-2.6726,-2.788,-2.903,-3.0329,-3.0524,-3.0777,-3.1409,-3.1482,-3.2033,-3.3381,-3.4013,-3.4981,-3.6338,0.0,-3.7706,-3.8278,-3.8952,-3.9379,-3.9501,-3.9625,-3.9781,-3.9901,-4.0087,-4.0121,-4.0121,-4.0171,-4.0385,-4.0849,-4.0849,-4.1111,-4.1481,-4.1481,-4.1481,-4.1481,-4.1019,-4.0849,-4.0832,-4.0938,-4.072,-4.0468,-4.1094,-4.1082,-4.0793,0.0,0.0,0.0,0.0,0.0,0.0,0.0,0.0,0.0,0.0,0.0,0.0,0.0,0.0,0.0,0.0,0.0,0.0,0.0,0.0,0.0,0.0,0.0,0.0,0.0,0.0,0.0,1.0166,1.0089,1.0153,1.0296,0.9897,0.9833,1.0145,0.9728,0.9455,0.9365,0.9607,0.9643,0.9429,0.0,0.9213,0.9087,0.0,0.0,0.0,0.0,0.0,0.0,0.7126,0.5885,0.402,0.2772,0.1968,0.1164,-0.0,-0.0359,-0.0807,-0.2686,-0.3757,-0.4819,-0.6936,-0.8257,-0.9575,-1.1402,-1.2425,-1.36,-1.5681,-1.6445,-1.7496,-2.0022,-2.1868,-2.3864,-2.6367,-2.8204,-2.9704,-3.1029,-3.1219,-3.1278,-3.1467,-3.1482,-3.2028,-3.3295,-3.4032,0.0,0.0,-3.7648,-3.8108,-3.8278,-3.8952,-3.9432,-3.9625,-3.9677,-3.9833,-4.0037,-4.0434,-4.0628,-4.0628,-4.0972,-4.123,-4.1303,-4.1303,-4.1393,-4.1481,-4.1481,-4.1481,-4.1481,-4.1348,-4.1366,-4.1472,-4.1499,-4.1525,-4.1613,-4.1768,-4.1846,-4.1839,0.0,0.0,0.0,0.0,0.0,0.0,0.0,0.0,0.0,0.0,0.0,0.0,0.0,0.0,0.0,0.0,0.0,0.0,0.0,0.0,0.0,0.0,0.0,0.0,0.0,0.0,0.0,0.0,0.0,0.0,0.9488,0.8644,0.8671,0.9433,0.8879,0.8158,0.7381,0.7727,0.0,0.0,0.0,0.0,0.0,0.0,0.0,0.0,0.0,0.0,0.3737,0.3466,0.3117,0.2592,0.1253,0.0806,0.0537,-0.0896,-0.1254,-0.1702,-0.3578,-0.4469,-0.5267,-0.677,-0.8177,-0.9666,-1.1042,-1.2328,-1.3691,-1.5379,-1.637,-1.7496,-1.9423,-2.1912,-2.4259,-2.6108,-2.8126,-2.9889,-3.0896,-3.1087,-3.1161,-3.1467,-3.1739,-3.2281,-3.328,-3.4216,-3.5403,-3.7051,-3.789,-3.8407,-3.8717,-3.9094,-3.9415,-3.9677,-3.9677,-3.9918,-4.0385,-4.0659,-4.0879,-4.1094,-4.1348,-4.1613,-4.1803,-4.1803,-4.1931,-4.2098,0.0,-4.2098,-4.2098,-4.1888,-4.1906,-4.2008,-4.2015,-4.2038,-4.2021,-4.2302,-4.232,-4.2198,0.0,0.0,0.0,0.0,0.0,0.0,0.0,0.0,0.0,0.0,2.3053,0.0,0.0,0.0,0.0,0.0,0.0,0.0,0.0,0.0,0.0,0.0,0.0,0.0,0.0,0.0,0.0,0.0,0.0,0.0,0.0,0.0,0.0,0.0,0.0,0.0,0.0,0.0,0.0,0.0,0.0,0.0,0.0,0.0,0.0,0.0,0.0,0.0,0.0,-0.0982,-0.0447,0.0626,-0.0269,-0.0537,-0.0896,-0.2597,-0.3045,-0.3403,-0.5095,-0.5716,-0.6071,-0.6868,-0.8703,-1.0438,-1.1016,-1.2656,-1.4475,-1.5567,-1.6764,-1.8043,-1.958,-2.2466,-2.4953,-2.609,-2.8074,-2.9766,-3.0524,-3.0703,-3.094,-3.1582,-3.212,-3.2779,-3.3423,-3.4478,-3.5639,-3.6924,-3.7725,-3.8466,-3.9255,-3.9272,-3.9468,-3.9764,-3.9816,-4.0187,-4.0896,-4.0926,-4.1185,-4.1569,-4.1656,-4.1888,-4.2279,-4.2279,-4.2498,-4.2882,-4.2882,-4.2882,-4.2882,-4.2458,-4.2378,-4.2498,-4.2559,-4.2444,-4.2244,-4.2788,-4.2711,-4.236,0.0,0.0,0.0,0.0,0.0,0.0,0.0,0.0,0.0,0.0,2.3569,2.339,0.0,0.0,0.0,0.0,0.0,0.0,0.0,0.0,0.0,0.0,0.0,0.0,0.0,0.0,0.0,0.0,0.0,0.0,0.0,0.0,0.0,0.0,0.0,0.0,0.0,0.0,0.0,0.0,0.0,0.0,0.0,0.0,0.0,0.0,0.0,0.0,0.0,0.0,-0.1695,-0.2319,-0.3215,-0.3573,-0.3664,-0.3933,-0.4022,-0.4111,-0.4467,-0.5703,-0.6933,-0.7024,-0.8515,-1.0351,-1.198,-1.2498,-1.3432,-1.5974,-1.6935,-1.8098,-2.0623,-2.2594,-2.472,-2.7275,-2.8743,-2.995,-3.1161,-3.1781,-3.2104,-3.2231,-3.2749,-3.3314,-3.389,-3.4678,-3.5389,0.0,-3.6884,-3.7892,-3.9206,-3.9272,-3.9609,-4.0269,-4.0514,-4.0879,-4.1348,-4.176,-4.199,-4.2074,-4.2458,-4.2711,-4.2768,-4.2768,-4.2844,-4.2882,-4.2882,0.0,-4.2882,-4.2806,-4.2882,-4.305,-4.3069,-4.3142,-4.3232,-4.3375,-4.3321,-4.3286,0.0,0.0,0.0,0.0,0.0,0.0,0.0,2.6014,2.5522,2.4664,2.3865,2.3463,2.37,2.2628,2.1865,0.0,0.0,0.0,0.0,0.0,0.0,0.0,0.0,0.0,0.0,0.0,0.0,0.0,0.0,0.0,0.0,0.0,0.0,0.0,0.0,0.0,0.0,0.0,0.0,0.0,0.0,0.0,0.0,0.0,0.0,0.0,0.0,0.0,0.0,0.0,-0.4905,-0.4819,-0.4465,-0.4289,-0.4378,-0.4914,-0.5351,-0.5877,-0.6325,-0.7464,-0.8599,-0.8599,-0.999,-1.1638,-1.2747,-1.3995,-1.5335,-1.7025,-1.8665,-2.011,-2.1445,-2.3704,-2.5827,-2.734,-2.9157,-3.0571,-3.1319,-3.2226,-3.2788,-3.2788,-3.3319,-3.3764,-3.4101,-3.4643,-3.5268,-3.5976,-3.634,-3.7003,-3.8096,-3.8874,-3.9713,-4.0672,-4.1019,-4.141,-4.1846,-4.2074,-4.2338,-4.2595,-4.2806,-4.2882,-4.2882,-4.2882,-4.2882,-4.2882,-4.2882,-4.2882,-4.2882,-4.2882,-4.2975,-4.316,-4.3178,-4.3286,-4.3446,-4.3497,-4.3497,-4.3497,0.0,0.0,0.0,0.0,0.0,0.0,0.0,2.6283,2.5797,2.5216,2.4247,2.3556,2.3556,2.2567,2.1815,0.0,0.0,0.0,0.0,0.0,0.0,0.0,0.0,0.0,0.0,0.0,0.0,0.0,0.0,0.0,0.0,0.0,0.0,0.0,0.0,0.0,0.0,0.0,0.0,0.0,0.0,0.0,0.0,0.0,0.0,0.0,0.0,0.0,-0.779,0.0,-0.7507,-0.6877,-0.5708,-0.5262,-0.5354,-0.6068,-0.6943,-0.7899,-0.8619,-0.9579,-1.0438,-1.0438,-1.1815,-1.3269,-1.3911,-1.5749,-1.7496,-1.8452,-2.0459,-2.22,-2.2774,-2.5073,-2.7072,-2.767,-2.9543,-3.1101,-3.1562,-3.2524,-3.3251,-3.3355,-3.3917,-3.43,-3.4382,-3.4787,-3.5274,-3.5935,-3.5985,-3.6369,-3.7236,-3.8489,-3.9617,-4.068,-4.099,-4.135,-4.1819,-4.1837,-4.2034,-4.2375,-4.2375,-4.2375,-4.2375,-4.2449,-4.2449,-4.2375,-4.2449,-4.2449,-4.2375,-4.2375,-4.2468,-4.2577,-4.2632,-4.2758,-4.2898,-4.2949,-4.3094,-4.3222,0.0,0.0,0.0,0.0,0.0,0.0,0.0,2.6669,2.6404,2.5783,2.4768,2.4137,2.4137,2.2774,2.1616,0.0,0.0,0.0,0.0,0.0,0.0,0.0,0.0,0.0,0.0,0.0,0.0,0.0,0.0,0.0,0.0,0.0,0.0,0.0,0.0,0.0,0.0,0.0,0.0,0.0,0.0,0.0,0.0,0.0,0.0,0.0,0.0,-0.7591,-0.8316,-0.7489,-0.7573,-0.8109,-0.8619,-0.8444,-0.8097,-0.8189,-0.8882,-0.9657,-0.9749,-1.0864,-1.2066,-1.2066,-1.3275,-1.4887,-1.6339,-1.683,-1.7713,-2.0314,-2.1466,-2.2774,-2.5189,-2.6357,-2.7604,-2.9656,-3.0237,-3.0822,-3.216,-3.2841,-3.3407,-3.3933,-3.4497,-3.493,-3.5241,-3.5333,-3.5532,-3.5878,-3.5922,-3.6463,-3.7767,-3.8351,-3.8981,-3.9722,-3.9882,-4.0173,-4.0655,-4.0655,-4.0691,-4.0727,-4.0727,-4.0727,-4.0727,-4.0974,-4.0939,-4.0727,-4.0974,-4.0957,0.0,-4.0727,-4.0781,-4.0906,-4.0941,-4.1063,-4.1217,-4.1251,-4.1724,-4.2415,0.0,0.0,0.0,0.0,0.0,0.0,2.6788,2.6683,2.6457,2.5783,2.4614,2.3735,2.3382,2.2335,2.1565,2.1479,0.0,0.0,0.0,0.0,0.0,0.0,0.0,0.0,0.0,0.0,0.0,0.6412,0.0,0.0,0.0,0.0,0.0,0.0,0.0,0.0,0.0,0.0,0.0,0.0,0.0,0.0,0.0,0.0,0.0,0.0,0.0,0.0,-1.0366,-1.0082,-1.0077,-1.0168,-1.0509,-1.1021,-1.1107,-0.9744,-1.0265,-1.1381,-1.1381,-1.2498,-1.3704,-1.3704,-1.4949,-1.6347,-1.7438,-1.8788,-2.0275,-2.1824,-2.3436,-2.4944,-2.5946,-2.7206,-2.8363,-2.9331,-3.024,-3.1101,-3.2124,-3.313,-3.4002,-3.4802,-3.5055,-3.5333,-3.5661,-3.5705,-3.5749,-3.5907,-3.6139,-3.6542,-3.7214,-3.7962,-3.8871,-3.9938,-4.0145,-4.0311,-4.051,-4.051,-4.0581,-4.0721,-4.0721,-4.0805,-4.0936,-4.1034,-4.1001,-4.0936,-4.1034,-4.1001,0.0,-4.0936,-4.0936,-4.102,-4.1089,-4.1172,-4.1254,-4.119,-4.1425,-4.1701,0.0,0.0,0.0,0.0,0.0,2.7473,2.7049,2.6587,2.6187,2.5755,2.4288,2.3179,2.2832,2.1916,2.1325,2.1376,2.0613,0.0,0.0,0.0,0.0,0.0,0.0,0.0,0.0,0.0,0.6865,0.6254,0.5004,0.4144,0.0,0.0,0.0,0.0,0.0,0.0,0.0,0.0,0.0,0.0,0.0,0.0,0.0,0.0,0.0,0.0,0.0,0.0,0.0,0.0,0.0,-1.1878,-1.2219,0.0,0.0,-1.145,-1.1889,-1.3014,-1.3014,-1.3951,-1.4985,-1.4985,-1.6347,-1.7857,-1.8691,-2.0678,-2.2742,-2.3788,-2.5493,-2.6899,-2.7313,-2.8502,-2.9552,-2.9846,-3.0896,-3.1926,-3.264,-3.3511,-3.4431,-3.5287,-3.5424,-3.5588,-3.6011,-3.6182,-3.6224,-3.6224,-3.6509,-3.6771,-3.7073,-3.7721,-3.8518,-3.948,-3.9733,-3.9839,-3.9908,-3.9977,-4.0112,-4.0327,-4.0327,-4.0386,-4.0505,-4.0566,-4.0566,-4.0505,-4.0596,-4.0566,0.0,-4.0505,-4.0505,-4.0523,-4.0621,-4.0651,-4.0681,-4.0621,-4.0818,-4.1051,0.0,0.0,0.0,0.0,0.0,0.0,2.7575,2.6395,2.5656,2.5955,2.3832,2.2469,2.2772,2.1854,2.0892,2.0172,2.0096,0.0,0.0,0.0,0.0,0.0,0.0,0.0,0.0,0.0,0.624,0.6163,0.4144,0.3132,0.3054,0.1884,0.1335,0.0,0.0,0.0,0.0,0.0,0.0,0.0,0.0,0.0,0.0,0.0,0.0,0.0,0.0,0.0,0.0,0.0,0.0,0.0,0.0,0.0,0.0,0.0,-1.3944,-1.465,-1.465,-1.5151,-1.565,-1.565,-1.7471,-1.9427,-2.0198,-2.2274,-2.4578,-2.6195,-2.7181,-2.8214,-2.9676,-3.0437,-3.1129,-3.1946,-3.2555,-3.3214,-3.3984,-3.4101,-3.4431,-3.5287,-3.5424,-3.5694,-3.6402,-3.6771,-3.6987,-3.6987,-3.697,0.0,-3.7756,-3.7792,-3.7828,-3.7917,-3.8104,-3.8318,-3.8528,-3.8792,-3.8929,-3.8929,-3.8929,-3.8929,-3.8929,-3.9138,-3.911,-3.891,-3.912,-3.911,0.0,-3.8929,-3.8929,-3.8929,-3.8929,-3.8968,-3.9007,-3.9007,-3.9649,-4.0522,0.0,0.0,0.0,0.0,0.0,0.0,0.0,2.613,2.5562,2.4856,2.3344,2.2274,2.2274,2.2053,2.133,1.9922,1.9518,0.0,0.0,0.0,0.0,0.0,0.0,0.0,0.0,0.0,0.5143,0.5143,0.2891,0.2113,0.266,0.1724,0.1412,0.1648,0.0626,0.0,0.0,0.0,0.0,0.0,0.0,0.0,0.0,0.0,0.0,0.0,0.0,0.0,0.0,0.0,0.0,0.0,0.0,0.0,0.0,-1.825,-1.802,-1.7869,-1.7869,-1.8822,-1.9771,-1.9771,-2.1106,-2.2655,-2.3458,-2.5241,-2.7104,-2.8379,-2.9445,-3.038,-3.1055,-3.1784,-3.2415,-3.2664,-3.3151,-3.3703,-3.4366,-3.464,-3.5111,-3.6045,-3.6343,-3.6696,-3.715,-3.7264,-3.745,-3.7721,-3.7756,-3.7827,-3.8,-3.8,-3.8153,-3.8437,-3.8446,-3.8554,-3.8713,-3.8773,-3.8921,-3.912,-3.912,-3.9202,-3.938,-3.9432,-3.9432,-3.938,-3.9432,-3.9432,-3.938,-3.938,-3.938,-3.938,-3.938,-3.938,-3.9388,-3.9264,-3.9447,-3.9802,0.0,0.0,0.0,0.0,0.0,0.0,0.0,2.613,2.5616,2.4968,2.3742,2.2735,2.2335,2.2396,2.1732,1.9977,1.9584,0.0,0.0,0.0,0.0,0.0,0.0,0.0,0.6063,0.4663,0.373,0.3265,0.1248,0.0782,0.1643,0.1176,0.102,0.1255,0.0,-0.1016,0.0,0.0,0.0,0.0,0.0,0.0,-0.9943,0.0,0.0,0.0,0.0,0.0,0.0,0.0,0.0,0.0,0.0,0.0,0.0,0.0,-2.1384,-2.1549,-2.0837,-2.1302,-2.2062,-2.2338,-2.3667,-2.5147,-2.5654,-2.7536,-2.9369,-3.0036,-3.0968,-3.1773,-3.1911,-3.2763,-3.3443,-3.3443,-3.4054,-3.47,-3.5227,-3.5497,-3.5934,-3.6786,-3.7188,-3.7504,0.0,-3.7739,-3.7844,-3.8068,-3.8101,-3.8168,-3.8281,-3.8281,-3.846,-3.8851,-3.8707,-3.8707,-3.8862,-3.8997,-3.9166,-3.9309,-3.9335,-3.9432,-3.9602,-3.9602,-3.9602,-3.9602,-3.9602,-3.9602,0.0,-3.9602,-3.9602,-3.9602,-3.9602,-3.9602,-3.9577,-3.9464,-3.9521,-3.9647,0.0,0.0,0.0,0.0,0.0,0.0,0.0,2.6395,2.5602,2.5847,2.4689,2.3554,2.288,2.2772,2.2103,2.0344,0.0,0.0,0.0,0.0,0.0,0.0,0.0,0.0,0.4176,0.3018,0.1937,0.0699,-0.07,-0.0859,0.0157,0.0157,0.0236,0.0235,-0.0704,-0.1484,0.0,0.0,0.0,0.0,0.0,0.0,0.0,0.0,0.0,0.0,0.0,0.0,0.0,0.0,0.0,0.0,0.0,0.0,0.0,0.0,0.0,0.0,0.0,-2.3006,-2.3151,-2.386,-2.5506,-2.704,-2.7092,-2.9256,0.0,-3.123,-3.1931,-3.2492,-3.2547,-3.3495,-3.4235,-3.4284,-3.5232,-3.6062,-3.647,-3.6574,-3.6833,-3.7471,-3.7859,-3.8101,-3.8135,-3.8135,-3.8135,-3.8168,-3.8168,-3.8314,-3.8609,-3.8658,-3.8778,-3.9101,-3.8865,-3.8836,-3.9017,-3.9328,-3.9495,-3.9495,-3.9571,-3.9602,-3.9602,-3.9602,-3.9602,0.0,-3.9602,-3.9602,-3.9602,-3.9602,-3.9602,-3.9602,-3.9602,-3.9602,-3.9602,-3.9602,-3.9727,-3.9889,0.0,0.0,0.0,0.0,0.0,0.0,0.0,0.0,0.0,0.0,2.38,2.3,2.2832,2.2772,2.2311,0.0,0.0,0.0,0.0,0.0,0.0,0.0,0.0,0.0,0.4101,0.1005,-0.0697,-0.1007,-0.2492,-0.2421,-0.0938,-0.0939,-0.0704,-0.0469,-0.195,-0.3891,0.0,0.0,0.0,0.0,0.0,0.0,0.0,0.0,0.0,0.0,-1.5173,-1.5816,0.0,0.0,0.0,0.0,0.0,0.0,0.0,0.0,-2.58,-2.7124,-2.7696,0.0,-2.6549,-2.7328,-2.8302,-2.9149,0.0,0.0,0.0,0.0,0.0,-3.3575,-3.4218,-3.4561,-3.4849,-3.5224,-3.5793,-3.6333,-3.6671,-3.7305,0.0,-3.7946,-3.805,-3.8183,-3.8473,-3.8486,-3.8597,-3.8855,-3.8865,-3.8913,-3.897,-3.897,-3.9027,-3.9101,-3.9027,-3.9055,-3.9156,-3.9328,-3.9444,-3.9495,-3.9571,-3.9602,-3.9602,-3.9602,-3.9602,-3.9602,-3.9602,-3.9602,-3.9602,-3.9602,-3.9602,-3.9602,-3.9602,-3.9602,-3.9602,-3.9602,-3.9727,-3.9889,0.0,0.0,0.0,0.0,0.0,0.0,0.0,0.0,0.0,0.0,0.0,2.3344,2.2832,2.2772,0.0,0.0,0.0,0.0,0.0,0.0,0.0,0.0,0.0,0.309,0.1003,-0.1159,-0.2557,-0.3188,-0.4516,-0.4441,-0.3115,-0.3343,-0.3108,-0.2491,-0.3426,-0.5289,-0.7799,0.0,0.0,0.0,-1.0757,0.0,0.0,0.0,0.0,0.0,-1.6296,-1.7163,0.0,-1.9025,-2.0507,-2.2136,0.0,0.0,0.0,0.0,-2.7124,-2.8325,-2.8989,-2.8812,-2.8698,-2.9785,-3.0511,-3.1042,-3.1577,0.0,0.0,0.0,0.0,-3.4084,-3.4723,-3.5266,-3.561,-3.5705,-3.6522,-3.7228,-3.756,-3.808,-3.8478,-3.8491,-3.8523,-3.8585,0.0,-3.8836,-3.8894,-3.9101,-3.9219,-3.9272,-3.9272,-3.9364,-3.9421,-3.9421,-3.9421,-3.9389,-3.9324,-3.9439,-3.9564,-3.9735,-3.9804,-3.98,-3.975,-3.975,-3.9679,-3.9602,-3.9602,-3.9602,-3.9602,-3.9602,-3.9602,-3.9602,-3.9602,-3.9602,-3.9602,-3.9602,-3.9679,-3.9826,0.0,0.0,0.0,0.0,0.0,0.0,0.0,0.0,0.0,0.0,0.0,0.0,0.0,0.0,0.0,0.0,0.0,0.0,0.0,0.0,0.0,0.0,0.316,0.1309,-0.309,-0.3554,-0.4264,-0.5389,-0.6384,-0.6377,-0.5446,-0.5886,-0.5806,-0.52,-0.5363,-0.6538,-0.8453,-0.8983,-1.0217,-1.1837,-1.2571,0.0,0.0,0.0,0.0,0.0,0.0,0.0,0.0,-2.0988,-2.235,-2.3677,-2.4945,0.0,0.0,0.0,0.0,0.0,-2.915,-2.9558,-3.0288,-3.1465,-3.2048,-3.2437,-3.2749,0.0,0.0,0.0,0.0,-3.4366,-3.4941,-3.5718,-3.6253,-3.6155,-3.7268,0.0,-3.8535,-3.8785,-3.895,-3.8979,-3.9007,0.0,-3.9129,-3.9156,-3.9156,-3.9192,-3.9383,-3.9532,-3.9532,-3.9683,-3.9816,-3.9816,-3.9797,-3.975,-3.9604,-3.9628,-3.9766,-4.0002,-4.0042,-4.0001,-3.9892,-3.9892,-3.9777,-3.9602,0.0,0.0,-3.9602,-3.9602,-3.9602,-3.9602,-3.9602,-3.9602,-3.9602,-3.9602,-3.9637,-3.9717,0.0,0.0,0.0,0.0,0.0,0.0,0.0,0.0,0.0,0.0,0.0,0.0,0.0,0.0,0.0,0.0,0.0,0.0,0.0,0.0,0.0,-0.3589,-0.1299,-0.1452,-0.4825,-0.619,-0.6927,-0.7096,-0.7326,-0.693,-0.6066,-0.6824,-0.7198,-0.7275,-0.821,-0.9005,-0.9818,-1.0931,-1.2135,-1.3446,-1.4434,0.0,0.0,0.0,0.0,0.0,0.0,0.0,0.0,-2.2572,-2.4149,-2.5938,-2.6526,0.0,0.0,0.0,0.0,0.0,-3.0911,-3.1764,-3.2369,-3.1942,-3.1946,-3.2336,-3.3559,0.0,0.0,0.0,0.0,0.0,0.0,-3.5908,-3.6121,0.0,0.0,-3.8418,0.0,0.0,-3.9045,-3.9026,0.0,-3.9129,-3.9245,-3.9324,-3.9427,-3.9599,-3.9647,-3.967,-3.967,-3.9762,-3.9807,-3.9807,-3.9794,-3.9901,-4.0081,-3.9941,-3.9859,-3.9922,-3.9963,-3.996,-3.9826,-3.9826,-3.9731,-3.9602,0.0,-3.9602,-3.9602,-3.9602,-3.9602,-3.9602,-3.9602,-3.9602,-3.9602,-3.9602,-3.9637,-3.9717,0.0,0.0,0.0,0.0,0.0,0.0,0.0,0.0,0.0,0.0,0.0,0.0,0.0,0.0,0.0,0.0,0.0,0.0,0.0,0.0,-0.1595,-0.5796,-0.5292,-0.5891,-0.816,-0.8905,-0.9246,-0.9246,-0.9697,-0.9331,-0.8219,-0.9316,-0.9536,-0.911,-1.0071,-1.0598,-1.0801,-1.2349,-1.3736,-1.5028,0.0,0.0,0.0,0.0,0.0,0.0,0.0,0.0,0.0,0.0,-2.5496,-2.6976,-2.7591,0.0,0.0,0.0,0.0,0.0,-3.2219,-3.3035,-3.3673,-3.359,-3.381,-3.4216,-3.4808,0.0,0.0,0.0,0.0,0.0,0.0,0.0,-3.7106,-3.8426,0.0,-3.8897,-3.9181,-3.9313,-3.9389,0.0,0.0,-3.9452,-3.9508,-3.9551,-3.9599,-3.9693,-3.981,-3.9857,-3.9857,-4.002,-4.0139,-4.0177,-4.0196,-4.0233,-4.0356,-4.0267,-4.025,-4.0267,-4.0321,-4.0232,-4.0062,-4.0001,-3.9851,-3.9684,0.0,-3.9602,-3.9602,-3.9602,-3.9602,-3.9602,-3.9602,-3.9602,-3.9602,-3.9602,-3.9637,-3.9717,0.0,0.0,0.0,0.0,0.0,0.0,0.0,0.0,0.0,0.0,0.0,0.0,0.0,0.0,0.0,0.0,0.0,0.0,0.0,-0.1593,-0.4468,-0.7904,-0.9049,-1.0115,-1.1218,-1.1426,-1.1273,-1.0991,-1.1598,-1.1483,-1.0645,-1.1998,-1.2204,-1.1354,-1.1972,-1.233,-1.2639,-1.4,-1.5428,-1.6826,0.0,0.0,0.0,0.0,0.0,0.0,0.0,0.0,0.0,0.0,0.0,0.0,0.0,0.0,0.0,-3.1372,-3.2307,-3.3072,-3.3383,-3.4203,-3.5027,-3.5406,-3.5504,0.0,0.0,0.0,0.0,0.0,0.0,0.0,0.0,-3.743,0.0,-3.9283,-3.9389,-3.9376,-3.9537,-3.9614,-3.966,-3.9651,-3.9693,-3.9717,-3.9739,-3.9762,-3.9785,-3.9848,-3.9979,-4.0061,-4.0061,-4.0252,-4.0396,-4.0449,-4.0466,-4.0482,-4.0492,-4.0492,-4.0543,-4.0573,-4.0573,-4.0473,-4.0283,-4.0139,-3.9981,-3.9781,-3.9656,-3.9602,-3.9602,-3.9602,-3.9602,-3.9602,-3.9602,-3.9602,-3.9602,-3.9602,-3.9637,-3.9693,0.0,0.0,0.0,0.0,0.0,0.0,0.0,0.0,0.0,0.0,0.0,0.0,0.0,0.0,0.0,0.0,0.0,0.0,0.0,-0.6009,-0.8123,-1.2417,-1.2715,-1.2795,-1.2889,-1.341,-1.3028,-1.1819,-1.1898,-1.2204,-1.2896,-1.4244,-1.4822,-1.4751,-1.4275,-1.487,-1.6154,-1.6598,-1.7655,-1.9131,-2.006,0.0,0.0,0.0,0.0,0.0,0.0,0.0,0.0,0.0,0.0,0.0,0.0,0.0,-3.2501,-3.2716,-3.359,-3.4459,-3.4541,-3.5737,-3.6905,-3.6943,-3.5728,0.0,-3.6446,-3.6499,0.0,-3.7327,0.0,0.0,0.0,-3.8707,-3.9193,-3.9308,-3.9515,-3.9754,-4.0002,0.0,-3.9739,-3.9623,-3.967,-3.9739,-3.9851,-3.9935,-4.0057,-4.0234,-4.0272,-4.0272,-4.0272,-4.029,-4.0307,-4.0325,-4.0379,-4.0432,-4.0502,-4.0502,-4.0495,-4.0523,-4.0523,-4.0425,-4.0288,-4.0101,-3.9939,-3.9781,-3.9656,-3.9602,-3.9602,-3.9602,-3.9602,-3.9602,-3.9602,-3.9602,-3.9602,-3.9602,-3.9637,-3.9693,0.0,0.0,0.0,0.0,0.0,0.0,0.0,0.0,0.0,0.0,0.0,0.0,0.0,0.0,0.0,0.0,0.0,0.0,0.0,-1.107,-1.3267,-1.5797,-1.6698,-1.6655,-1.5598,-1.5791,-1.5643,-1.5143,-1.4749,-1.4741,-1.5196,-1.6381,-1.633,-1.5342,-1.6976,-1.7744,-1.7824,-1.9551,-2.0851,-2.1824,-2.2467,-2.3158,0.0,0.0,0.0,0.0,0.0,0.0,0.0,0.0,-2.9775,-3.094,-3.16,-3.2423,-3.3271,-3.4005,-3.4605,-3.5165,-3.5708,-3.6435,-3.7016,-3.6827,-3.6113,0.0,0.0,-3.6964,-3.6247,-3.658,-3.6214,0.0,0.0,0.0,-3.9794,-3.958,-3.9925,-4.0194,-4.0177,-4.0196,-4.0196,-4.0099,-4.008,-4.0099,-4.0138,-4.0176,-4.0215,-4.0291,-4.031,-4.031,-4.031,-4.031,-4.029,-4.0307,-4.0325,-4.0379,-4.0502,-4.0502,-4.0515,-4.0489,-4.0489,-4.0473,-4.0408,-4.0081,-3.9941,-3.9918,-3.9656,-3.9571,-3.9602,-3.9602,-3.9602,-3.9602,-3.9602,-3.9602,-3.9602,-3.9602,-3.9626,-3.9631,0.0,0.0,0.0,0.0,0.0,0.0,0.0,0.0,0.0,0.0,0.0,0.0,0.0,0.0,0.0,0.0,0.0,0.0,-1.3621,-1.5358,-1.7091,-1.8913,-1.9872,-2.0068,-1.9307,-1.8979,-1.8368,-1.7415,-1.7359,-1.7379,-1.759,-1.8937,-1.8947,-1.7831,-1.9881,-2.0497,-2.0113,-2.1876,-2.2977,-2.3492,-2.3952,-2.4469,0.0,0.0,0.0,0.0,0.0,0.0,0.0,0.0,-3.0997,-3.2112,-3.2845,-3.362,-3.4333,-3.5186,-3.5664,-3.6061,-3.6781,-3.7069,-3.7112,-3.6979,0.0,0.0,-3.7753,-3.6982,-3.6024,-3.625,-3.6049,-3.613,-3.7173,0.0,0.0,0.0,-4.0213,-4.0444,-4.027,-4.0342,-4.0415,-4.0363,-4.0345,-4.0309,-4.031,-4.031,-4.031,-4.031,-4.031,-4.031,-4.031,-4.031,-4.031,-4.0308,-4.0308,-4.0344,-4.0432,-4.0449,-4.0447,-4.0492,-4.0492,-4.0508,-4.0489,-4.0177,-4.0042,-4.0081,-3.9735,-3.9607,-3.9656,-3.9626,-3.9602,-3.9602,-3.9602,-3.9602,-3.9602,-3.9602,-3.9602,-3.9602,0.0,0.0,0.0,0.0,0.0,0.0,0.0,0.0,0.0,0.0,0.0,0.0,0.0,0.0,0.0,0.0,0.0,0.0,-1.9826,-1.8585,-1.904,-2.203,-2.216,-2.275,-2.4066,-2.3119,-2.1121,-1.8158,-1.9415,-2.0001,-2.0065,-2.2031,-2.2912,-2.2924,-2.2849,-2.3107,-2.3508,-2.3464,-2.3734,-2.4108,-2.4108,-2.5016,-2.6327,0.0,0.0,0.0,0.0,0.0,0.0,0.0,-3.2439,-3.4317,-3.4576,-3.5186,-3.5994,-3.6291,-3.6825,-3.7342,-3.7632,-3.7606,-3.7529,-3.7646,0.0,0.0,-3.6936,-3.6361,-3.583,-3.6777,-3.7499,-3.8103,-3.8518,-3.9139,0.0,-4.0042,-4.0325,-4.0449,-4.0325,-4.0307,-4.0308,-4.0291,-4.031,-4.031,-4.031,-4.031,-4.031,-4.031,-4.031,-4.031,-4.031,-4.031,-4.031,-4.031,-4.031,-4.0291,-4.0307,-4.0307,-4.0379,-4.0502,-4.0502,-4.0515,-4.0489,-4.0358,-4.0307,-4.0289,-3.9937,-3.9804,-3.9781,-3.9656,-3.9602,-3.9602,-3.9602,-3.9602,-3.9602,-3.9602,-3.9602,-3.9602,0.0,0.0,0.0,0.0,0.0,0.0,0.0,0.0,0.0,0.0,0.0,0.0,0.0,0.0,0.0,0.0,0.0,0.0,-2.126,-2.2171,-2.3352,-2.5182,-2.525,-2.4914,-2.4123,-2.4289,-2.3412,-2.1537,-2.1957,-2.2359,-2.2742,-2.3339,-2.3352,-2.2937,-2.3819,-2.4515,-2.509,-2.6,-2.6661,-2.7193,-2.7193,-2.7472,-2.788,0.0,0.0,0.0,0.0,0.0,0.0,0.0,0.0,0.0,-3.5186,-3.5644,-3.5924,-3.6516,-3.6492,-3.6394,-3.6879,-3.6843,0.0,-3.6073,0.0,0.0,0.0,-3.5086,0.0,0.0,-3.6071,-3.6972,-3.7532,-3.8556,0.0,-3.9887,-4.0233,-4.0415,-4.0379,-4.0325,-4.0307,-4.0308,-4.031,-4.031,-4.031,-4.031,-4.031,-4.031,-4.031,-4.031,-4.031,-4.031,-4.031,-4.031,-4.031,-4.0291,-4.0307,-4.0307,-4.0379,-4.0502,-4.0502,-4.0515,-4.0489,-4.0304,-4.0139,-4.0002,-3.981,-3.9684,-3.9602,-3.9602,-3.9602,-3.9602,-3.9602,-3.9602,-3.9602,-3.9602,-3.9602,-3.9602,0.0,0.0,0.0,0.0,0.0,0.0,0.0,0.0,0.0,0.0,0.0,0.0,0.0,0.0,0.0,0.0,0.0,0.0,0.0,-2.5202,-2.6075,-2.7554,-2.7618,-2.6944,-2.5514,-2.5891,-2.5612,-2.459,-2.459,-2.4759,-2.5135,-2.5232,-2.5149,-2.4914,-2.5652,-2.6222,-2.672,-2.7612,-2.8165,-2.8492,-2.8671,-2.8911,-2.9164,0.0,0.0,0.0,0.0,0.0,0.0,0.0,0.0,0.0,-3.5864,-3.6199,-3.634,-3.6746,-3.6577,-3.6394,-3.6717,-3.6481,0.0,-3.5731,-3.5534,-3.5322,-3.4926,0.0,0.0,0.0,-3.5515,-3.6482,-3.7319,-3.8308,0.0,-3.9948,-4.0233,-4.0362,-4.0363,-4.0327,-4.029,-4.029,-4.031,-4.031,-4.031,-4.031,-4.031,-4.031,-4.031,-4.031,-4.031,-4.031,-4.031,-4.031,-4.031,-4.0291,-4.029,-4.029,-4.0326,-4.0413,-4.0413,-4.043,-4.046,-4.0375,-4.0213,-4.0002,-3.9788,-3.9637,-3.9495,-3.9571,-3.9602,-3.9602,-3.9602,-3.9602,-3.9602,-3.9602,-3.9602,-3.9602,0.0,0.0,0.0,0.0,0.0,0.0,0.0,0.0,0.0,0.0,0.0,0.0,0.0,0.0,0.0,0.0,0.0,0.0,0.0,-2.7618,-2.7504,-2.9013,-2.9075,-2.8654,-2.7788,-2.7739,-2.7575,-2.7172,-2.707,-2.7019,-2.707,-2.7342,-2.761,-2.7879,-2.7771,-2.794,-2.8281,-2.8623,-2.8689,-2.8779,-2.9247,-2.9832,-3.0392,-3.0852,0.0,0.0,0.0,0.0,0.0,0.0,0.0,0.0,-3.6527,-3.6719,-3.692,-3.6946,-3.6893,-3.6802,-3.6758,-3.6242,-3.5788,-3.6102,-3.5586,0.0,-3.4943,-3.5034,-3.5105,-3.5016,0.0,-3.6406,-3.7663,-3.8288,-3.8994,-4.0118,-4.0307,-4.0308,-4.0291,-4.031,-4.031,-4.031,-4.031,-4.031,-4.031,-4.031,-4.031,-4.031,-4.031,-4.031,-4.031,-4.031,-4.031,-4.031,-4.031,-4.031,-4.031,-4.031,-4.0291,-4.0307,-4.0307,-4.0344,-4.0396,-4.046,-4.0372,-4.0139,-3.981,-3.9613,-3.9495,-3.9571,-3.9596,-3.9577,-3.9596,-3.9596,-3.9577,-3.9596,-3.9602,-3.9602,0.0,0.0,0.0,0.0,0.0,0.0,0.0,0.0,0.0,0.0,0.0,0.0,0.0,0.0,0.0,0.0,0.0,0.0,0.0,-2.8021,-2.8717,-2.9075,-2.9075,-2.9029,-2.8764,-2.8764,-2.8748,-2.8654,-2.754,-2.7238,-2.7735,-2.7765,-2.7815,-2.7913,-2.7866,-2.8201,-2.8809,-2.9346,-2.9948,-3.0419,-3.1053,-3.1377,-3.1607,-3.2093,-3.2656,0.0,0.0,0.0,0.0,0.0,0.0,0.0,-3.69,-3.6801,-3.6417,-3.6967,-3.6337,-3.5468,-3.5659,-3.5396,0.0,-3.5172,-3.5217,-3.5235,-3.5219,-3.5239,-3.5174,-3.4962,-3.5219,-3.5946,-3.7513,-3.7919,-3.8495,-4.0061,-4.031,-4.0291,-4.031,-4.031,-4.031,-4.031,-4.031,-4.031,-4.031,-4.031,-4.031,-4.031,-4.031,-4.031,-4.031,-4.031,-4.031,-4.031,-4.031,-4.031,-4.031,-4.031,-4.0291,-4.0307,-4.0307,-4.0344,-4.0415,-4.0466,-4.0306,-3.9941,-3.9508,-3.9388,-3.9495,-3.952,-3.952,-3.952,-3.9596,-3.9571,-3.952,-3.9596,-3.9602,-3.9602,0.0,0.0,0.0,0.0,0.0,0.0,0.0,0.0,0.0,0.0,0.0,0.0,0.0,0.0,0.0,0.0,0.0,0.0,0.0,0.0,-2.8982,-2.8967,-2.8967,-2.8967,-2.8967,-2.8967,-2.9045,-2.9305,-2.856,-2.8258,-2.8352,-2.8352,-2.8496,-2.8638,-2.8076,-2.8575,-2.9764,-2.9536,-3.0241,-3.1607,-3.1958,-3.2444,-3.3029,-3.3483,-3.3871,-3.4153,-3.4655,0.0,0.0,0.0,0.0,0.0,0.0,0.0,-3.5921,-3.6161,-3.5725,-3.515,-3.5243,-3.5116,0.0,-3.5088,0.0,-3.5289,-3.5254,-3.5258,-3.5209,-3.5069,-3.5155,-3.5755,-3.7441,-3.7747,-3.832,-4.0024,-4.031,-4.031,-4.031,-4.031,-4.031,-4.0344,-4.0328,-4.031,-4.0344,-4.0328,-4.031,-4.031,-4.031,-4.031,-4.031,-4.031,-4.031,-4.031,-4.031,-4.031,-4.031,-4.031,-4.0291,-4.0309,-4.0309,-4.0308,-4.0362,-4.0215,-4.004,-3.9832,-3.9401,-3.9256,-3.9354,-3.9444,-3.9444,-3.9444,-3.9495,-3.9495,-3.9495,-3.9546,-3.9571,-3.9602,0.0,0.0,0.0,0.0,0.0,0.0,0.0,0.0,0.0,0.0,0.0,0.0,0.0,0.0,0.0,0.0,0.0,0.0,0.0,0.0,0.0,-2.892,-2.892,-2.8967,-2.906,-2.906,-2.9229,-2.9605,-2.9694,-2.9515,-2.909,-2.9136,-2.9319,-2.956,-2.8637,-2.9092,-3.0545,-2.9685,-3.0407,-3.2127,-3.2221,-3.2949,-3.4056,-3.4506,-3.4811,-3.5005,-3.5526,-3.5705,-3.5776,-3.6347,0.0,0.0,0.0,0.0,-3.5436,-3.5291,-3.5219,-3.5123,-3.504,-3.507,-3.5122,-3.5261,-3.5277,0.0,-3.5209,-3.5193,-3.5193,-3.5209,-3.5209,-3.5706,-3.7422,-3.7728,-3.8319,-4.0077,-4.0327,-4.0328,-4.0328,-4.031,-4.0309,-4.0375,-4.0326,-4.0309,-4.0375,-4.0345,-4.031,-4.031,-4.031,-4.031,-4.031,-4.031,-4.031,-4.031,-4.031,-4.031,-4.031,-4.031,-4.031,-4.031,-4.0253,-4.0215,-4.0177,-3.9851,-3.9758,-3.9781,-3.935,-3.9183,-3.921,-3.9328,-3.9373,-3.9373,-3.9391,-3.9418,-3.9469,-3.9469,-3.952,-3.9577,0.0,0.0,0.0,0.0,0.0,0.0,0.0,0.0,0.0,0.0,0.0,0.0,0.0,0.0,0.0,0.0,0.0,0.0,0.0,0.0,0.0,-2.9396,-2.9396,-2.9621,-3.0017,-3.0017,-3.006,-3.0103,-3.0401,-3.0284,-2.9837,-2.9957,-3.006,-3.0103,-2.9957,-3.0006,-3.0266,-3.0721,-3.1079,-3.1397,-3.1987,-3.2749,-3.367,-3.4163,-3.4835,-3.5571,-3.6028,-3.6216,-3.6197,-3.5928,-3.5902,0.0,0.0,0.0,-3.4968,-3.5332,-3.5062,-3.4607,-3.467,0.0,-3.5122,0.0,-3.5209,-3.5209,0.0,0.0,-3.5127,0.0,-3.5209,-3.5739,-3.7536,-3.7874,-3.8462,-4.028,-4.0454,-4.0392,-4.0392,-4.0345,-4.0291,-4.031,-4.031,-4.0291,-4.031,-4.031,-4.031,-4.031,-4.031,-4.031,-4.031,-4.031,-4.031,-4.031,-4.031,-4.031,-4.031,-4.031,-4.031,-4.031,-4.0058,-3.987,-3.9693,-3.9477,-3.9526,-3.9781,-3.9324,-3.9156,-3.921,-3.921,-3.9229,-3.9256,-3.9346,-3.9328,-3.9256,-3.9373,-3.9444,-3.952,0.0,0.0,0.0,0.0,0.0,0.0,0.0,0.0,0.0,0.0,0.0,0.0,0.0,0.0,0.0,0.0,0.0,0.0,0.0,0.0,0.0,-2.9677,-2.9677,-2.9766,-2.9957,-3.0,-3.0113,-3.0368,-3.051,-3.0135,-2.9287,-3.0489,-3.0804,-3.0368,-3.0156,-3.0342,-3.0749,-3.0603,-3.1034,-3.1816,-3.1918,-3.2673,-3.3691,-3.3948,-3.4379,-3.4795,-3.5186,-3.5344,-3.537,-3.5435,-3.5383,-3.5223,-3.5242,0.0,0.0,0.0,-3.4494,-3.4386,-3.4632,-3.487,-3.5054,0.0,-3.5126,-3.5126,-3.5054,-3.5001,-3.5019,-3.5171,-3.5203,-3.5752,-3.7567,-3.7969,-3.8584,-4.0318,-4.0485,-4.0406,-4.0406,-4.0344,-4.031,-4.0342,-4.0309,-4.031,-4.0342,-4.0309,-4.031,-4.031,-4.031,-4.031,-4.031,-4.031,-4.031,-4.031,-4.031,-4.031,-4.031,-4.0157,-3.9996,-3.9848,-3.9739,-3.9647,-3.9551,-3.9376,-3.9401,-3.9551,-3.9245,-3.9129,-3.9156,-3.9156,-3.9156,-3.9156,-3.9202,-3.9229,-3.921,-3.9256,-3.9354,-3.9444,0.0,0.0,0.0,0.0,0.0,0.0,0.0,0.0,0.0,0.0,0.0,0.0,0.0,0.0,0.0,0.0,0.0,0.0,0.0,0.0,0.0,-2.9897,-2.9897,-2.9941,-3.007,-3.007,-2.9976,-2.9747,-2.9747,-2.8961,-2.7531,-2.9044,-2.9526,-2.9186,-3.0031,-3.0764,-3.1252,-3.0551,-3.0908,-3.1921,-3.1806,-3.2507,-3.3625,-3.3827,-3.4085,-3.4428,-3.4635,-3.4745,-3.4782,-3.5005,-3.4884,-3.4588,-3.4517,-3.4266,0.0,0.0,0.0,-3.4245,-3.4588,0.0,-3.4927,-3.5001,-3.5057,-3.502,0.0,0.0,-3.4982,0.0,-3.5228,-3.5763,-3.7353,-3.7912,-3.8601,-4.0042,-4.0361,-4.0438,-4.0372,-4.0326,-4.031,-4.0323,-4.0327,-4.0291,-4.0269,-4.0253,-4.0253,-4.0253,-4.0215,-4.0234,-4.0291,-4.0273,-4.0253,-4.0253,-4.0272,-4.0272,-4.0253,-4.0017,-3.9739,-3.9401,-3.9401,-3.9376,-3.9324,-3.9219,-3.9192,-3.9264,-3.9156,-3.9101,-3.9101,-3.9101,-3.9101,-3.9101,-3.9101,-3.9129,-3.9183,-3.9183,-3.9256,-3.9373,0.0,0.0,0.0,0.0,0.0,0.0,0.0,0.0,0.0,0.0,0.0,0.0,-2.3813,-2.6738,-2.8133,-2.7283,-2.868,-2.9633,-2.9633,-2.9617,-2.9766,-3.0146,-3.0189,0.0,-3.0831,-3.0814,-2.9793,-2.7661,-2.7661,-2.6495,-2.4255,-2.4347,-2.4755,-2.5572,-2.9757,-3.1603,-3.1545,-3.1117,-3.0969,-3.1002,-3.15,-3.2231,-3.311,-3.3618,-3.4355,-3.515,-3.5099,-3.5116,-3.5093,-3.4686,-3.4588,-3.4527,-3.41,-3.3931,-3.3895,0.0,0.0,0.0,0.0,-3.4517,0.0,-3.4792,-3.487,-3.4908,0.0,0.0,-3.5032,-3.5165,-3.5345,-3.5797,-3.6775,-3.7622,-3.8443,-3.9232,-4.0067,-4.0515,-4.0323,-4.0309,-4.0253,-4.0118,-4.0215,-4.0196,-3.9954,-4.0036,-4.0117,-4.0117,-3.9994,-4.0036,-4.0291,-4.0176,-4.0117,-4.0117,-4.0234,-4.0234,-4.0117,-3.9975,-3.9647,-3.9129,-3.9129,-3.9017,-3.8851,-3.8851,-3.8862,-3.8921,-3.9045,-3.9101,-3.9101,-3.9101,-3.9101,-3.9101,-3.9101,-3.9101,-3.9101,-3.9101,-3.9156,-3.921,0.0,0.0,0.0,0.0,0.0,0.0,0.0,0.0,0.0,0.0,0.0,0.0,0.0,-2.4369,-2.4782,-2.4555,-2.6416,-2.8398,-3.0319,-3.0426,-3.051,-3.0651,-2.9107,-2.9116,-3.0868,-2.7778,-2.6597,-2.7504,-2.5916,-2.419,-2.2437,-2.4244,-2.4404,-2.3302,-2.6172,-2.7435,-2.7347,-2.7204,-2.6804,-2.6463,-2.8544,-2.9625,-3.0221,-3.2306,-3.3336,0.0,0.0,0.0,-3.3996,-3.4022,-3.4063,-3.4064,-3.388,-3.386,-3.3868,-3.4099,-3.4274,-3.4439,0.0,0.0,0.0,-3.5018,-3.5069,-3.5086,-3.5032,-3.5049,-3.5114,-3.5297,-3.538,-3.5572,-3.6043,-3.7297,-3.8539,-3.9356,-4.0028,-4.0454,-4.0372,-4.0196,-4.0036,-3.9994,-4.0015,-4.0015,-3.9911,-3.9933,-3.9954,-3.9954,-3.9933,-3.9933,-4.0036,-3.9994,-3.9954,-3.9954,-4.0117,-4.0017,-3.9717,-3.967,-3.9357,-3.8851,-3.8851,-3.881,-3.875,-3.8792,-3.8822,-3.8833,-3.8979,-3.9036,-3.9036,-3.9073,-3.9101,-3.9101,-3.9101,-3.9101,-3.9101,-3.9101,-3.9129,-3.9156,0.0,0.0,0.0,0.0,0.0,0.0,0.0,0.0,0.0,-1.8687,0.0,0.0,0.0,0.0,-2.2529,-2.3376,-2.4783,-2.6458,-2.8424,-2.8559,-2.8519,-2.8478,-2.69,-2.6805,-2.8448,-2.5252,-2.4067,-2.5082,-2.3419,-2.1744,-2.0102,-2.197,-2.2119,-2.086,-2.2276,-2.3611,-2.4785,-2.4671,-2.4241,-2.3885,-2.7067,-2.8333,-2.8569,0.0,0.0,0.0,0.0,0.0,0.0,-3.3842,-3.3928,-3.3928,-3.3921,-3.2933,-3.1844,-3.2156,-3.2345,-3.2814,-3.4433,-3.4889,-3.4925,0.0,-3.5105,-3.5119,-3.51,-3.5149,-3.5243,-3.5361,-3.5444,-3.5543,-3.5678,-3.69,-3.8121,-3.8907,-3.9874,-4.0469,-4.037,-4.0195,-4.008,-4.004,-4.0,-3.9977,-3.9911,-3.9848,-3.9826,-3.9826,-3.98,0.0,-3.9889,-3.9867,-3.987,-3.9954,-4.0057,-3.9911,-3.9483,-3.9502,-3.9219,-3.8707,-3.8707,-3.8707,-3.8707,-3.875,-3.878,-3.8762,-3.8881,-3.895,-3.9026,-3.9073,-3.9101,-3.9101,-3.9101,-3.9101,-3.9101,-3.9101,-3.9101,-3.9101,0.0,0.0,0.0,0.0,0.0,0.0,0.0,0.0,-1.1111,-1.1111,0.0,0.0,0.0,0.0,0.0,-2.3828,-2.3851,-2.3772,-2.3846,-2.3846,-2.3804,-2.3649,-2.3591,-2.3591,-2.3681,-2.3536,-2.2439,-2.03,-2.0218,-1.9202,-1.7235,-1.7235,-1.7569,-1.8182,-1.8375,-2.0624,-2.4174,-2.3866,-2.3521,-2.352,-2.7127,-2.8465,-2.8376,0.0,0.0,0.0,-3.047,-3.1328,0.0,-3.4124,0.0,0.0,0.0,0.0,0.0,-2.7961,-2.803,-2.896,0.0,0.0,0.0,0.0,0.0,0.0,-3.5088,0.0,-3.5388,-3.5412,-3.5554,-3.5707,-3.5707,-3.6405,-3.7181,-3.7772,-3.9441,-4.0574,-4.0334,-4.0403,-4.0438,-4.0317,-4.025,-4.012,-3.9935,-3.9785,-3.9717,-3.9693,-3.9631,-3.9698,-3.9889,-3.9781,-3.9826,-4.0077,-4.0117,-3.9911,-3.9483,-3.9502,-3.9219,-3.8707,-3.8707,-3.8707,-3.8707,-3.8707,-3.8707,-3.8707,-3.8762,-3.8881,-3.9026,-3.9073,-3.9101,-3.9101,-3.9101,-3.9101,-3.9101,-3.9101,-3.9101,-3.9101,0.0,0.0,0.0,0.0,0.0,0.0,-1.1335,-1.1186,-1.1111,0.0,0.0,0.0,-1.3715,-1.5468,-1.7479,-1.9923,-1.997,-2.0619,-2.2409,-2.2517,-2.2498,-2.2476,-2.0766,-2.0895,-2.321,-1.9792,-1.887,-2.072,-1.8924,-1.7856,-1.7461,-1.791,-1.7978,-1.7735,-1.825,-1.8846,-1.9444,-1.9699,-1.9364,-1.898,-2.1916,-2.4337,0.0,0.0,0.0,0.0,0.0,-3.3379,-3.4099,0.0,-3.227,-2.9347,0.0,0.0,-2.3969,-2.4057,-2.4114,-2.5079,-2.9322,0.0,0.0,0.0,0.0,0.0,0.0,0.0,-3.5502,-3.5526,-3.5581,-3.5635,-3.5695,-3.6372,-3.698,-3.7146,-3.8554,-3.9807,-4.0377,-4.0356,-4.0269,-4.0232,-4.0195,-4.012,-3.9935,-3.987,-3.9781,0.0,-3.9602,-3.9626,-3.9698,-3.9689,-3.9826,-4.0077,-4.0117,-3.9911,-3.9483,-3.9502,-3.9219,-3.8707,-3.8707,-3.8707,-3.8707,-3.8707,-3.8719,-3.878,-3.8851,-3.8939,-3.9007,-3.9007,-3.9064,-3.9101,-3.9101,-3.9101,-3.9101,-3.9101,-3.9101,-3.9101,0.0,0.0,0.0,0.0,0.0,-1.1037,-1.1037,-1.0962,-1.0887,0.0,0.0,0.0,-1.389,-1.4545,-1.5539,-1.7168,-1.7148,-1.7603,-1.9084,-1.9431,-1.9642,-1.9642,-1.8557,-1.8843,-2.0722,-1.767,-1.6996,-1.8987,-1.7199,-1.6464,-1.6673,-1.707,-1.7207,-1.7176,-1.7628,-1.7706,-1.747,-1.7501,0.0,0.0,-2.1219,0.0,0.0,-2.7595,-3.0081,0.0,0.0,0.0,-3.3998,-3.4232,-3.1626,0.0,0.0,0.0,0.0,0.0,-2.0,-2.086,-2.512,-2.6301,-2.7351,-3.1608,0.0,0.0,-3.5071,-3.5495,-3.5522,0.0,-3.5601,-3.5601,-3.5651,-3.606,-3.6516,-3.6841,-3.7958,-3.9094,-3.9957,-4.0288,-4.0457,-4.0457,-4.0304,-4.0158,-4.004,-3.987,-3.9727,-3.9602,-3.9602,-3.9602,-3.9602,-3.9708,-3.9867,-4.0015,-4.0137,-3.9954,-3.9483,-3.9502,-3.9219,-3.8707,-3.8707,-3.8707,-3.8707,-3.8707,-3.875,-3.8822,-3.8851,-3.8892,-3.8979,-3.8979,-3.9036,-3.9101,-3.9101,-3.9101,-3.9101,-3.9101,-3.9101,-3.9101,0.0,0.0,0.0,-1.0588,-1.0513,-1.0513,-1.0513,-1.0513,-1.0513,0.0,-1.1706,-1.3251,-1.484,-1.4903,-1.5046,-1.5392,-1.5267,-1.5133,-1.5054,-1.5754,-1.6097,-1.6097,-1.6751,-1.7185,-1.7254,-1.6594,-1.6237,-1.6306,-1.5683,-1.548,-1.5675,-1.5675,-1.5965,-1.6603,0.0,0.0,-1.7254,0.0,0.0,-1.7121,-2.2178,-2.2136,0.0,0.0,-2.8179,-2.7869,-2.9336,-3.1532,-3.3692,-3.3317,-3.0458,0.0,0.0,0.0,0.0,0.0,-1.5742,-1.6465,-2.0777,-2.194,-2.2943,-2.7222,-2.8651,0.0,-3.3893,-3.5149,-3.5507,0.0,-3.5584,-3.5596,-3.5591,-3.5639,-3.5925,-3.6644,-3.7498,-3.8392,-3.9359,-4.0249,-4.079,-4.0778,-4.0457,-4.0214,-4.0177,-3.9826,-3.9626,-3.9602,-3.9602,-3.9626,-3.9626,-3.9819,-3.9933,-3.9933,-4.0157,-3.9996,-3.9483,-3.9458,-3.9192,-3.8707,-3.8707,-3.8707,-3.8707,-3.8707,-3.875,-3.8792,-3.8792,-3.8881,-3.8979,-3.8979,-3.9036,-3.9101,-3.9101,-3.9101,-3.9101,-3.9101,-3.9101,-3.9101,0.0,0.0,-1.0812,-1.0962,-1.0738,-1.0513,-1.0513,-1.0513,-1.0513,-1.0513,-1.1706,-1.2886,-1.3753,-1.4338,-1.4705,-1.4776,-1.4713,-1.4561,-1.4346,-1.4705,-1.484,-1.4553,-1.4919,-1.5346,-1.563,-1.5833,-1.6035,-1.6306,-1.6473,-1.6621,-1.6621,-1.6621,-1.6533,-1.6376,-1.6751,0.0,0.0,0.0,0.0,-1.5317,-1.6011,-1.7501,-1.9696,-2.308,-2.5926,-2.855,-3.2119,-3.3941,-3.3661,-2.711,-2.2116,-1.7883,0.0,0.0,0.0,-1.1609,0.0,0.0,0.0,0.0,0.0,0.0,0.0,0.0,-3.0049,-3.2895,-3.5373,0.0,-3.5488,-3.5528,-3.5515,-3.5572,-3.5674,-3.5835,-3.6574,-3.7711,-3.9282,-4.0249,-4.0733,-4.0583,-4.0489,-4.0321,-3.9979,-3.9892,-3.9777,-3.9602,-3.9637,-3.9712,-3.9823,-3.9994,-4.0117,-4.0215,-4.0077,-3.9807,-3.9483,-3.9298,-3.9036,-3.8707,-3.8707,-3.8707,-3.8707,-3.8707,-3.875,-3.8792,-3.8792,-3.8881,-3.8979,-3.8979,-3.9036,-3.9101,-3.9101,-3.9101,-3.9101,-3.9101,-3.9129,-3.9183,0.0,-1.1409,-1.1186,-1.1335,-1.1037,-1.0812,-1.0962,-1.0887,-1.0812,-1.0812,-1.1409,-1.2365,-1.3608,-1.339,-1.339,-1.3977,-1.384,-1.3768,-1.3833,-1.4122,-1.4194,-1.4049,-1.4394,-1.4816,-1.518,-1.518,-1.5251,-1.5455,-1.5621,-1.5771,-1.5771,-1.5771,-1.5692,-1.5604,-1.5903,-1.5965,0.0,0.0,-1.5392,-1.5432,-1.6186,0.0,-1.6378,-2.0909,-2.2463,-2.2758,-2.6727,-2.8398,-2.8055,-2.3786,-1.9686,0.0,-1.404,-1.1854,-1.0143,0.0,-1.0368,-1.071,0.0,0.0,0.0,-1.7907,0.0,0.0,0.0,-2.8812,-3.2171,-3.2209,-3.3934,-3.5441,-3.5402,-3.5489,-3.5547,-3.5541,-3.6318,-3.7339,-3.8627,-3.9579,-4.0282,-4.0602,-4.0473,-4.0269,-4.008,-3.987,-3.9703,-3.9602,-3.9642,-3.9717,-3.9804,-3.9975,-4.0137,-4.0215,-4.0118,-3.9975,-3.9717,-3.9433,-3.9165,-3.891,-3.875,-3.8707,-3.8707,-3.8707,-3.875,-3.8822,-3.8851,-3.891,-3.9007,-3.9036,-3.9073,-3.9101,-3.9101,-3.9129,-3.9156,-3.9156,-3.9229,-3.9301,-1.1781,-1.1632,-1.1484,-1.1706,-1.1484,-1.126,-1.1409,-1.126,-1.1111,-1.1111,-1.1335,-1.207,-1.3608,-1.2879,-1.2659,-1.3608,-1.3397,-1.3331,-1.3462,-1.397,-1.4186,-1.4042,-1.4522,-1.4942,-1.5171,-1.4966,-1.4752,-1.4466,-1.4553,-1.4633,-1.4633,-1.4633,-1.4697,-1.484,-1.4974,-1.518,0.0,0.0,0.0,-1.5365,0.0,-1.5587,-1.2994,-1.8789,-1.9035,-1.6764,-2.0654,-2.172,-2.1279,-2.1038,-1.8484,-1.5335,-1.5335,-1.2875,0.0,0.0,0.0,0.0,0.0,0.0,0.0,0.0,0.0,-1.5653,0.0,0.0,0.0,-2.723,0.0,0.0,0.0,0.0,0.0,-3.5322,0.0,0.0,0.0,-3.8665,0.0,-4.0617,-4.0406,-4.0196,-4.0158,-3.9826,-3.9626,-3.9626,-3.9731,-3.9781,-3.9781,-4.0015,-4.0137,-4.0137,-4.0176,-4.0098,-3.9848,-3.9575,-3.9298,-3.9017,-3.8792,-3.8707,-3.8707,-3.8689,-3.875,-3.8822,-3.8881,-3.8939,-3.9007,-3.9064,-3.9073,-3.9101,-3.9101,-3.9129,-3.9183,-3.9183,-3.9256,-3.9391,-1.2077,-1.1929,-1.1706,-1.1929,-1.1781,-1.1558,-1.1409,-1.1409,-1.1335,-1.1111,-1.2003,-1.2746,-1.2966,-1.3768,-1.4346,-1.4489,-1.4425,-1.4129,-1.3535,-1.4474,-1.4768,-1.4042,-1.5062,-1.5497,-1.5196,-1.5497,-1.5141,-1.4042,-1.4466,-1.4609,-1.4609,-1.4609,-1.4617,-1.4641,-1.4466,0.0,0.0,0.0,-1.3237,0.0,-1.3042,-1.2863,0.0,-1.5913,-1.6834,-1.7058,-2.1073,-2.0152,-1.6991,0.0,-1.4216,-1.0906,0.0,-1.0444,-1.0067,-0.9604,0.0,0.0,0.0,0.0,0.0,0.0,-1.1347,0.0,0.0,0.0,-2.0827,-2.0844,0.0,0.0,0.0,0.0,0.0,0.0,0.0,0.0,-3.6826,-3.7757,-3.8872,-4.0296,-4.0304,-4.0139,-3.9937,-3.9804,-3.9693,-3.9693,-3.9911,-4.0057,-4.0057,-4.0195,-4.0291,-4.0291,-4.0077,-3.9826,-3.9551,-3.9272,-3.8989,-3.875,-3.8689,-3.8707,-3.8707,-3.8762,-3.8792,-3.8822,-3.8881,-3.8939,-3.8979,-3.9007,-3.9064,-3.9101,-3.9101,-3.9101,-3.9101,-3.9101,-3.9229,-3.9391,-1.2157,-1.1706,-1.1409,-1.2077,-1.1929,-1.1706,-1.1706,-1.1558,-1.1484,-1.1781,-1.1855,-1.2003,-1.2526,0.0,0.0,0.0,0.0,-1.3171,0.0,0.0,-1.339,-1.3025,-1.3018,-1.3084,-1.3164,-1.3535,-1.3615,-1.3178,-1.425,-1.4609,-1.433,-1.4609,-1.4617,-1.4274,-1.3608,0.0,-1.3912,0.0,-1.2358,0.0,0.0,0.0,0.0,-1.2372,-1.284,-1.2944,-1.4644,-1.4168,-1.2717,0.0,-1.1166,0.0,0.0,0.0,0.0,-0.8998,0.0,0.0,0.0,0.0,0.0,0.0,0.0,0.0,-0.9501,0.0,-1.6291,0.0,0.0,0.0,0.0,0.0,0.0,0.0,-3.543,0.0,0.0,0.0,-3.862,-3.9739,0.0,0.0,-3.9754,-3.9712,-3.9693,-3.9693,-3.9954,-4.0117,-4.0117,-4.0234,-4.031,-4.031,-4.0196,-4.0077,-3.9975,-3.9693,-3.9452,-3.9237,-3.9045,-3.8939,-3.884,-3.8851,-3.8851,-3.8862,-3.8921,-3.8979,-3.9026,-3.9092,-3.9129,-3.9156,-3.9229,-3.9275,-3.9275,-3.9275,-3.9373,-3.952,-1.2305,0.0,0.0,-1.215,-1.2077,-1.1929,-1.2003,-1.1632,-1.1558,-1.2003,-1.1558,-1.1484,-1.2077,-1.1706,0.0,0.0,-1.2599,-1.2666,0.0,0.0,-1.2666,-1.2666,-1.2285,-1.2278,-1.2652,-1.3091,-1.3171,-1.2959,-1.4114,-1.4338,-1.3768,-1.4194,-1.4194,-1.392,0.0,-1.2959,-1.3688,0.0,-1.1545,-1.1829,-1.0783,-0.982,-0.9226,-0.9981,-1.0137,-0.9916,-0.9765,-0.969,-0.976,-0.9382,-0.8998,0.0,-0.915,0.0,-0.7693,0.0,0.0,0.0,-0.7391,0.0,0.0,0.0,0.0,0.0,0.0,0.0,0.0,0.0,0.0,0.0,0.0,0.0,0.0,0.0,0.0,-3.5714,0.0,-3.7462,0.0,0.0,0.0,0.0,0.0,-3.9781,-3.9807,-3.9873,-4.0038,-4.0157,-4.0157,-4.0253,-4.031,-4.031,-4.0291,-4.0253,-4.0177,-4.0019,-3.981,-3.9604,-3.9408,-3.9219,-3.8989,-3.9036,-3.9007,-3.895,-3.9036,-3.9082,-3.911,-3.9237,-3.9272,-3.929,-3.9413,-3.9483,-3.9483,-3.9425,-3.9502,-3.9656,-1.2452,-1.2378,0.0,0.0,0.0,-1.2231,-1.2003,0.0,0.0,0.0,0.0,0.0,0.0,0.0,0.0,0.0,0.0,-1.3273,-1.2973,0.0,-1.3462,-1.3462,-1.4099,-1.4681,0.0,-1.57,-1.5267,-1.376,-1.397,-1.3688,-1.2973,-1.2973,-1.3193,-1.3492,-1.2673,-1.2305,-1.2298,-1.1037,-1.0663,-1.0812,-1.0201,-0.9448,-0.8775,0.0,-0.983,-1.0067,-0.9301,0.0,0.0,-0.7846,-0.7689,0.0,0.0,0.0,0.0,0.0,0.0,0.0,0.0,0.0,0.0,-0.5321,0.0,0.0,0.0,0.0,-0.4966,0.0,0.0,0.0,0.0,0.0,0.0,-3.3606,-3.5369,0.0,0.0,0.0,0.0,0.0,0.0,0.0,0.0,-4.0099,-4.0138,-4.0252,-4.0291,-4.0291,-4.0291,-4.031,-4.031,-4.031,-4.029,-4.0177,-3.992,-3.9982,-3.9861,-3.9599,-3.9599,-3.9476,-3.9298,-3.935,-3.929,-3.9101,-3.9156,-3.9275,-3.9373,-3.9471,-3.9502,-3.9483,-3.9647,-3.9717,-3.9758,-3.9502,-3.9583,-3.9781,0.0,0.0,0.0,0.0,0.0,0.0,0.0,-1.1706,0.0,0.0,-1.1037,0.0,0.0,-1.1409,-1.1855,0.0,0.0,-1.3046,-1.3273,-1.3193,0.0,-1.3112,-1.3324,-1.3542,0.0,0.0,0.0,-1.3185,-1.3244,-1.3025,0.0,0.0,0.0,0.0,0.0,-1.1929,0.0,0.0,0.0,0.0,0.0,-0.8009,-0.8269,0.0,-0.8613,-0.8542,-0.8152,-0.7999,0.0,-0.7617,-0.7157,-0.685,-0.7306,-0.6777,-0.6012,-0.6244,-0.5941,0.0,0.0,0.0,-0.5544,-0.5007,0.0,0.0,0.0,0.0,0.0,0.0,0.0,0.0,0.0,0.0,-2.2968,-3.3577,-3.536,-3.5449,0.0,0.0,0.0,0.0,0.0,0.0,0.0,0.0,-4.0157,-4.0289,-4.0291,-4.0291,-4.029,-4.0308,-4.0308,-4.0363,-4.0381,-4.0325,-4.0233,-4.0252,-4.0158,-3.9922,-3.9922,-3.9838,-3.9683,-3.9705,-3.9709,-3.9694,-3.9618,-3.9656,-3.9743,-3.9813,-3.9788,-3.9717,-3.9897,-3.9979,-3.9954,-3.9754,-3.9754,-3.9867,-1.2003,0.0,0.0,0.0,0.0,0.0,0.0,0.0,0.0,0.0,-1.0812,0.0,-1.0519,0.0,-1.1558,0.0,-1.2526,-1.3046,-1.3346,-1.3046,0.0,-1.2973,-1.3112,0.0,0.0,0.0,0.0,0.0,0.0,-1.2725,0.0,0.0,0.0,0.0,0.0,-1.1706,-1.2157,-1.0582,-0.9679,0.0,0.0,-0.7157,0.0,0.0,-0.759,-0.7949,0.0,-0.7161,-0.7003,-0.67,-0.624,-0.5857,-0.6472,-0.586,-0.5093,-0.5628,-0.5321,-0.4859,-0.4701,-0.5004,0.0,-0.4696,-0.5002,0.0,-0.4854,0.0,-0.4701,0.0,0.0,0.0,0.0,0.0,0.0,-3.3606,-3.5393,-3.5592,0.0,-3.7046,0.0,0.0,0.0,0.0,0.0,-4.0233,-4.0288,-4.0341,-4.0362,-4.0344,-4.0307,-4.0325,-4.0362,-4.0398,-4.0432,-4.0432,-4.0432,-4.0466,-4.0394,-4.0269,-4.0285,-4.0212,-4.0043,-4.0043,-4.0043,-4.0024,-3.9927,-3.9946,-4.0005,-4.0101,-4.0101,-4.0023,-4.021,-4.0281,-4.025,-3.9937,-3.9911,-3.9996,0.0,0.0,0.0,0.0,-1.215,0.0,0.0,0.0,-1.1111,0.0,-1.0738,-1.0443,-1.0443,-1.1335,-1.2003,-1.2003,-1.29,-1.3419,-1.32,-1.3046,0.0,0.0,-1.3397,-1.368,-1.4057,0.0,0.0,0.0,0.0,0.0,0.0,0.0,0.0,0.0,-1.1855,0.0,-1.0962,-0.983,-0.9074,-0.8546,-0.7399,-0.6868,-0.6799,-0.6173,-0.6883,-0.8036,-0.7153,-0.6553,-0.6012,-0.5249,-0.5018,-0.5018,-0.5018,-0.5018,-0.5018,-0.494,-0.4859,-0.4701,-0.4698,-0.4543,-0.4384,-0.4384,0.0,0.0,0.0,0.0,-0.4307,0.0,0.0,0.0,0.0,0.0,0.0,-3.3723,-3.5463,-3.5823,-3.6717,0.0,-3.7541,0.0,0.0,0.0,-4.0602,-4.0607,-4.0545,-4.0422,-4.0473,-4.0441,0.0,-4.0379,-4.0396,-4.0396,-4.0466,-4.0502,-4.0502,-4.0577,-4.0588,-4.0588,-4.0593,-4.0511,-4.0326,-4.0326,-4.0257,-4.0151,-4.0133,-4.0168,-4.0238,-4.0358,-4.0408,-4.0423,-4.0559,-4.0609,-4.0546,-4.0101,-4.0058,-4.0234,-1.215,-1.2157,-1.2305,0.0,-1.2224,-1.215,0.0,0.0,0.0,0.0,-1.0218,-1.0143,-0.962,-1.0887,-1.1781,-1.1781,-1.282,0.0,0.0,0.0,0.0,-1.3419,-1.3768,-1.3985,-1.4129,-1.3404,-1.3112,-1.32,0.0,0.0,-1.1781,0.0,0.0,0.0,0.0,0.0,-1.0363,-0.9916,-0.9079,-0.7936,-0.7169,-0.6861,-0.6806,0.0,-0.6428,-0.6614,-0.5989,-0.5553,-0.5246,-0.5093,-0.5018,-0.4937,-0.4857,-0.4859,-0.4937,-0.4621,-0.4701,-0.4859,-0.4392,-0.4309,-0.4384,-0.4233,-0.4155,-0.4233,0.0,0.0,0.0,0.0,0.0,0.0,0.0,0.0,0.0,0.0,-3.5534,0.0,0.0,0.0,0.0,-3.8401,0.0,0.0,-4.0488,-4.0559,-4.0549,-4.0612,-4.0492,-4.043,-4.0449,0.0,0.0,-4.0476,-4.0543,-4.0577,-4.0577,-4.0583,-4.0626,-4.0673,-4.0668,-4.0681,-4.0668,-4.0668,-4.0681,-4.0687,-4.059,-4.0577,-4.0655,-4.0672,-4.0641,-4.0559,-4.0751,-4.0757,-4.0662,-4.0538,-4.0532,-4.0565,-1.1781,0.0,0.0,-1.215,0.0,0.0,-1.1632,-1.126,0.0,-1.0143,-1.0067,0.0,-0.962,-1.0812,-1.1706,-1.1706,-1.2746,0.0,-1.2973,0.0,0.0,-1.2973,-1.3557,-1.3848,-1.3848,-1.3112,0.0,-1.2826,0.0,0.0,-1.1558,0.0,0.0,0.0,0.0,-1.1186,-1.0443,-0.969,-0.8703,-0.748,-0.7096,-0.6843,0.0,-0.6288,-0.6074,-0.5899,-0.5425,-0.5243,-0.5093,-0.5015,-0.5018,-0.5018,-0.4859,-0.4937,-0.4937,-0.4701,-0.4701,-0.4701,-0.4311,-0.4153,-0.4073,-0.3999,-0.3999,-0.3999,-0.4073,-0.4151,-0.4762,0.0,0.0,0.0,0.0,0.0,0.0,0.0,0.0,0.0,0.0,0.0,0.0,0.0,-3.811,0.0,-4.0119,-4.014,-4.0243,-4.0667,-4.0579,-4.0508,-4.0554,0.0,-4.0539,-4.0539,-4.0615,-4.0642,-4.0631,-4.0674,-4.0711,-4.0739,-4.0745,-4.0769,-4.0834,-4.0834,-4.0877,-4.0936,-4.0849,-4.0859,-4.0888,-4.0885,-4.0839,-4.0801,-4.0941,-4.0937,-4.0863,-4.0863,-4.0827,-4.0738,0.0,0.0,0.0,0.0,0.0,0.0,0.0,-1.0887,0.0,-1.0143,0.0,-0.9846,-0.9846,-1.0812,-1.1558,-1.1632,0.0,-1.2746,-1.2224,-1.2826,-1.29,-1.2231,-1.3046,-1.3492,-1.3492,-1.3046,-1.2673,0.0,0.0,0.0,0.0,0.0,0.0,0.0,0.0,0.0,0.0,-0.9079,-0.8021,-0.718,-0.6942,-0.6714,-0.6486,-0.6096,-0.5789,-0.5637,-0.5398,-0.5321,-0.5243,-0.5093,-0.5018,-0.5018,-0.4937,-0.4937,-0.4937,-0.4937,-0.4701,-0.4462,-0.4384,-0.4153,-0.3841,-0.3841,-0.3763,-0.3763,-0.3763,-0.4318,-0.6198,-1.0813,-1.2912,-1.6757,0.0,0.0,0.0,0.0,0.0,0.0,0.0,0.0,0.0,0.0,0.0,0.0,0.0,-3.9665,-3.9971,-4.0668,-4.0662,-4.0571,-4.0468,0.0,-4.0568,-4.0458,-4.0618,-4.0721,-4.0738,0.0,-4.082,-4.0837,-4.0828,-4.0868,-4.0908,-4.0908,-4.0945,-4.1003,-4.0996,-4.0999,-4.1007,-4.1007,-4.1007,-4.1026,-4.1078,-4.109,-4.1108,-4.1091,-4.0983,-4.083,0.0,0.0,0.0,0.0,0.0,-1.1111,-1.0962,-1.0663,-1.0293,-0.9771,-0.9846,-0.9771,-0.9473,-1.0067,-1.0738,-1.1409,-1.1781,0.0,0.0,0.0,0.0,-1.1855,-1.2753,-1.3273,-1.3273,-1.2893,-1.2452,0.0,0.0,0.0,0.0,0.0,0.0,0.0,0.0,0.0,-0.9226,-0.8016,0.0,-0.6942,-0.6714,-0.6563,-0.6335,-0.6022,-0.5864,-0.5786,-0.5398,-0.5168,-0.5015,-0.5018,-0.5018,-0.4937,-0.4779,-0.4779,-0.4701,-0.4543,-0.4543,-0.4543,-0.4233,-0.4231,-0.4229,-0.3919,-0.3763,-0.3763,-0.3763,-0.7203,-1.0681,-1.162,-1.8859,-2.5619,-2.739,0.0,0.0,0.0,0.0,0.0,0.0,0.0,0.0,0.0,0.0,-3.698,0.0,0.0,-4.0721,-4.0835,-4.0804,-4.0447,0.0,0.0,0.0,0.0,-4.0413,0.0,0.0,0.0,-4.0909,-4.0967,-4.0967,-4.0972,-4.0986,-4.0986,-4.0993,-4.1,-4.1006,-4.0999,-4.1006,-4.1065,-4.1072,-4.1077,-4.1104,-4.1099,-4.1094,-4.1107,-4.1072,-4.1053,0.0,0.0,0.0,0.0,0.0,0.0,0.0,-1.0513,-1.0218,-0.9549,-0.9544,-0.9468,-0.9013,-0.969,-1.0443,-1.1037,-1.0956,-1.1025,-1.1186,-1.1397,-1.1471,-1.1409,-1.2144,-1.2813,-1.3346,-1.3193,-1.29,-1.2452,0.0,0.0,0.0,0.0,0.0,0.0,0.0,-0.9685,0.0,0.0,0.0,-0.6865,-0.6714,-0.649,-0.6261,-0.5867,-0.5712,-0.5712,-0.5323,-0.5093,-0.5018,-0.5018,-0.5018,-0.4937,-0.4779,-0.4701,-0.4621,-0.4462,-0.4387,-0.4311,-0.4157,-0.4077,-0.4075,-0.3841,-0.3763,-0.4523,-0.732,-0.9938,-1.3392,-1.8979,-2.427,-2.8717,-3.1417,-3.3988,0.0,0.0,0.0,0.0,0.0,0.0,-3.6025,0.0,0.0,0.0,0.0,0.0,0.0,0.0,0.0,0.0,0.0,0.0,0.0,0.0,0.0,0.0,0.0,0.0,0.0,-3.9661,-3.9646,-3.9642,-3.9658,-3.9646,-3.9644,-3.9649,-3.9615,-3.9873,-4.0368,-4.0818,-4.0976,-4.0931,-4.0943,-4.0932,-4.0949,-4.0947,-4.0941,-4.0969,0.0,-1.1099,0.0,0.0,-1.0738,0.0,-1.0143,-1.0067,-0.9841,-0.9397,-0.9397,-0.9241,-0.878,-0.9311,-0.9911,-1.0438,-1.0276,-1.0271,-1.0582,-1.0501,-1.0501,-1.0807,-1.1539,-1.2285,-1.3119,-1.3346,-1.3273,0.0,0.0,0.0,0.0,0.0,0.0,0.0,0.0,0.0,0.0,0.0,-0.7322,-0.6788,-0.6637,-0.6409,-0.618,-0.5792,-0.5559,-0.5482,-0.5096,-0.5018,-0.5018,-0.4937,-0.4937,-0.4937,-0.4779,-0.4623,-0.4545,-0.4462,-0.4231,-0.4079,-0.4079,-0.3999,-0.4121,-0.5256,-0.5507,-0.6917,-1.2312,-1.4409,-1.7627,-2.6149,-2.8802,-3.0856,-3.5045,-3.5811,0.0,0.0,0.0,0.0,0.0,0.0,0.0,0.0,0.0,0.0,-3.7016,0.0,0.0,0.0,0.0,0.0,-3.8221,0.0,0.0,0.0,0.0,-3.8398,-3.8377,0.0,-3.8392,-3.8391,-3.8398,-3.8398,-3.8405,-3.8398,-3.8397,-3.8391,-3.8336,-3.8736,-3.9448,-4.0091,-4.0325,-4.0279,-4.0282,-4.0256,-4.0254,-4.0257,-4.0364,-4.0537,0.0,0.0,0.0,0.0,0.0,0.0,-0.9695,-0.8861,-0.856,-0.9246,-0.962,-0.9539,-0.878,-0.8479,-0.8627,-0.9372,-0.9744,-0.997,-0.997,-1.0657,-1.0726,-1.0045,-1.1099,-1.1781,-1.1855,-1.2973,-1.32,0.0,0.0,-1.2224,0.0,0.0,0.0,0.0,0.0,0.0,0.0,-0.7246,-0.6865,-0.6641,-0.6412,-0.6177,-0.5941,-0.5712,-0.5479,-0.5321,-0.5093,-0.5018,-0.4937,-0.4779,-0.4701,-0.4701,-0.4701,-0.4467,-0.4155,-0.4384,-0.4231,-0.4079,-0.4079,-0.4079,-0.5222,-0.9907,-1.1055,-1.2487,-1.7919,-2.2919,-2.6695,-2.7697,-3.1709,-3.5233,-3.5797,-3.5799,-3.5752,0.0,0.0,0.0,0.0,0.0,-3.5923,-3.5974,0.0,0.0,-3.6113,-3.6902,0.0,0.0,-3.7803,0.0,0.0,0.0,0.0,-3.724,0.0,-3.8365,-3.8311,-3.8363,-3.8399,-3.8399,-3.8393,-3.8404,-3.8411,-3.8404,-3.8404,-3.8397,-3.8383,-3.8421,-3.8433,-3.8504,-3.8535,-3.8535,-3.8521,-3.8505,-3.8429,-3.8449,-3.8896,-3.9539,0.0,0.0,0.0,0.0,0.0,0.0,0.0,-0.9614,-0.9311,-0.8637,-0.916,-0.9155,-0.8093,-0.847,-0.8851,-0.8927,-0.9074,-0.9372,-0.9895,-1.0196,-1.0501,-1.0801,-1.0801,-1.1099,-1.1706,-1.215,-1.2372,0.0,0.0,0.0,0.0,0.0,0.0,0.0,0.0,-0.7944,-0.7557,-0.7096,-0.6865,-0.6791,-0.6412,-0.6103,-0.5864,-0.5712,-0.5479,-0.5243,-0.4935,-0.4857,-0.4779,-0.4621,-0.4621,-0.4623,-0.4389,-0.4235,-0.4077,-0.4075,-0.3997,-0.4607,-0.786,-0.8733,-1.0032,-1.5334,-1.6673,-1.8092,-2.3456,-2.6358,-2.8804,-3.2092,-3.441,-3.5867,-3.59,-3.5814,-3.5783,0.0,0.0,0.0,0.0,0.0,0.0,-3.5817,0.0,-3.5747,-3.5696,-3.6015,0.0,0.0,0.0,0.0,0.0,0.0,0.0,-3.6342,0.0,-3.6774,-3.6733,-3.6733,-3.6748,-3.6774,-3.6744,-3.674,-3.6787,-3.6732,-3.6712,-3.6744,-3.724,-3.7414,-3.7376,-3.7906,-3.8108,-3.8063,-3.8063,-3.805,-3.8012,-3.7978,-3.8185,-3.8497,-1.1019,0.0,-1.1781,0.0,-1.1484,-1.1037,-1.0218,-0.9986,-0.9533,-0.8403,-0.8775,-0.8694,-0.7633,-0.847,-0.8922,-0.8394,-0.8546,-0.9074,-0.982,-0.9895,-1.0346,-1.126,-1.0801,0.0,-1.1632,-1.1706,-1.1922,-1.2278,-1.2144,0.0,0.0,0.0,0.0,0.0,-0.8479,-0.7944,-0.7326,-0.7019,-0.6865,-0.6714,-0.6331,-0.6022,-0.5786,-0.5556,-0.5321,-0.5087,-0.4698,-0.4621,-0.4543,-0.4387,-0.4387,-0.4467,-0.4157,-0.4079,-0.3999,-0.3841,-0.3763,-0.4662,-0.844,-1.0573,-1.3103,-1.8561,-2.1083,-2.3639,-2.905,-3.0287,-3.1371,-3.522,-3.5956,-3.5898,-3.5898,-3.5859,-3.5801,-3.5837,0.0,0.0,0.0,-3.5741,0.0,-3.5696,-3.5639,-3.5577,-3.5534,-3.555,0.0,0.0,0.0,0.0,0.0,0.0,0.0,0.0,0.0,0.0,0.0,-3.5607,-3.562,-3.5668,-3.5609,-3.562,-3.5668,-3.5609,-3.5589,-3.5605,-3.6164,-3.6362,-3.6334,-3.6949,-3.7168,-3.7105,-3.7105,-3.7086,-3.707,-3.7018,-3.719,-3.7417,-1.1037,-1.0962,-1.0962,-1.1335,-1.0887,-1.0519,-1.0513,-0.9458,-0.8703,-0.8703,-0.8703,-0.8394,-0.7561,-0.8246,-0.8399,-0.7561,-0.8246,-0.9074,-0.982,-0.9895,-1.0271,0.0,0.0,-1.1409,-1.1409,-1.1632,-1.2077,-1.29,0.0,0.0,-1.2003,0.0,-1.0357,-1.0115,-0.915,-0.8012,-0.6942,-0.6942,-0.6637,-0.6261,-0.6018,-0.5789,-0.5559,-0.5162,-0.4851,-0.4698,-0.4462,-0.4384,-0.4384,-0.4155,-0.4079,-0.4079,-0.4079,-0.3999,-0.3841,-0.3763,-0.3763,-0.3839,-0.391,-0.7777,-1.3107,-1.8534,-2.3882,-2.9226,-3.4661,-3.5898,-3.5914,-3.5994,-3.5957,-3.5896,-3.5892,-3.5843,-3.5776,-3.5701,0.0,0.0,0.0,-3.5669,0.0,-3.5704,-3.5633,-3.5595,-3.5609,-3.5673,0.0,0.0,0.0,0.0,0.0,0.0,0.0,-3.5618,-3.5607,0.0,-3.5496,-3.556,-3.5604,-3.5604,-3.5604,-3.5604,-3.5604,-3.5604,-3.5554,-3.5507,-3.5507,-3.5436,-3.5312,-3.5331,-3.528,-3.5229,-3.5229,-3.5176,-3.5124,-3.5124,-3.5642,-3.6329,-1.1037,-1.1037,-1.1111,-1.1335,-1.126,-1.1037,-1.0962,-1.0582,-1.0132,-0.9599,-0.9523,-0.9221,-0.8394,-0.9074,-0.9442,0.0,-0.9367,-0.9593,0.0,-1.0426,-1.0807,-1.1111,-1.1186,-1.1186,-1.1186,-1.126,-1.118,-1.1093,0.0,0.0,0.0,-1.1037,-1.0507,-0.9744,-0.8912,-0.8232,-0.7702,-0.6868,-0.6412,-0.6261,-0.587,-0.5556,-0.5398,-0.5082,-0.4851,-0.4623,-0.4311,-0.4233,-0.4155,-0.3999,-0.3921,-0.4555,-0.8182,-0.6798,-0.4553,-0.8182,-0.9257,-1.0857,-1.8239,-2.1466,-2.4104,-2.9533,-3.2169,-3.3874,-3.5618,-3.6005,-3.5997,-3.5947,-3.5899,-3.5885,-3.5838,-3.5745,-3.5679,-3.5696,-3.5678,0.0,-3.5609,0.0,-3.5596,-3.5509,-3.5362,-3.5215,-3.5081,-3.4962,0.0,0.0,0.0,0.0,0.0,0.0,0.0,0.0,-3.5178,0.0,-3.5235,-3.5393,-3.5468,-3.5468,-3.5468,-3.5435,-3.5407,-3.5398,-3.5369,-3.5358,-3.5324,-3.5242,-3.5157,-3.5157,-3.516,-3.5127,-3.5127,-3.5127,-3.5091,-3.5056,-3.5227,-3.5492,-1.0738,-1.0663,-1.0738,-1.0875,-1.1105,-1.126,-1.1111,-1.1111,-1.0887,-1.0426,-1.0121,-0.9744,-0.9226,-0.9593,0.0,-0.9448,-0.9744,-1.0045,-1.0346,-1.0576,-1.0956,-1.1484,-1.126,-1.126,-1.1558,-1.126,0.0,-1.1019,-1.1848,-1.1855,-1.1111,-1.1409,-1.1031,-1.0126,-0.9216,-0.8533,-0.7923,-0.6791,-0.6183,-0.6025,-0.5634,-0.5401,-0.5243,-0.5007,-0.4774,-0.4623,-0.4235,-0.543,-0.704,-0.6876,-0.8182,-1.0433,-1.3825,-1.2557,-1.0529,-1.3848,-1.4854,-1.6291,-2.3038,-2.639,-2.8695,-3.2094,-3.4497,-3.5995,-3.5974,-3.5966,-3.5942,-3.5873,-3.5834,-3.5807,-3.5747,-3.5637,-3.5562,-3.5553,-3.5538,-3.5514,-3.546,0.0,-3.5438,0.0,0.0,0.0,0.0,-3.4588,-3.452,0.0,0.0,0.0,0.0,0.0,0.0,-3.4679,-3.4925,0.0,-3.5034,-3.5239,-3.5354,-3.532,-3.532,-3.5304,-3.527,-3.5258,-3.5261,-3.5226,-3.5174,-3.5124,-3.5053,-3.5053,-3.5037,-3.502,-3.502,-3.502,-3.502,-3.4983,-3.4964,-3.4983,-1.0143,-0.9992,-0.9916,0.0,-1.0651,0.0,-1.1111,-1.1186,-1.1186,-1.1186,-1.0501,-0.997,-0.997,-0.997,-0.9674,-0.8851,0.0,0.0,0.0,-1.0426,-1.0645,-1.215,-1.1484,-1.1484,-1.2305,-1.1484,-1.1484,-1.2305,-1.2224,-1.1781,-1.1186,-1.1855,-1.1855,-1.1111,-1.0126,-0.9059,-0.7914,-0.6865,-0.6103,-0.5712,-0.5398,-0.5321,-0.5243,-0.4857,-0.4701,-0.4623,-0.4235,-0.7285,-1.154,-1.1288,-1.4565,-1.8944,-1.9687,-1.9901,-1.9995,-2.0339,-2.0474,-2.0528,-2.0916,-2.4675,-2.846,-2.8467,-3.2241,-3.5968,-3.5908,-3.5898,-3.5859,-3.5799,-3.5736,-3.5669,-3.5607,-3.5519,-3.5432,-3.5311,-3.5345,-3.5345,-3.5215,-3.5242,-3.5203,0.0,0.0,0.0,0.0,-3.4508,-3.4439,0.0,0.0,0.0,0.0,0.0,-3.4639,-3.4454,-3.4775,-3.4888,-3.4832,-3.5088,-3.5209,-3.5157,-3.5193,-3.5193,-3.5193,-3.5193,-3.5141,-3.507,-3.507,-3.5018,-3.4964,-3.4945,-3.4927,-3.4889,-3.4851,-3.4851,-3.4851,-3.4831,-3.4791,-3.4747,0.0,0.0,-0.9544,-0.9916,-1.0363,-1.0887,-1.1484,-1.1855,-1.2003,-1.2003,-1.1329,-1.0807,-1.0807,-1.0807,-1.0501,-0.9674,-0.982,-1.0271,-1.1037,-1.0956,-1.0956,-1.1335,-1.1186,-1.1484,-1.2305,-1.1484,-1.1484,-1.2305,-1.1099,-1.1019,-1.2003,-1.1558,-1.1558,-1.1781,-1.087,-1.026,-0.9728,-0.8143,-0.7161,-0.6703,-0.5864,-0.5326,-0.5015,-0.4779,-0.4701,-0.4623,-0.4235,-0.4951,-0.5989,-0.5752,-0.6553,-0.908,-1.729,-1.9908,-2.068,-2.4805,-2.5999,-2.6916,-3.1058,-3.3111,-3.4068,-3.4019,-3.4919,-3.5833,-3.5826,-3.5826,-3.5784,-3.5669,-3.563,-3.5599,-3.547,-3.5393,-3.532,-3.5242,-3.5281,-3.5247,-3.507,-3.5062,-3.499,0.0,-3.4508,-3.4307,-3.4136,-3.3954,-3.385,0.0,0.0,0.0,0.0,-3.3876,-3.3935,-3.3884,-3.4056,-3.4157,-3.4134,-3.4349,-3.4617,-3.4908,-3.5056,-3.5127,-3.5127,-3.5073,-3.4926,-3.4734,-3.4831,-3.4751,-3.4542,-3.4498,-3.4542,-3.4647,-3.4284,-3.426,-3.4413,-3.4218,-3.4123,-3.4099,-0.9397,-0.9322,-0.9322,-0.9311,-0.9841,-1.0438,-1.1037,-1.1632,-1.2077,-1.2305,-1.1929,-1.1484,-1.1111,-1.0807,-1.0351,-0.997,-1.0276,-1.0657,-1.1037,-1.0732,-1.0875,-1.1632,-1.095,-1.0956,-1.1706,-1.0956,-1.0801,-1.1174,-1.1093,-1.1248,-1.1706,-1.1335,-1.1484,-1.2077,-1.0795,-1.0265,-1.0265,-0.8827,-0.7766,-0.6934,-0.6244,-0.5631,-0.509,-0.4779,-0.4701,-0.4623,-0.4235,-0.5671,-0.8099,-1.0355,-1.285,-1.6338,-2.4661,-2.7285,-2.7811,-3.0722,-3.1573,-3.2231,-3.5154,-3.5948,-3.5942,-3.5859,-3.5838,-3.5779,-3.5724,-3.5706,-3.566,-3.5526,-3.5457,-3.5372,-3.5251,-3.5157,-3.5091,-3.5,-3.5,-3.4982,-3.4889,-3.4775,0.0,-3.4439,-3.4237,-3.4037,-3.3842,-3.3671,-3.3605,-3.3633,-3.3549,0.0,-3.3491,-3.3549,-3.3577,-3.3605,-3.376,-3.3847,-3.3839,-3.3988,-3.4162,-3.4379,-3.4508,-3.4551,-3.4551,-3.4508,-3.4423,-3.4269,-3.4371,-3.4302,-3.4184,-3.4136,-3.4184,-3.4255,-3.4,-3.3975,-3.4093,-3.3949,-3.3854,-3.3802,-0.9549,-0.9473,-0.9322,-0.8932,-0.9463,-1.0143,-1.0594,-1.126,-1.1929,-1.2305,-1.2378,-1.2077,-1.126,-1.0576,-1.0045,-0.9744,-1.0351,-1.0812,-1.0881,-1.0276,-1.0571,-1.2077,-1.072,-1.0276,-1.1111,-1.0426,-1.0045,-1.0045,-1.1477,-1.1855,-1.126,-1.1031,-1.1329,-1.1996,-1.0501,-0.997,-1.019,-0.9362,-0.838,-0.7379,-0.7633,-0.6843,-0.5455,-0.5764,-0.5348,-0.4701,-0.5188,-0.8264,-1.2935,-1.8144,-2.2994,-2.7698,-3.3097,-3.4794,-3.4925,-3.5681,-3.5929,-3.5963,-3.5911,-3.5862,-3.5838,-3.5779,-3.5745,-3.5685,-3.557,-3.5546,-3.5507,-3.536,-3.5239,-3.5141,-3.4981,-3.4908,-3.4831,-3.4713,-3.4668,-3.4645,-3.4623,0.0,-3.4245,-3.4124,-3.3954,-3.3762,-3.353,-3.3549,-3.3462,-3.3304,-3.3364,-3.3364,-3.3274,-3.3334,-3.3364,-3.3375,-3.3588,-3.368,-3.368,-3.3787,-3.3828,-3.3828,-3.388,-3.3906,-3.3906,-3.3906,-3.388,-3.3828,-3.3828,-3.3828,-3.3776,-3.375,-3.375,-3.3776,-3.3678,-3.3678,-3.3705,-3.3678,-3.3588,-3.3478,-1.0143,-1.0067,-0.9992,-0.9765,-1.0067,-1.0594,-1.1186,-1.1632,-1.2157,-1.2753,-1.2826,-1.2452,-1.1484,-1.1254,-1.0576,-0.9003,-0.9003,-0.9377,-1.0045,-0.997,-1.0346,-1.126,-1.0426,-1.0276,-1.1111,-1.0962,-1.0881,-1.0881,-1.118,-1.1558,-1.2077,-1.072,-1.0415,-1.1013,-1.0726,-1.0576,-1.0415,-1.0276,-0.99,-0.9702,-1.2344,-1.0484,-0.6432,-0.985,-0.8353,-0.5018,-0.9335,-1.1372,-1.2935,-1.8144,-2.0452,-2.2073,-2.747,-2.9171,-3.0039,-3.4514,-3.5811,-3.5843,-3.5815,-3.5726,-3.5649,-3.563,-3.5488,-3.5378,-3.5336,-3.5355,-3.5296,-3.5102,-3.5051,-3.4963,-3.4771,-3.4749,-3.4708,-3.4626,-3.4454,-3.434,-3.4293,0.0,-3.3643,-3.3698,-3.3426,-3.319,-3.3099,-3.3244,-3.3183,-3.277,-3.3135,-3.3196,-3.277,-3.2961,-3.2961,-3.277,-3.3019,-3.319,-3.3117,-3.3379,-3.3514,-3.3552,-3.3776,-3.3906,-3.3906,-3.3906,-3.3795,-3.3552,-3.3561,-3.3439,-3.3214,-3.2983,-3.2996,-3.3112,-3.2713,-3.2699,-3.2858,-3.2634,-3.2553,-3.2519,-1.0363,-0.9986,-0.9836,-1.0143,-1.0368,-1.0663,-1.1037,-1.126,-1.1484,-1.1855,-1.1929,-1.1781,-1.126,-1.0887,-1.0288,-0.9387,-0.8932,-0.8851,-0.9221,-0.9226,-0.9599,-1.0426,-1.0121,-1.0045,-1.0426,-1.0426,-1.0657,-1.1111,-1.1111,-1.1484,-1.2305,-1.0956,-1.0496,-1.0783,-1.0196,-0.9825,-0.9508,-0.9513,-0.9291,-0.908,-1.0424,-0.9373,-0.7171,-0.829,-0.8979,-0.9611,-1.1354,-1.3838,-1.7084,-2.2424,-2.4225,-2.514,-3.0487,-3.2164,-3.263,-3.5044,-3.5747,-3.5734,-3.5697,-3.5615,-3.5526,-3.5464,-3.5369,-3.5266,-3.5152,-3.5119,-3.5032,-3.487,-3.4753,-3.463,-3.4454,-3.434,-3.4245,-3.4124,-3.3998,0.0,0.0,-3.3625,-3.3426,-3.3339,-3.3147,-3.293,-3.2802,-3.2866,-3.2834,-3.2606,-3.2834,-3.2866,-3.2588,-3.2737,-3.2705,-3.2557,-3.2722,-3.2737,-3.2621,-3.2862,-3.297,-3.3032,-3.3148,-3.3207,-3.3207,-3.31,-3.2978,-3.2858,-3.284,-3.2795,-3.2669,-3.2537,-3.2519,-3.2601,-3.2369,-3.2386,-3.247,-3.2352,-3.2283,-3.2283,-1.0062,-0.9604,-0.9377,-1.0137,-1.0212,-1.0363,-1.0887,-1.0962,-1.1037,-1.1335,-1.1409,-1.126,-1.1037,-1.0519,-0.9992,-0.969,-0.916,-0.8775,-0.8703,-0.8703,-0.8998,-0.9744,-0.9669,-0.9744,-0.9895,-0.9744,-0.99,-1.0501,-1.0657,-1.1031,-1.1552,-1.0651,-1.0276,-1.034,-0.9367,-0.8761,-0.8604,-0.8604,-0.838,-0.8206,-0.9124,-0.9417,-0.9166,-0.9192,-1.0854,-1.3244,-1.3512,-1.6325,-2.0733,-2.6092,-2.8723,-3.0466,-3.4501,-3.5773,-3.5762,-3.5651,-3.5565,-3.5534,-3.5493,-3.5412,-3.5326,-3.5216,-3.5152,-3.5051,-3.4889,-3.4794,-3.4695,-3.4564,-3.4386,-3.4245,-3.4124,-3.3947,-3.3807,-3.3698,0.0,0.0,0.0,-3.3345,-3.3165,-3.2988,-3.2848,-3.2705,-3.2539,-3.2539,-3.2539,-3.2438,-3.2539,-3.2539,-3.2438,-3.2472,-3.2438,-3.2318,-3.2422,-3.2404,-3.2283,-3.2454,-3.2521,-3.2521,-3.2521,-3.2521,-3.2539,-3.2352,-3.2283,-3.2283,-3.2249,-3.2249,-3.2266,-3.2179,-3.2144,-3.2144,-3.2144,-3.2144,-3.2144,-3.2179,-3.2144,-3.2144,-0.915,-0.8927,-0.8932,-0.9544,-0.9533,-0.9825,-1.118,-1.1335,-1.1558,-1.215,-1.2224,-1.1855,-1.0887,-1.0738,-1.0288,-0.9155,-0.9003,-0.8927,-0.8703,-0.8703,-0.8927,-0.9296,-0.8998,-0.915,-0.9895,-0.915,-0.8694,-0.8609,-0.9367,-0.9674,-0.9523,-0.8689,-0.8613,-0.9074,-0.8075,-0.7918,-0.838,-0.8232,-0.8156,-0.8501,-1.2943,-1.4189,-1.3809,-1.8185,-1.6504,-1.2388,-1.7345,-1.9456,-2.0712,-2.6091,-3.1204,-3.5355,-3.5615,-3.5695,-3.5662,-3.5399,-3.5193,-3.5066,-3.5133,-3.4997,-3.487,-3.4925,-3.4694,-3.4454,-3.4454,-3.4344,-3.4203,-3.4074,-3.3998,-3.3895,-3.3753,-3.3671,-3.3633,-3.3605,0.0,0.0,-3.3142,-3.2848,-3.2654,-3.2639,-3.2454,-3.2318,-3.2249,-3.2387,-3.2318,-3.1893,-3.2335,-3.2404,-3.191,-3.2108,-3.2108,-3.1873,-3.2161,-3.2318,-3.2283,-3.2318,-3.2318,-3.2318,-3.2318,-3.2318,-3.2318,-3.2318,-3.2283,-3.2283,-3.2179,-3.2108,-3.2073,-3.1765,-3.1654,-3.1654,-3.1654,-3.1654,-3.1654,-3.1783,-3.1746,-3.1654,-0.8537,-0.8466,-0.8542,-0.9306,-0.976,-1.0212,-1.0588,-1.1111,-1.1409,-1.1335,-1.1335,-1.1186,-1.0663,-1.0588,-1.0438,-0.9986,-0.9911,-0.9911,-0.9836,-0.9614,-0.9539,-0.9685,-0.9539,-0.9836,-1.0657,-0.9836,-0.9685,-1.0051,-0.9906,-0.9986,-1.0432,-0.9976,-0.9599,-0.9372,-0.8836,-0.8156,-0.7246,-0.7011,-0.6853,-0.6885,-0.8589,-0.9326,-0.9591,-1.0787,-1.1867,-1.2906,-1.4302,-1.6978,-2.0701,-2.6024,-2.9203,-3.1422,-3.4677,-3.5704,-3.562,-3.5228,-3.5066,-3.4944,-3.4734,-3.4734,-3.4773,-3.463,-3.448,-3.434,-3.4197,-3.4124,-3.4049,-3.3895,-3.3807,-3.3671,-3.3605,-3.3415,-3.3268,-3.3208,0.0,-3.3024,-3.2993,-3.277,-3.2555,-3.242,-3.2266,-3.2091,-3.1839,-3.1965,-3.1965,-3.1709,-3.1948,-3.202,-3.18,-3.191,-3.191,-3.18,-3.1929,-3.1984,-3.1984,-3.2091,-3.2179,-3.2179,-3.2179,-3.2126,-3.2038,-3.193,-3.1839,-3.1819,-3.1763,-3.1726,-3.1726,-3.1576,-3.1538,-3.1538,-3.1538,-3.1538,-3.1538,-3.1593,-3.1576,-3.1538,-0.7846,-0.7927,-0.808,-0.9069,-0.9604,-0.9911,-0.9911,-1.0588,-1.1037,-1.0738,-1.0962,-1.1111,-1.0962,-1.1037,-1.1037,-1.0962,-1.0887,-1.0887,-1.0812,-1.0443,-1.0218,-0.9997,-0.9765,-0.9992,-1.0738,-0.9916,-0.976,-1.0282,-0.969,-0.9685,-1.0126,-1.0051,-0.9825,-0.9518,-0.9216,-0.8309,-0.6865,-0.6546,-0.5999,-0.5461,-0.5544,-0.6704,-0.8354,-0.7925,-1.0909,-1.5267,-1.4496,-1.7765,-2.2928,-2.6542,-2.89,-3.0907,-3.4553,-3.5631,-3.5509,-3.5117,-3.4944,-3.4755,-3.426,-3.4242,-3.4379,-3.4363,-3.4269,-3.4148,-3.3921,-3.3842,-3.3807,-3.3698,-3.3559,-3.3386,-3.3268,-3.3055,-3.2898,-3.2852,-3.2705,-3.2621,-3.2705,-3.2521,-3.2318,-3.2109,-3.1984,-3.1856,-3.1596,-3.1651,-3.1688,-3.1596,-3.1651,-3.1688,-3.1688,-3.1688,-3.1688,-3.1688,-3.1688,-3.1688,-3.1688,-3.191,-3.1965,-3.1965,-3.1965,-3.1875,-3.1765,-3.1634,-3.1538,-3.1517,-3.1517,-3.1517,-3.1517,-3.1462,-3.1462,-3.1462,-3.1462,-3.1462,-3.1462,-3.1479,-3.1462,-3.1462,-0.7011,-0.7165,-0.7548,-0.877,-0.8851,-0.8851,-0.9221,-0.9981,-1.0513,-1.0513,-1.1335,-1.2003,-1.2003,-1.215,-1.2231,-1.2003,-1.1855,-1.1632,-1.1409,-1.126,-1.0887,-1.0218,-0.9458,-0.9306,-0.9922,-0.916,-0.8627,-0.8403,-0.8403,-0.8318,-0.8156,-0.8156,-0.8537,-0.9296,-0.8908,-0.83,-0.746,-0.6984,-0.5912,-0.446,-0.5306,-0.8157,-1.1995,-1.2896,-1.5904,-1.9587,-1.9587,-2.3122,-2.7756,-2.7709,-3.1235,-3.5635,-3.5684,-3.5521,-3.5268,-3.5047,-3.4794,-3.4423,-3.3678,-3.3505,-3.3607,-3.408,-3.3998,-3.3734,-3.3615,-3.3509,-3.3393,-3.3393,-3.3226,-3.3006,-3.2734,-3.2606,-3.2507,-3.2507,-3.2214,-3.2074,-3.2283,-3.2073,-3.1839,-3.1617,-3.1617,-3.1559,-3.1517,-3.1517,-3.1517,-3.1517,-3.1517,-3.1517,-3.1517,-3.1517,-3.1517,-3.1517,-3.1517,-3.1517,-3.1517,-3.1688,-3.1746,-3.1617,-3.1617,-3.1559,-3.1517,-3.1517,-3.1517,-3.1517,-3.1517,-3.1517,-3.1479,-3.1351,-3.1295,-3.1295,-3.1295,-3.1295,-3.1312,-3.1462,-3.1406,-3.1295,-0.6542,-0.7088,-0.7706,-0.8623,-0.9236,-0.9463,-0.915,-1.0282,-1.0962,-1.0368,-1.126,-1.1929,-1.1781,-1.2077,-1.2305,-1.2231,-1.2157,-1.2298,-1.2652,-1.2579,-1.2432,-1.2131,-1.1025,-1.0582,-1.0962,-1.0732,-1.0657,-1.0732,-1.0732,-1.0507,-0.9981,-0.9981,-0.9906,-0.969,-0.9609,-0.9074,-0.8313,-0.8071,-0.7302,-0.6652,-0.9782,-1.1733,-1.3246,-1.6507,-1.8546,-1.9655,-1.9655,-2.0709,-2.2689,-2.643,-2.875,-3.0732,-3.4513,-3.5521,-3.52,-3.4624,-3.4258,-3.3883,-3.3146,-3.2942,-3.2942,-3.2991,-3.2947,-3.284,-3.2731,-3.2651,-3.2636,-3.2636,-3.2586,-3.2486,-3.2369,-3.2318,-3.2249,-3.2162,-3.2091,-3.2039,-3.2074,-3.193,-3.1819,-3.1821,-3.1634,-3.15,-3.1517,-3.1517,-3.1462,-3.1351,-3.1462,-3.1517,-3.1517,-3.1517,-3.1517,-3.1517,-3.1517,-3.1517,-3.1517,-3.1555,-3.1576,-3.1538,-3.1538,-3.1445,-3.1351,-3.1351,-3.1329,-3.1269,-3.1269,-3.1269,-3.1269,-3.1269,-3.1213,-3.1213,-3.1213,-3.1213,-3.1213,-3.1269,-3.1269,-3.1252,-0.6079,-0.6784,-0.7484,-0.8399,-0.8699,-0.877,-0.8542,-0.9367,-0.997,-0.9836,-1.0875,-1.1694,-1.1929,-1.2305,-1.2673,-1.2959,-1.3244,-1.3528,-1.3738,-1.3818,-1.381,-1.3585,-1.2858,-1.2211,-1.1558,-1.1774,-1.1848,-1.1706,-1.2131,-1.2057,-1.1545,-1.1248,-1.095,-1.0582,-1.0363,-0.9609,-0.867,-1.0551,-1.0639,-0.9962,-1.4141,-1.5836,-1.6095,-1.8721,-2.1035,-2.2838,-2.2838,-2.4235,-2.6511,-2.9649,-3.0637,-3.1139,-3.4404,-3.5185,-3.4753,-3.4205,-3.3796,-3.3351,-3.2606,-3.2415,-3.2348,-3.2056,-3.2248,-3.2451,-3.2334,-3.2317,-3.2317,-3.2317,-3.2283,-3.2197,-3.202,-3.2002,-3.193,-3.1841,-3.1768,-3.1731,-3.1894,-3.1728,-3.1617,-3.1674,-3.1504,-3.1423,-3.1385,-3.1402,-3.1346,-3.1274,-3.1346,-3.1402,-3.1402,-3.1402,-3.1402,-3.1402,-3.1402,-3.1402,-3.1402,-3.1402,-3.1385,-3.1406,-3.1406,-3.1368,-3.1274,-3.1274,-3.1252,-3.119,-3.119,-3.119,-3.119,-3.119,-3.119,-3.119,-3.119,-3.119,-3.119,-3.119,-3.119,-3.119,-0.5854,-0.6479,-0.7022,-0.8174,-0.7783,-0.7395,-0.7783,-0.7846,-0.8223,-0.9069,-1.0265,-1.1385,-1.2077,-1.2599,-1.3258,-1.4057,-1.484,-1.5117,-1.4816,-1.4895,-1.4966,-1.4816,-1.4744,-1.3875,-1.207,-1.2572,-1.2572,-1.207,-1.3063,-1.3281,-1.2712,-1.2191,-1.1896,-1.1816,-1.1592,-1.066,-0.9543,-1.431,-1.5517,-1.4541,-1.8836,-2.0556,-2.0599,-2.0966,-2.4167,-2.8432,-2.8432,-3.1561,-3.5643,-3.5339,-3.5108,-3.4942,-3.4868,-3.4507,-3.4035,-3.3747,-3.3359,-3.2835,-3.2144,-3.1932,-3.1787,-3.1329,-3.1787,-3.235,-3.2196,-3.2162,-3.2179,-3.2162,-3.2109,-3.2002,-3.1694,-3.16,-3.1542,-3.1542,-3.1329,-3.1308,-3.1688,-3.1466,-3.1295,-3.1295,-3.1295,-3.1274,-3.123,-3.119,-3.119,-3.119,-3.119,-3.119,-3.119,-3.119,-3.119,-3.119,-3.119,-3.119,-3.119,-3.119,-3.1213,-3.1295,-3.1295,-3.1274,-3.119,-3.119,-3.119,-3.119,-3.119,-3.119,-3.119,-3.119,-3.119,-3.119,-3.119,-3.119,-3.119,-3.119,-3.119,-3.119,-0.6247,-0.6714,-0.7173,-0.825,-0.8246,-0.8093,-0.7859,-0.8165,-0.8466,-0.8385,-0.9809,-1.1013,-1.1335,-1.2305,-1.3258,-1.4201,-1.5046,-1.5754,-1.6105,-1.6026,-1.6026,-1.6175,-1.6026,-1.5596,-1.4879,-1.453,-1.4458,-1.4673,-1.4752,-1.453,-1.3939,-1.3795,-1.3498,-1.3158,-1.5476,-1.6309,-1.6253,-1.9775,-2.1068,-2.1116,-2.5419,-2.7147,-2.7512,-3.0918,-3.2961,-3.3959,-3.3959,-3.4706,-3.5581,-3.4917,-3.4637,-3.451,-3.3926,-3.3561,-3.325,-3.2763,-3.2435,-3.2092,-3.1507,-3.1351,-3.1368,-3.123,-3.1329,-3.1372,-3.0971,-3.1162,-3.1334,-3.0988,-3.1162,-3.1368,-3.1134,-3.1055,-3.1055,-3.1055,-3.0992,-3.1072,-3.1308,-3.1269,-3.1252,-3.1295,-3.1235,-3.1252,-3.1274,-3.1213,-3.119,-3.119,-3.119,-3.119,-3.119,-3.119,-3.119,-3.119,-3.119,-3.119,-3.119,-3.119,-3.119,-3.1213,-3.1213,-3.123,-3.119,-3.119,-3.119,-3.119,-3.119,-3.119,-3.119,-3.119,-3.119,-3.119,-3.119,-3.119,-3.119,-3.119,-3.119,-3.119,-0.578,-0.6093,-0.6553,-0.7859,-0.7714,-0.7484,-0.7783,-0.7706,-0.7783,-0.808,-0.8983,-0.9965,-1.0887,-1.1632,-1.2732,-1.441,-1.5542,-1.6394,-1.6968,-1.7088,-1.695,-1.6455,-1.6802,-1.6724,-1.6175,-1.6437,-1.6289,-1.5604,-1.5965,-1.6088,-1.5904,-1.5536,-1.5362,-1.5583,-1.6617,-1.7735,-1.894,-2.2701,-2.4894,-2.6233,-3.0557,-3.2297,-3.2562,-3.4822,-3.5456,-3.5177,-3.555,-3.5393,-3.4874,-3.4095,-3.3757,-3.358,-3.3177,-3.2847,-3.2503,-3.2258,-3.1899,-3.1562,-3.1269,-3.119,-3.119,-3.119,-3.119,-3.1151,-3.0878,-3.0838,-3.0797,-3.0559,-3.0699,-3.0757,-3.0426,-3.0651,-3.0871,-3.0716,-3.0814,-3.0952,-3.1151,-3.119,-3.123,-3.1252,-3.123,-3.123,-3.1252,-3.123,-3.119,-3.119,-3.119,-3.119,-3.119,-3.119,-3.119,-3.119,-3.119,-3.119,-3.119,-3.119,-3.119,-3.119,-3.119,-3.119,-3.119,-3.119,-3.119,-3.119,-3.119,-3.119,-3.119,-3.119,-3.119,-3.119,-3.119,-3.119,-3.119,-3.119,-3.119,-3.119,-0.5079,-0.5395,-0.586,-0.7242,-0.6945,-0.6721,-0.7629,-0.7176,-0.7022,-0.7855,-0.8232,-0.8912,-1.0282,-1.1031,-1.2271,-1.4466,-1.5745,-1.6673,-1.7176,-1.7529,-1.7295,-1.6376,-1.7148,-1.7295,-1.6533,-1.7823,-1.7677,-1.6026,-1.707,-1.7677,-1.7707,-1.725,-1.7417,-1.8061,-1.7576,-1.8674,-2.1055,-2.5228,-2.8291,-3.0641,-3.4242,-3.5704,-3.5704,-3.5704,-3.529,-3.4776,-3.5303,-3.4887,-3.3956,-3.3205,-3.2811,-3.2606,-3.2479,-3.2161,-3.186,-3.186,-3.1487,-3.1055,-3.1055,-3.1015,-3.0918,-3.0975,-3.0975,-3.0975,-3.0975,-3.0699,-3.0477,-3.0393,-3.0393,-3.0267,-2.9793,-3.0241,-3.0593,-3.0493,-3.0634,-3.0871,-3.1151,-3.119,-3.119,-3.119,-3.119,-3.119,-3.119,-3.119,-3.119,-3.119,-3.119,-3.119,-3.119,-3.119,-3.119,-3.119,-3.119,-3.119,-3.119,-3.119,-3.119,-3.119,-3.119,-3.119,-3.119,-3.119,-3.119,-3.119,-3.119,-3.119,-3.119,-3.119,-3.119,-3.119,-3.119,-3.119,-3.119,-3.119,-3.119,-3.119,-0.4776,-0.5398,-0.5938,-0.6318,-0.6788,-0.718,-0.7484,-0.7334,-0.7257,-0.7561,-0.808,-0.8537,-0.8927,-1.1137,-1.2837,-1.352,-1.495,-1.5886,-1.5956,-1.6455,-1.6664,-1.6298,-1.695,-1.695,-1.6376,-1.7755,-1.8172,-1.7432,-1.8613,-1.888,-1.8365,-1.8859,-1.918,-1.9401,-2.197,-2.4365,-2.6736,-3.0029,-3.2737,-3.4873,-3.5446,-3.5704,-3.5704,-3.5704,-3.5623,-3.5463,-3.4878,-3.4163,-3.34,-3.2679,-3.2378,-3.2237,-3.1588,-3.1351,-3.1291,-3.1291,-3.0902,-3.0435,-3.0559,-3.0192,-2.9848,-2.9968,-2.9984,-2.9984,-2.9984,-3.0267,-3.0393,-2.9968,-2.9881,-2.9793,-2.9512,-2.954,-2.9733,-3.0172,-3.0274,-3.0526,-3.1112,-3.119,-3.119,-3.119,-3.119,-3.119,-3.119,-3.119,-3.119,-3.119,-3.119,-3.119,-3.119,-3.119,-3.119,-3.119,-3.119,-3.119,-3.119,-3.119,-3.119,-3.119,-3.119,-3.119,-3.119,-3.119,-3.119,-3.119,-3.119,-3.119,-3.119,-3.119,-3.119,-3.119,-3.119,-3.119,-3.119,-3.119,-3.119,-3.119,-0.4543,-0.4929,-0.5318,-0.6247,-0.6556,-0.6865,-0.7407,-0.7638,-0.7642,-0.7484,-0.794,-0.8318,-0.8703,-1.0484,-1.2044,-1.2851,-1.3932,-1.4934,-1.5649,-1.6237,-1.6464,-1.6175,-1.6811,-1.6811,-1.6035,-1.7677,-1.8365,-1.8172,-1.9145,-1.9803,-1.9955,-2.0204,-2.0526,-2.1101,-2.2434,-2.4326,-2.6611,-2.9265,-3.1722,-3.39,-3.5194,-3.5432,-3.5028,-3.5028,-3.4302,-3.3204,-3.2427,-3.2219,-3.2188,-3.1441,-3.1414,-3.1502,-3.0493,-3.0435,-3.0658,-3.0377,-3.0064,-2.9848,-3.0038,-2.9865,-2.9629,-2.975,-2.9793,-2.9793,-2.9793,-2.975,-2.9645,-2.9438,-2.9393,-2.9303,-2.8904,-2.915,-2.9467,-2.9589,-2.9913,-3.0359,-3.0757,-3.1015,-3.119,-3.119,-3.119,-3.119,-3.119,-3.119,-3.119,-3.119,-3.119,-3.119,-3.119,-3.1252,-3.1252,-3.1252,-3.1252,-3.1252,-3.1252,-3.123,-3.123,-3.1252,-3.123,-3.119,-3.119,-3.119,-3.119,-3.119,-3.119,-3.119,-3.119,-3.119,-3.119,-3.119,-3.119,-3.119,-3.119,-3.119,-3.119,-3.119]}]]